<?xml version="1.0" encoding="UTF-8" standalone="no" ?>
<gpx xmlns="http://www.topografix.com/GPX/1/1" xmlns:xsi="http://www.w3.org/2001/XMLSchema-instance" xsi:schemaLocation="http://www.topografix.com/GPX/1/1 http://www.topografix.com/GPX/1/1/gpx.xsd" version="1.1" creator="VisuGPX - https://www.visugpx.com">
  <metadata>
    <name>Joyeux Randonneurs à Ribérac </name>
    <desc><![CDATA[Randonnée accessible à tous. Il existe pratiquement toujours des possibilités  pour raccourcir le circuit à environ  6km.  ]]></desc>
  </metadata>
  <trk>
    <name><![CDATA[Tracé 1 mars 2016 14:06:49]]></name>
    <trkseg>
      <trkpt lat="45.24789" lon="0.33839">
        <ele>55</ele>
        <time>2016-03-01T13:12:53Z</time>
      </trkpt>
      <trkpt lat="45.24786" lon="0.33835">
        <ele>50</ele>
        <time>2016-03-01T13:13:13Z</time>
      </trkpt>
      <trkpt lat="45.24781" lon="0.33834">
        <ele>50</ele>
        <time>2016-03-01T13:13:17Z</time>
      </trkpt>
      <trkpt lat="45.24773" lon="0.33834">
        <ele>52</ele>
        <time>2016-03-01T13:13:22Z</time>
      </trkpt>
      <trkpt lat="45.2477" lon="0.33829">
        <ele>48</ele>
        <time>2016-03-01T13:13:45Z</time>
      </trkpt>
      <trkpt lat="45.24765" lon="0.33826">
        <ele>51</ele>
        <time>2016-03-01T13:13:49Z</time>
      </trkpt>
      <trkpt lat="45.24762" lon="0.33835">
        <ele>53</ele>
        <time>2016-03-01T13:13:53Z</time>
      </trkpt>
      <trkpt lat="45.24757" lon="0.3384">
        <ele>52</ele>
        <time>2016-03-01T13:13:57Z</time>
      </trkpt>
      <trkpt lat="45.24752" lon="0.33843">
        <ele>51</ele>
        <time>2016-03-01T13:14:01Z</time>
      </trkpt>
      <trkpt lat="45.24746" lon="0.33845">
        <ele>51</ele>
        <time>2016-03-01T13:14:05Z</time>
      </trkpt>
      <trkpt lat="45.2474" lon="0.33853">
        <ele>52</ele>
        <time>2016-03-01T13:14:10Z</time>
      </trkpt>
      <trkpt lat="45.24736" lon="0.33858">
        <ele>56</ele>
        <time>2016-03-01T13:14:14Z</time>
      </trkpt>
      <trkpt lat="45.24731" lon="0.33862">
        <ele>58</ele>
        <time>2016-03-01T13:14:18Z</time>
      </trkpt>
      <trkpt lat="45.24724" lon="0.33863">
        <ele>60</ele>
        <time>2016-03-01T13:14:23Z</time>
      </trkpt>
      <trkpt lat="45.24717" lon="0.33865">
        <ele>62</ele>
        <time>2016-03-01T13:14:28Z</time>
      </trkpt>
      <trkpt lat="45.24713" lon="0.33869">
        <ele>58</ele>
        <time>2016-03-01T13:14:32Z</time>
      </trkpt>
      <trkpt lat="45.24708" lon="0.3387">
        <ele>60</ele>
        <time>2016-03-01T13:14:36Z</time>
      </trkpt>
      <trkpt lat="45.24699" lon="0.33874">
        <ele>58</ele>
        <time>2016-03-01T13:14:41Z</time>
      </trkpt>
      <trkpt lat="45.24696" lon="0.33882">
        <ele>57</ele>
        <time>2016-03-01T13:14:45Z</time>
      </trkpt>
      <trkpt lat="45.2469" lon="0.33887">
        <ele>54</ele>
        <time>2016-03-01T13:14:50Z</time>
      </trkpt>
      <trkpt lat="45.24683" lon="0.33888">
        <ele>53</ele>
        <time>2016-03-01T13:14:54Z</time>
      </trkpt>
      <trkpt lat="45.24677" lon="0.33885">
        <ele>52</ele>
        <time>2016-03-01T13:14:58Z</time>
      </trkpt>
      <trkpt lat="45.24673" lon="0.33885">
        <ele>51</ele>
        <time>2016-03-01T13:15:07Z</time>
      </trkpt>
      <trkpt lat="45.24669" lon="0.33887">
        <ele>49</ele>
        <time>2016-03-01T13:15:13Z</time>
      </trkpt>
      <trkpt lat="45.24667" lon="0.33891">
        <ele>52</ele>
        <time>2016-03-01T13:15:18Z</time>
      </trkpt>
      <trkpt lat="45.24664" lon="0.33893">
        <ele>54</ele>
        <time>2016-03-01T13:15:22Z</time>
      </trkpt>
      <trkpt lat="45.2466" lon="0.33898">
        <ele>54</ele>
        <time>2016-03-01T13:15:26Z</time>
      </trkpt>
      <trkpt lat="45.24656" lon="0.33902">
        <ele>56</ele>
        <time>2016-03-01T13:15:31Z</time>
      </trkpt>
      <trkpt lat="45.24652" lon="0.33905">
        <ele>52</ele>
        <time>2016-03-01T13:15:35Z</time>
      </trkpt>
      <trkpt lat="45.24646" lon="0.33913">
        <ele>52</ele>
        <time>2016-03-01T13:15:40Z</time>
      </trkpt>
      <trkpt lat="45.2464" lon="0.33919">
        <ele>54</ele>
        <time>2016-03-01T13:15:44Z</time>
      </trkpt>
      <trkpt lat="45.24637" lon="0.33924">
        <ele>53</ele>
        <time>2016-03-01T13:15:48Z</time>
      </trkpt>
      <trkpt lat="45.24636" lon="0.33932">
        <ele>57</ele>
        <time>2016-03-01T13:15:52Z</time>
      </trkpt>
      <trkpt lat="45.24624" lon="0.33938">
        <ele>49</ele>
        <time>2016-03-01T13:15:57Z</time>
      </trkpt>
      <trkpt lat="45.24619" lon="0.3394">
        <ele>48</ele>
        <time>2016-03-01T13:16:02Z</time>
      </trkpt>
      <trkpt lat="45.24614" lon="0.33937">
        <ele>48</ele>
        <time>2016-03-01T13:16:06Z</time>
      </trkpt>
      <trkpt lat="45.24617" lon="0.33935">
        <ele>49</ele>
        <time>2016-03-01T13:16:10Z</time>
      </trkpt>
      <trkpt lat="45.2461" lon="0.33931">
        <ele>52</ele>
        <time>2016-03-01T13:16:14Z</time>
      </trkpt>
      <trkpt lat="45.24606" lon="0.33929">
        <ele>53</ele>
        <time>2016-03-01T13:16:19Z</time>
      </trkpt>
      <trkpt lat="45.24603" lon="0.33921">
        <ele>52</ele>
        <time>2016-03-01T13:16:24Z</time>
      </trkpt>
      <trkpt lat="45.24596" lon="0.3392">
        <ele>51</ele>
        <time>2016-03-01T13:16:29Z</time>
      </trkpt>
      <trkpt lat="45.24592" lon="0.33913">
        <ele>51</ele>
        <time>2016-03-01T13:16:33Z</time>
      </trkpt>
      <trkpt lat="45.24596" lon="0.33902">
        <ele>50</ele>
        <time>2016-03-01T13:16:37Z</time>
      </trkpt>
      <trkpt lat="45.24593" lon="0.33892">
        <ele>47</ele>
        <time>2016-03-01T13:16:42Z</time>
      </trkpt>
      <trkpt lat="45.24591" lon="0.33888">
        <ele>45</ele>
        <time>2016-03-01T13:16:46Z</time>
      </trkpt>
      <trkpt lat="45.24586" lon="0.33884">
        <ele>47</ele>
        <time>2016-03-01T13:16:50Z</time>
      </trkpt>
      <trkpt lat="45.24579" lon="0.33886">
        <ele>49</ele>
        <time>2016-03-01T13:16:54Z</time>
      </trkpt>
      <trkpt lat="45.24574" lon="0.33889">
        <ele>51</ele>
        <time>2016-03-01T13:16:59Z</time>
      </trkpt>
      <trkpt lat="45.24569" lon="0.33889">
        <ele>48</ele>
        <time>2016-03-01T13:17:03Z</time>
      </trkpt>
      <trkpt lat="45.24565" lon="0.33887">
        <ele>50</ele>
        <time>2016-03-01T13:17:07Z</time>
      </trkpt>
      <trkpt lat="45.24559" lon="0.33887">
        <ele>51</ele>
        <time>2016-03-01T13:17:11Z</time>
      </trkpt>
      <trkpt lat="45.24555" lon="0.3389">
        <ele>52</ele>
        <time>2016-03-01T13:17:15Z</time>
      </trkpt>
      <trkpt lat="45.2455" lon="0.3389">
        <ele>54</ele>
        <time>2016-03-01T13:17:20Z</time>
      </trkpt>
      <trkpt lat="45.24546" lon="0.33891">
        <ele>57</ele>
        <time>2016-03-01T13:17:25Z</time>
      </trkpt>
      <trkpt lat="45.24542" lon="0.33901">
        <ele>56</ele>
        <time>2016-03-01T13:17:29Z</time>
      </trkpt>
      <trkpt lat="45.24535" lon="0.33901">
        <ele>57</ele>
        <time>2016-03-01T13:17:34Z</time>
      </trkpt>
      <trkpt lat="45.24531" lon="0.33899">
        <ele>58</ele>
        <time>2016-03-01T13:17:38Z</time>
      </trkpt>
      <trkpt lat="45.24526" lon="0.33901">
        <ele>57</ele>
        <time>2016-03-01T13:17:42Z</time>
      </trkpt>
      <trkpt lat="45.24522" lon="0.33911">
        <ele>60</ele>
        <time>2016-03-01T13:17:47Z</time>
      </trkpt>
      <trkpt lat="45.24519" lon="0.33919">
        <ele>60</ele>
        <time>2016-03-01T13:17:51Z</time>
      </trkpt>
      <trkpt lat="45.24514" lon="0.33921">
        <ele>61</ele>
        <time>2016-03-01T13:17:55Z</time>
      </trkpt>
      <trkpt lat="45.24509" lon="0.33922">
        <ele>63</ele>
        <time>2016-03-01T13:18:00Z</time>
      </trkpt>
      <trkpt lat="45.24506" lon="0.33929">
        <ele>66</ele>
        <time>2016-03-01T13:18:04Z</time>
      </trkpt>
      <trkpt lat="45.24501" lon="0.33932">
        <ele>68</ele>
        <time>2016-03-01T13:18:08Z</time>
      </trkpt>
      <trkpt lat="45.24495" lon="0.33936">
        <ele>67</ele>
        <time>2016-03-01T13:18:13Z</time>
      </trkpt>
      <trkpt lat="45.24491" lon="0.3394">
        <ele>66</ele>
        <time>2016-03-01T13:18:18Z</time>
      </trkpt>
      <trkpt lat="45.24488" lon="0.33942">
        <ele>67</ele>
        <time>2016-03-01T13:18:22Z</time>
      </trkpt>
      <trkpt lat="45.24482" lon="0.33943">
        <ele>65</ele>
        <time>2016-03-01T13:18:26Z</time>
      </trkpt>
      <trkpt lat="45.24477" lon="0.33947">
        <ele>64</ele>
        <time>2016-03-01T13:18:31Z</time>
      </trkpt>
      <trkpt lat="45.24474" lon="0.3395">
        <ele>65</ele>
        <time>2016-03-01T13:18:35Z</time>
      </trkpt>
      <trkpt lat="45.24469" lon="0.33951">
        <ele>65</ele>
        <time>2016-03-01T13:18:39Z</time>
      </trkpt>
      <trkpt lat="45.24463" lon="0.33952">
        <ele>65</ele>
        <time>2016-03-01T13:18:43Z</time>
      </trkpt>
      <trkpt lat="45.2446" lon="0.33956">
        <ele>67</ele>
        <time>2016-03-01T13:18:48Z</time>
      </trkpt>
      <trkpt lat="45.24456" lon="0.33961">
        <ele>69</ele>
        <time>2016-03-01T13:18:52Z</time>
      </trkpt>
      <trkpt lat="45.24451" lon="0.33963">
        <ele>67</ele>
        <time>2016-03-01T13:18:57Z</time>
      </trkpt>
      <trkpt lat="45.24447" lon="0.33964">
        <ele>66</ele>
        <time>2016-03-01T13:19:01Z</time>
      </trkpt>
      <trkpt lat="45.24441" lon="0.33965">
        <ele>68</ele>
        <time>2016-03-01T13:19:06Z</time>
      </trkpt>
      <trkpt lat="45.24434" lon="0.33969">
        <ele>69</ele>
        <time>2016-03-01T13:19:11Z</time>
      </trkpt>
      <trkpt lat="45.2443" lon="0.33974">
        <ele>70</ele>
        <time>2016-03-01T13:19:15Z</time>
      </trkpt>
      <trkpt lat="45.24425" lon="0.33978">
        <ele>70</ele>
        <time>2016-03-01T13:19:20Z</time>
      </trkpt>
      <trkpt lat="45.2442" lon="0.3398">
        <ele>66</ele>
        <time>2016-03-01T13:19:24Z</time>
      </trkpt>
      <trkpt lat="45.24416" lon="0.33983">
        <ele>66</ele>
        <time>2016-03-01T13:19:28Z</time>
      </trkpt>
      <trkpt lat="45.24412" lon="0.33987">
        <ele>68</ele>
        <time>2016-03-01T13:19:32Z</time>
      </trkpt>
      <trkpt lat="45.24407" lon="0.33991">
        <ele>67</ele>
        <time>2016-03-01T13:19:37Z</time>
      </trkpt>
      <trkpt lat="45.24401" lon="0.33992">
        <ele>67</ele>
        <time>2016-03-01T13:19:42Z</time>
      </trkpt>
      <trkpt lat="45.24397" lon="0.33996">
        <ele>69</ele>
        <time>2016-03-01T13:19:46Z</time>
      </trkpt>
      <trkpt lat="45.24392" lon="0.33998">
        <ele>68</ele>
        <time>2016-03-01T13:19:50Z</time>
      </trkpt>
      <trkpt lat="45.24387" lon="0.33998">
        <ele>65</ele>
        <time>2016-03-01T13:19:54Z</time>
      </trkpt>
      <trkpt lat="45.24382" lon="0.34003">
        <ele>65</ele>
        <time>2016-03-01T13:19:59Z</time>
      </trkpt>
      <trkpt lat="45.2438" lon="0.34014">
        <ele>63</ele>
        <time>2016-03-01T13:20:03Z</time>
      </trkpt>
      <trkpt lat="45.24378" lon="0.34024">
        <ele>60</ele>
        <time>2016-03-01T13:20:08Z</time>
      </trkpt>
      <trkpt lat="45.24376" lon="0.3403">
        <ele>58</ele>
        <time>2016-03-01T13:20:12Z</time>
      </trkpt>
      <trkpt lat="45.24373" lon="0.34039">
        <ele>56</ele>
        <time>2016-03-01T13:20:17Z</time>
      </trkpt>
      <trkpt lat="45.24369" lon="0.34039">
        <ele>59</ele>
        <time>2016-03-01T13:20:21Z</time>
      </trkpt>
      <trkpt lat="45.24364" lon="0.34037">
        <ele>61</ele>
        <time>2016-03-01T13:20:26Z</time>
      </trkpt>
      <trkpt lat="45.24361" lon="0.34035">
        <ele>61</ele>
        <time>2016-03-01T13:20:30Z</time>
      </trkpt>
      <trkpt lat="45.24357" lon="0.34034">
        <ele>64</ele>
        <time>2016-03-01T13:20:36Z</time>
      </trkpt>
      <trkpt lat="45.24353" lon="0.34033">
        <ele>62</ele>
        <time>2016-03-01T13:20:40Z</time>
      </trkpt>
      <trkpt lat="45.24347" lon="0.34029">
        <ele>63</ele>
        <time>2016-03-01T13:20:45Z</time>
      </trkpt>
      <trkpt lat="45.24343" lon="0.34031">
        <ele>62</ele>
        <time>2016-03-01T13:20:52Z</time>
      </trkpt>
      <trkpt lat="45.24338" lon="0.34033">
        <ele>62</ele>
        <time>2016-03-01T13:20:56Z</time>
      </trkpt>
      <trkpt lat="45.24332" lon="0.34034">
        <ele>60</ele>
        <time>2016-03-01T13:21:00Z</time>
      </trkpt>
      <trkpt lat="45.24326" lon="0.34032">
        <ele>61</ele>
        <time>2016-03-01T13:21:05Z</time>
      </trkpt>
      <trkpt lat="45.24322" lon="0.34033">
        <ele>60</ele>
        <time>2016-03-01T13:21:09Z</time>
      </trkpt>
      <trkpt lat="45.24315" lon="0.34039">
        <ele>57</ele>
        <time>2016-03-01T13:21:14Z</time>
      </trkpt>
      <trkpt lat="45.24311" lon="0.34042">
        <ele>61</ele>
        <time>2016-03-01T13:21:19Z</time>
      </trkpt>
      <trkpt lat="45.24309" lon="0.34045">
        <ele>64</ele>
        <time>2016-03-01T13:21:23Z</time>
      </trkpt>
      <trkpt lat="45.24308" lon="0.34052">
        <ele>66</ele>
        <time>2016-03-01T13:21:27Z</time>
      </trkpt>
      <trkpt lat="45.24303" lon="0.34053">
        <ele>64</ele>
        <time>2016-03-01T13:21:32Z</time>
      </trkpt>
      <trkpt lat="45.24296" lon="0.34061">
        <ele>61</ele>
        <time>2016-03-01T13:21:37Z</time>
      </trkpt>
      <trkpt lat="45.24292" lon="0.34064">
        <ele>62</ele>
        <time>2016-03-01T13:21:41Z</time>
      </trkpt>
      <trkpt lat="45.24288" lon="0.34064">
        <ele>61</ele>
        <time>2016-03-01T13:21:45Z</time>
      </trkpt>
      <trkpt lat="45.24282" lon="0.34067">
        <ele>61</ele>
        <time>2016-03-01T13:21:50Z</time>
      </trkpt>
      <trkpt lat="45.24277" lon="0.34068">
        <ele>62</ele>
        <time>2016-03-01T13:21:54Z</time>
      </trkpt>
      <trkpt lat="45.24271" lon="0.3407">
        <ele>61</ele>
        <time>2016-03-01T13:21:59Z</time>
      </trkpt>
      <trkpt lat="45.24265" lon="0.34074">
        <ele>62</ele>
        <time>2016-03-01T13:22:04Z</time>
      </trkpt>
      <trkpt lat="45.24262" lon="0.34079">
        <ele>61</ele>
        <time>2016-03-01T13:22:08Z</time>
      </trkpt>
      <trkpt lat="45.24256" lon="0.34085">
        <ele>57</ele>
        <time>2016-03-01T13:22:13Z</time>
      </trkpt>
      <trkpt lat="45.24252" lon="0.34086">
        <ele>57</ele>
        <time>2016-03-01T13:22:19Z</time>
      </trkpt>
      <trkpt lat="45.24246" lon="0.34089">
        <ele>56</ele>
        <time>2016-03-01T13:22:24Z</time>
      </trkpt>
      <trkpt lat="45.24242" lon="0.3409">
        <ele>55</ele>
        <time>2016-03-01T13:22:28Z</time>
      </trkpt>
      <trkpt lat="45.24237" lon="0.34095">
        <ele>58</ele>
        <time>2016-03-01T13:22:32Z</time>
      </trkpt>
      <trkpt lat="45.24235" lon="0.34099">
        <ele>58</ele>
        <time>2016-03-01T13:22:38Z</time>
      </trkpt>
      <trkpt lat="45.2423" lon="0.341">
        <ele>62</ele>
        <time>2016-03-01T13:22:43Z</time>
      </trkpt>
      <trkpt lat="45.24226" lon="0.34104">
        <ele>65</ele>
        <time>2016-03-01T13:22:48Z</time>
      </trkpt>
      <trkpt lat="45.24219" lon="0.34109">
        <ele>67</ele>
        <time>2016-03-01T13:22:52Z</time>
      </trkpt>
      <trkpt lat="45.24217" lon="0.34112">
        <ele>67</ele>
        <time>2016-03-01T13:22:56Z</time>
      </trkpt>
      <trkpt lat="45.24212" lon="0.34115">
        <ele>69</ele>
        <time>2016-03-01T13:23:00Z</time>
      </trkpt>
      <trkpt lat="45.24207" lon="0.34119">
        <ele>69</ele>
        <time>2016-03-01T13:23:05Z</time>
      </trkpt>
      <trkpt lat="45.24202" lon="0.34118">
        <ele>69</ele>
        <time>2016-03-01T13:23:09Z</time>
      </trkpt>
      <trkpt lat="45.24196" lon="0.34124">
        <ele>67</ele>
        <time>2016-03-01T13:23:14Z</time>
      </trkpt>
      <trkpt lat="45.24191" lon="0.34124">
        <ele>66</ele>
        <time>2016-03-01T13:23:18Z</time>
      </trkpt>
      <trkpt lat="45.24187" lon="0.34126">
        <ele>69</ele>
        <time>2016-03-01T13:23:23Z</time>
      </trkpt>
      <trkpt lat="45.24182" lon="0.3413">
        <ele>68</ele>
        <time>2016-03-01T13:23:28Z</time>
      </trkpt>
      <trkpt lat="45.24177" lon="0.34133">
        <ele>69</ele>
        <time>2016-03-01T13:23:33Z</time>
      </trkpt>
      <trkpt lat="45.24172" lon="0.34137">
        <ele>68</ele>
        <time>2016-03-01T13:23:37Z</time>
      </trkpt>
      <trkpt lat="45.24167" lon="0.34137">
        <ele>68</ele>
        <time>2016-03-01T13:23:41Z</time>
      </trkpt>
      <trkpt lat="45.24163" lon="0.34131">
        <ele>72</ele>
        <time>2016-03-01T13:23:46Z</time>
      </trkpt>
      <trkpt lat="45.24159" lon="0.34127">
        <ele>70</ele>
        <time>2016-03-01T13:23:50Z</time>
      </trkpt>
      <trkpt lat="45.24157" lon="0.34122">
        <ele>70</ele>
        <time>2016-03-01T13:23:54Z</time>
      </trkpt>
      <trkpt lat="45.24159" lon="0.34118">
        <ele>72</ele>
        <time>2016-03-01T13:23:59Z</time>
      </trkpt>
      <trkpt lat="45.24158" lon="0.34112">
        <ele>77</ele>
        <time>2016-03-01T13:24:05Z</time>
      </trkpt>
      <trkpt lat="45.24154" lon="0.34109">
        <ele>79</ele>
        <time>2016-03-01T13:24:09Z</time>
      </trkpt>
      <trkpt lat="45.24149" lon="0.34102">
        <ele>80</ele>
        <time>2016-03-01T13:24:14Z</time>
      </trkpt>
      <trkpt lat="45.24147" lon="0.34097">
        <ele>79</ele>
        <time>2016-03-01T13:24:18Z</time>
      </trkpt>
      <trkpt lat="45.24143" lon="0.34092">
        <ele>79</ele>
        <time>2016-03-01T13:24:23Z</time>
      </trkpt>
      <trkpt lat="45.24139" lon="0.34086">
        <ele>79</ele>
        <time>2016-03-01T13:24:27Z</time>
      </trkpt>
      <trkpt lat="45.24136" lon="0.34081">
        <ele>79</ele>
        <time>2016-03-01T13:24:31Z</time>
      </trkpt>
      <trkpt lat="45.2413" lon="0.34077">
        <ele>79</ele>
        <time>2016-03-01T13:24:35Z</time>
      </trkpt>
      <trkpt lat="45.24127" lon="0.34074">
        <ele>79</ele>
        <time>2016-03-01T13:24:40Z</time>
      </trkpt>
      <trkpt lat="45.24125" lon="0.3407">
        <ele>81</ele>
        <time>2016-03-01T13:24:45Z</time>
      </trkpt>
      <trkpt lat="45.24122" lon="0.34066">
        <ele>82</ele>
        <time>2016-03-01T13:24:53Z</time>
      </trkpt>
      <trkpt lat="45.24119" lon="0.34062">
        <ele>83</ele>
        <time>2016-03-01T13:24:58Z</time>
      </trkpt>
      <trkpt lat="45.24115" lon="0.34059">
        <ele>85</ele>
        <time>2016-03-01T13:25:03Z</time>
      </trkpt>
      <trkpt lat="45.24112" lon="0.34056">
        <ele>86</ele>
        <time>2016-03-01T13:25:08Z</time>
      </trkpt>
      <trkpt lat="45.24107" lon="0.34053">
        <ele>83</ele>
        <time>2016-03-01T13:25:13Z</time>
      </trkpt>
      <trkpt lat="45.24103" lon="0.3405">
        <ele>82</ele>
        <time>2016-03-01T13:25:17Z</time>
      </trkpt>
      <trkpt lat="45.24098" lon="0.34045">
        <ele>80</ele>
        <time>2016-03-01T13:25:22Z</time>
      </trkpt>
      <trkpt lat="45.24093" lon="0.34043">
        <ele>82</ele>
        <time>2016-03-01T13:25:26Z</time>
      </trkpt>
      <trkpt lat="45.24089" lon="0.34039">
        <ele>83</ele>
        <time>2016-03-01T13:25:31Z</time>
      </trkpt>
      <trkpt lat="45.24084" lon="0.34035">
        <ele>83</ele>
        <time>2016-03-01T13:25:36Z</time>
      </trkpt>
      <trkpt lat="45.24079" lon="0.34036">
        <ele>83</ele>
        <time>2016-03-01T13:25:40Z</time>
      </trkpt>
      <trkpt lat="45.24076" lon="0.34032">
        <ele>84</ele>
        <time>2016-03-01T13:25:45Z</time>
      </trkpt>
      <trkpt lat="45.2407" lon="0.34028">
        <ele>83</ele>
        <time>2016-03-01T13:25:50Z</time>
      </trkpt>
      <trkpt lat="45.24064" lon="0.34026">
        <ele>80</ele>
        <time>2016-03-01T13:25:54Z</time>
      </trkpt>
      <trkpt lat="45.2406" lon="0.34022">
        <ele>81</ele>
        <time>2016-03-01T13:25:59Z</time>
      </trkpt>
      <trkpt lat="45.24055" lon="0.34018">
        <ele>86</ele>
        <time>2016-03-01T13:26:04Z</time>
      </trkpt>
      <trkpt lat="45.24051" lon="0.34013">
        <ele>86</ele>
        <time>2016-03-01T13:26:09Z</time>
      </trkpt>
      <trkpt lat="45.24048" lon="0.34011">
        <ele>86</ele>
        <time>2016-03-01T13:26:13Z</time>
      </trkpt>
      <trkpt lat="45.24044" lon="0.34012">
        <ele>92</ele>
        <time>2016-03-01T13:26:17Z</time>
      </trkpt>
      <trkpt lat="45.24039" lon="0.34011">
        <ele>93</ele>
        <time>2016-03-01T13:26:21Z</time>
      </trkpt>
      <trkpt lat="45.24034" lon="0.3401">
        <ele>94</ele>
        <time>2016-03-01T13:26:26Z</time>
      </trkpt>
      <trkpt lat="45.24031" lon="0.34005">
        <ele>94</ele>
        <time>2016-03-01T13:26:30Z</time>
      </trkpt>
      <trkpt lat="45.24027" lon="0.33999">
        <ele>94</ele>
        <time>2016-03-01T13:26:34Z</time>
      </trkpt>
      <trkpt lat="45.24024" lon="0.33996">
        <ele>94</ele>
        <time>2016-03-01T13:26:38Z</time>
      </trkpt>
      <trkpt lat="45.24017" lon="0.33992">
        <ele>92</ele>
        <time>2016-03-01T13:26:43Z</time>
      </trkpt>
      <trkpt lat="45.24012" lon="0.33987">
        <ele>90</ele>
        <time>2016-03-01T13:26:47Z</time>
      </trkpt>
      <trkpt lat="45.24007" lon="0.33983">
        <ele>90</ele>
        <time>2016-03-01T13:26:52Z</time>
      </trkpt>
      <trkpt lat="45.24" lon="0.3398">
        <ele>89</ele>
        <time>2016-03-01T13:26:57Z</time>
      </trkpt>
      <trkpt lat="45.23996" lon="0.33978">
        <ele>89</ele>
        <time>2016-03-01T13:27:01Z</time>
      </trkpt>
      <trkpt lat="45.23992" lon="0.33975">
        <ele>90</ele>
        <time>2016-03-01T13:27:06Z</time>
      </trkpt>
      <trkpt lat="45.23988" lon="0.33972">
        <ele>90</ele>
        <time>2016-03-01T13:27:10Z</time>
      </trkpt>
      <trkpt lat="45.23984" lon="0.33968">
        <ele>89</ele>
        <time>2016-03-01T13:27:15Z</time>
      </trkpt>
      <trkpt lat="45.2398" lon="0.33966">
        <ele>91</ele>
        <time>2016-03-01T13:27:19Z</time>
      </trkpt>
      <trkpt lat="45.23976" lon="0.33962">
        <ele>92</ele>
        <time>2016-03-01T13:27:23Z</time>
      </trkpt>
      <trkpt lat="45.23971" lon="0.3396">
        <ele>95</ele>
        <time>2016-03-01T13:27:28Z</time>
      </trkpt>
      <trkpt lat="45.23966" lon="0.33956">
        <ele>95</ele>
        <time>2016-03-01T13:27:32Z</time>
      </trkpt>
      <trkpt lat="45.2396" lon="0.33956">
        <ele>95</ele>
        <time>2016-03-01T13:27:36Z</time>
      </trkpt>
      <trkpt lat="45.23954" lon="0.33953">
        <ele>95</ele>
        <time>2016-03-01T13:27:41Z</time>
      </trkpt>
      <trkpt lat="45.2395" lon="0.33952">
        <ele>95</ele>
        <time>2016-03-01T13:27:46Z</time>
      </trkpt>
      <trkpt lat="45.23944" lon="0.3395">
        <ele>94</ele>
        <time>2016-03-01T13:27:51Z</time>
      </trkpt>
      <trkpt lat="45.23939" lon="0.3395">
        <ele>93</ele>
        <time>2016-03-01T13:27:55Z</time>
      </trkpt>
      <trkpt lat="45.23935" lon="0.3395">
        <ele>94</ele>
        <time>2016-03-01T13:27:59Z</time>
      </trkpt>
      <trkpt lat="45.2393" lon="0.33949">
        <ele>95</ele>
        <time>2016-03-01T13:28:03Z</time>
      </trkpt>
      <trkpt lat="45.23926" lon="0.33948">
        <ele>96</ele>
        <time>2016-03-01T13:28:07Z</time>
      </trkpt>
      <trkpt lat="45.23921" lon="0.33947">
        <ele>95</ele>
        <time>2016-03-01T13:28:12Z</time>
      </trkpt>
      <trkpt lat="45.23916" lon="0.33946">
        <ele>96</ele>
        <time>2016-03-01T13:28:16Z</time>
      </trkpt>
      <trkpt lat="45.23911" lon="0.33946">
        <ele>96</ele>
        <time>2016-03-01T13:28:20Z</time>
      </trkpt>
      <trkpt lat="45.23907" lon="0.33945">
        <ele>97</ele>
        <time>2016-03-01T13:28:24Z</time>
      </trkpt>
      <trkpt lat="45.23903" lon="0.33945">
        <ele>97</ele>
        <time>2016-03-01T13:28:28Z</time>
      </trkpt>
      <trkpt lat="45.23899" lon="0.33943">
        <ele>98</ele>
        <time>2016-03-01T13:28:32Z</time>
      </trkpt>
      <trkpt lat="45.23894" lon="0.33945">
        <ele>98</ele>
        <time>2016-03-01T13:28:37Z</time>
      </trkpt>
      <trkpt lat="45.2389" lon="0.33945">
        <ele>99</ele>
        <time>2016-03-01T13:28:42Z</time>
      </trkpt>
      <trkpt lat="45.23885" lon="0.33945">
        <ele>100</ele>
        <time>2016-03-01T13:28:46Z</time>
      </trkpt>
      <trkpt lat="45.2388" lon="0.33946">
        <ele>99</ele>
        <time>2016-03-01T13:28:51Z</time>
      </trkpt>
      <trkpt lat="45.23875" lon="0.33946">
        <ele>99</ele>
        <time>2016-03-01T13:28:55Z</time>
      </trkpt>
      <trkpt lat="45.2387" lon="0.33946">
        <ele>100</ele>
        <time>2016-03-01T13:28:59Z</time>
      </trkpt>
      <trkpt lat="45.23863" lon="0.33947">
        <ele>100</ele>
        <time>2016-03-01T13:29:04Z</time>
      </trkpt>
      <trkpt lat="45.23858" lon="0.33947">
        <ele>100</ele>
        <time>2016-03-01T13:29:08Z</time>
      </trkpt>
      <trkpt lat="45.23853" lon="0.33947">
        <ele>101</ele>
        <time>2016-03-01T13:29:12Z</time>
      </trkpt>
      <trkpt lat="45.23849" lon="0.33947">
        <ele>101</ele>
        <time>2016-03-01T13:29:17Z</time>
      </trkpt>
      <trkpt lat="45.23843" lon="0.33946">
        <ele>102</ele>
        <time>2016-03-01T13:29:21Z</time>
      </trkpt>
      <trkpt lat="45.23839" lon="0.33947">
        <ele>101</ele>
        <time>2016-03-01T13:29:25Z</time>
      </trkpt>
      <trkpt lat="45.23834" lon="0.33945">
        <ele>102</ele>
        <time>2016-03-01T13:29:29Z</time>
      </trkpt>
      <trkpt lat="45.23829" lon="0.33947">
        <ele>104</ele>
        <time>2016-03-01T13:29:34Z</time>
      </trkpt>
      <trkpt lat="45.23825" lon="0.33947">
        <ele>105</ele>
        <time>2016-03-01T13:29:38Z</time>
      </trkpt>
      <trkpt lat="45.2382" lon="0.33947">
        <ele>105</ele>
        <time>2016-03-01T13:29:42Z</time>
      </trkpt>
      <trkpt lat="45.23815" lon="0.33947">
        <ele>105</ele>
        <time>2016-03-01T13:29:46Z</time>
      </trkpt>
      <trkpt lat="45.2381" lon="0.33945">
        <ele>105</ele>
        <time>2016-03-01T13:29:51Z</time>
      </trkpt>
      <trkpt lat="45.23806" lon="0.33944">
        <ele>105</ele>
        <time>2016-03-01T13:29:55Z</time>
      </trkpt>
      <trkpt lat="45.238" lon="0.33943">
        <ele>106</ele>
        <time>2016-03-01T13:30:00Z</time>
      </trkpt>
      <trkpt lat="45.23796" lon="0.33943">
        <ele>106</ele>
        <time>2016-03-01T13:30:04Z</time>
      </trkpt>
      <trkpt lat="45.23791" lon="0.33944">
        <ele>107</ele>
        <time>2016-03-01T13:30:08Z</time>
      </trkpt>
      <trkpt lat="45.23787" lon="0.33943">
        <ele>107</ele>
        <time>2016-03-01T13:30:12Z</time>
      </trkpt>
      <trkpt lat="45.23781" lon="0.33943">
        <ele>108</ele>
        <time>2016-03-01T13:30:17Z</time>
      </trkpt>
      <trkpt lat="45.23777" lon="0.33944">
        <ele>110</ele>
        <time>2016-03-01T13:30:23Z</time>
      </trkpt>
      <trkpt lat="45.23773" lon="0.33941">
        <ele>110</ele>
        <time>2016-03-01T13:30:31Z</time>
      </trkpt>
      <trkpt lat="45.23768" lon="0.33941">
        <ele>108</ele>
        <time>2016-03-01T13:30:36Z</time>
      </trkpt>
      <trkpt lat="45.23763" lon="0.33939">
        <ele>110</ele>
        <time>2016-03-01T13:30:41Z</time>
      </trkpt>
      <trkpt lat="45.23758" lon="0.3394">
        <ele>111</ele>
        <time>2016-03-01T13:30:45Z</time>
      </trkpt>
      <trkpt lat="45.23753" lon="0.3394">
        <ele>110</ele>
        <time>2016-03-01T13:30:49Z</time>
      </trkpt>
      <trkpt lat="45.23748" lon="0.33941">
        <ele>111</ele>
        <time>2016-03-01T13:30:53Z</time>
      </trkpt>
      <trkpt lat="45.23745" lon="0.33943">
        <ele>113</ele>
        <time>2016-03-01T13:30:57Z</time>
      </trkpt>
      <trkpt lat="45.23741" lon="0.3395">
        <ele>112</ele>
        <time>2016-03-01T13:31:01Z</time>
      </trkpt>
      <trkpt lat="45.2374" lon="0.3396">
        <ele>111</ele>
        <time>2016-03-01T13:31:06Z</time>
      </trkpt>
      <trkpt lat="45.23738" lon="0.3397">
        <ele>110</ele>
        <time>2016-03-01T13:31:11Z</time>
      </trkpt>
      <trkpt lat="45.23738" lon="0.33976">
        <ele>109</ele>
        <time>2016-03-01T13:31:15Z</time>
      </trkpt>
      <trkpt lat="45.23739" lon="0.33982">
        <ele>109</ele>
        <time>2016-03-01T13:31:19Z</time>
      </trkpt>
      <trkpt lat="45.2374" lon="0.33988">
        <ele>108</ele>
        <time>2016-03-01T13:31:24Z</time>
      </trkpt>
      <trkpt lat="45.2374" lon="0.33993">
        <ele>108</ele>
        <time>2016-03-01T13:31:29Z</time>
      </trkpt>
      <trkpt lat="45.23741" lon="0.33999">
        <ele>108</ele>
        <time>2016-03-01T13:31:34Z</time>
      </trkpt>
      <trkpt lat="45.23741" lon="0.34006">
        <ele>107</ele>
        <time>2016-03-01T13:31:39Z</time>
      </trkpt>
      <trkpt lat="45.23739" lon="0.34013">
        <ele>106</ele>
        <time>2016-03-01T13:31:44Z</time>
      </trkpt>
      <trkpt lat="45.23736" lon="0.34015">
        <ele>106</ele>
        <time>2016-03-01T13:31:49Z</time>
      </trkpt>
      <trkpt lat="45.23731" lon="0.34017">
        <ele>106</ele>
        <time>2016-03-01T13:31:54Z</time>
      </trkpt>
      <trkpt lat="45.23727" lon="0.34018">
        <ele>107</ele>
        <time>2016-03-01T13:31:58Z</time>
      </trkpt>
      <trkpt lat="45.23724" lon="0.34019">
        <ele>111</ele>
        <time>2016-03-01T13:32:04Z</time>
      </trkpt>
      <trkpt lat="45.23717" lon="0.34021">
        <ele>110</ele>
        <time>2016-03-01T13:32:09Z</time>
      </trkpt>
      <trkpt lat="45.2371" lon="0.34019">
        <ele>110</ele>
        <time>2016-03-01T13:32:14Z</time>
      </trkpt>
      <trkpt lat="45.23706" lon="0.34024">
        <ele>110</ele>
        <time>2016-03-01T13:32:19Z</time>
      </trkpt>
      <trkpt lat="45.237" lon="0.3403">
        <ele>108</ele>
        <time>2016-03-01T13:32:23Z</time>
      </trkpt>
      <trkpt lat="45.23693" lon="0.34034">
        <ele>108</ele>
        <time>2016-03-01T13:32:28Z</time>
      </trkpt>
      <trkpt lat="45.23689" lon="0.34035">
        <ele>108</ele>
        <time>2016-03-01T13:32:32Z</time>
      </trkpt>
      <trkpt lat="45.23683" lon="0.34035">
        <ele>109</ele>
        <time>2016-03-01T13:32:36Z</time>
      </trkpt>
      <trkpt lat="45.23679" lon="0.34036">
        <ele>110</ele>
        <time>2016-03-01T13:32:40Z</time>
      </trkpt>
      <trkpt lat="45.23674" lon="0.34037">
        <ele>110</ele>
        <time>2016-03-01T13:32:44Z</time>
      </trkpt>
      <trkpt lat="45.23668" lon="0.34039">
        <ele>110</ele>
        <time>2016-03-01T13:32:49Z</time>
      </trkpt>
      <trkpt lat="45.23662" lon="0.3404">
        <ele>111</ele>
        <time>2016-03-01T13:32:54Z</time>
      </trkpt>
      <trkpt lat="45.23658" lon="0.3404">
        <ele>111</ele>
        <time>2016-03-01T13:32:58Z</time>
      </trkpt>
      <trkpt lat="45.23653" lon="0.34043">
        <ele>110</ele>
        <time>2016-03-01T13:33:02Z</time>
      </trkpt>
      <trkpt lat="45.23647" lon="0.34045">
        <ele>111</ele>
        <time>2016-03-01T13:33:07Z</time>
      </trkpt>
      <trkpt lat="45.2364" lon="0.34048">
        <ele>110</ele>
        <time>2016-03-01T13:33:12Z</time>
      </trkpt>
      <trkpt lat="45.23636" lon="0.3405">
        <ele>110</ele>
        <time>2016-03-01T13:33:16Z</time>
      </trkpt>
      <trkpt lat="45.23631" lon="0.34053">
        <ele>110</ele>
        <time>2016-03-01T13:33:20Z</time>
      </trkpt>
      <trkpt lat="45.23626" lon="0.34054">
        <ele>110</ele>
        <time>2016-03-01T13:33:24Z</time>
      </trkpt>
      <trkpt lat="45.2362" lon="0.34056">
        <ele>111</ele>
        <time>2016-03-01T13:33:29Z</time>
      </trkpt>
      <trkpt lat="45.23616" lon="0.34058">
        <ele>110</ele>
        <time>2016-03-01T13:33:33Z</time>
      </trkpt>
      <trkpt lat="45.23612" lon="0.34059">
        <ele>110</ele>
        <time>2016-03-01T13:33:37Z</time>
      </trkpt>
      <trkpt lat="45.23606" lon="0.34061">
        <ele>111</ele>
        <time>2016-03-01T13:33:42Z</time>
      </trkpt>
      <trkpt lat="45.23601" lon="0.34062">
        <ele>111</ele>
        <time>2016-03-01T13:33:46Z</time>
      </trkpt>
      <trkpt lat="45.23597" lon="0.34063">
        <ele>111</ele>
        <time>2016-03-01T13:33:50Z</time>
      </trkpt>
      <trkpt lat="45.23593" lon="0.34065">
        <ele>111</ele>
        <time>2016-03-01T13:33:54Z</time>
      </trkpt>
      <trkpt lat="45.23589" lon="0.34066">
        <ele>112</ele>
        <time>2016-03-01T13:33:58Z</time>
      </trkpt>
      <trkpt lat="45.23584" lon="0.34066">
        <ele>113</ele>
        <time>2016-03-01T13:34:03Z</time>
      </trkpt>
      <trkpt lat="45.23579" lon="0.34067">
        <ele>113</ele>
        <time>2016-03-01T13:34:07Z</time>
      </trkpt>
      <trkpt lat="45.23574" lon="0.34068">
        <ele>114</ele>
        <time>2016-03-01T13:34:12Z</time>
      </trkpt>
      <trkpt lat="45.23568" lon="0.34069">
        <ele>114</ele>
        <time>2016-03-01T13:34:16Z</time>
      </trkpt>
      <trkpt lat="45.23564" lon="0.3407">
        <ele>113</ele>
        <time>2016-03-01T13:34:20Z</time>
      </trkpt>
      <trkpt lat="45.23558" lon="0.34072">
        <ele>114</ele>
        <time>2016-03-01T13:34:25Z</time>
      </trkpt>
      <trkpt lat="45.23552" lon="0.34073">
        <ele>114</ele>
        <time>2016-03-01T13:34:30Z</time>
      </trkpt>
      <trkpt lat="45.23546" lon="0.34076">
        <ele>114</ele>
        <time>2016-03-01T13:34:34Z</time>
      </trkpt>
      <trkpt lat="45.2354" lon="0.34077">
        <ele>115</ele>
        <time>2016-03-01T13:34:39Z</time>
      </trkpt>
      <trkpt lat="45.23533" lon="0.34081">
        <ele>114</ele>
        <time>2016-03-01T13:34:44Z</time>
      </trkpt>
      <trkpt lat="45.23529" lon="0.34082">
        <ele>114</ele>
        <time>2016-03-01T13:34:48Z</time>
      </trkpt>
      <trkpt lat="45.23524" lon="0.34083">
        <ele>114</ele>
        <time>2016-03-01T13:34:53Z</time>
      </trkpt>
      <trkpt lat="45.23518" lon="0.34084">
        <ele>114</ele>
        <time>2016-03-01T13:34:58Z</time>
      </trkpt>
      <trkpt lat="45.23514" lon="0.34084">
        <ele>115</ele>
        <time>2016-03-01T13:35:02Z</time>
      </trkpt>
      <trkpt lat="45.23509" lon="0.34085">
        <ele>115</ele>
        <time>2016-03-01T13:35:06Z</time>
      </trkpt>
      <trkpt lat="45.23505" lon="0.34087">
        <ele>116</ele>
        <time>2016-03-01T13:35:10Z</time>
      </trkpt>
      <trkpt lat="45.23501" lon="0.34087">
        <ele>116</ele>
        <time>2016-03-01T13:35:14Z</time>
      </trkpt>
      <trkpt lat="45.23496" lon="0.34088">
        <ele>116</ele>
        <time>2016-03-01T13:35:18Z</time>
      </trkpt>
      <trkpt lat="45.23491" lon="0.34089">
        <ele>116</ele>
        <time>2016-03-01T13:35:23Z</time>
      </trkpt>
      <trkpt lat="45.23486" lon="0.3409">
        <ele>116</ele>
        <time>2016-03-01T13:35:28Z</time>
      </trkpt>
      <trkpt lat="45.23481" lon="0.34093">
        <ele>116</ele>
        <time>2016-03-01T13:35:33Z</time>
      </trkpt>
      <trkpt lat="45.23477" lon="0.34093">
        <ele>116</ele>
        <time>2016-03-01T13:35:37Z</time>
      </trkpt>
      <trkpt lat="45.23473" lon="0.34094">
        <ele>116</ele>
        <time>2016-03-01T13:35:41Z</time>
      </trkpt>
      <trkpt lat="45.23467" lon="0.34095">
        <ele>117</ele>
        <time>2016-03-01T13:35:46Z</time>
      </trkpt>
      <trkpt lat="45.23461" lon="0.34097">
        <ele>117</ele>
        <time>2016-03-01T13:35:51Z</time>
      </trkpt>
      <trkpt lat="45.23457" lon="0.34098">
        <ele>117</ele>
        <time>2016-03-01T13:35:55Z</time>
      </trkpt>
      <trkpt lat="45.23453" lon="0.34098">
        <ele>117</ele>
        <time>2016-03-01T13:35:59Z</time>
      </trkpt>
      <trkpt lat="45.23447" lon="0.34099">
        <ele>118</ele>
        <time>2016-03-01T13:36:04Z</time>
      </trkpt>
      <trkpt lat="45.23442" lon="0.34101">
        <ele>118</ele>
        <time>2016-03-01T13:36:09Z</time>
      </trkpt>
      <trkpt lat="45.23437" lon="0.34104">
        <ele>117</ele>
        <time>2016-03-01T13:36:13Z</time>
      </trkpt>
      <trkpt lat="45.23433" lon="0.34105">
        <ele>118</ele>
        <time>2016-03-01T13:36:17Z</time>
      </trkpt>
      <trkpt lat="45.23428" lon="0.34107">
        <ele>118</ele>
        <time>2016-03-01T13:36:21Z</time>
      </trkpt>
      <trkpt lat="45.23423" lon="0.34108">
        <ele>118</ele>
        <time>2016-03-01T13:36:26Z</time>
      </trkpt>
      <trkpt lat="45.23419" lon="0.3411">
        <ele>119</ele>
        <time>2016-03-01T13:36:30Z</time>
      </trkpt>
      <trkpt lat="45.23413" lon="0.3411">
        <ele>119</ele>
        <time>2016-03-01T13:36:34Z</time>
      </trkpt>
      <trkpt lat="45.23408" lon="0.34112">
        <ele>119</ele>
        <time>2016-03-01T13:36:38Z</time>
      </trkpt>
      <trkpt lat="45.23403" lon="0.34114">
        <ele>119</ele>
        <time>2016-03-01T13:36:42Z</time>
      </trkpt>
      <trkpt lat="45.23399" lon="0.34116">
        <ele>118</ele>
        <time>2016-03-01T13:36:46Z</time>
      </trkpt>
      <trkpt lat="45.23393" lon="0.34116">
        <ele>118</ele>
        <time>2016-03-01T13:36:51Z</time>
      </trkpt>
      <trkpt lat="45.23389" lon="0.34117">
        <ele>117</ele>
        <time>2016-03-01T13:36:55Z</time>
      </trkpt>
      <trkpt lat="45.23383" lon="0.34119">
        <ele>118</ele>
        <time>2016-03-01T13:37:00Z</time>
      </trkpt>
      <trkpt lat="45.23379" lon="0.34121">
        <ele>118</ele>
        <time>2016-03-01T13:37:04Z</time>
      </trkpt>
      <trkpt lat="45.23373" lon="0.34123">
        <ele>118</ele>
        <time>2016-03-01T13:37:09Z</time>
      </trkpt>
      <trkpt lat="45.23369" lon="0.34123">
        <ele>118</ele>
        <time>2016-03-01T13:37:13Z</time>
      </trkpt>
      <trkpt lat="45.23365" lon="0.34124">
        <ele>119</ele>
        <time>2016-03-01T13:37:17Z</time>
      </trkpt>
      <trkpt lat="45.23359" lon="0.34127">
        <ele>118</ele>
        <time>2016-03-01T13:37:22Z</time>
      </trkpt>
      <trkpt lat="45.23355" lon="0.34127">
        <ele>120</ele>
        <time>2016-03-01T13:37:26Z</time>
      </trkpt>
      <trkpt lat="45.2335" lon="0.3413">
        <ele>118</ele>
        <time>2016-03-01T13:37:31Z</time>
      </trkpt>
      <trkpt lat="45.23344" lon="0.34131">
        <ele>118</ele>
        <time>2016-03-01T13:37:36Z</time>
      </trkpt>
      <trkpt lat="45.23341" lon="0.34131">
        <ele>120</ele>
        <time>2016-03-01T13:37:40Z</time>
      </trkpt>
      <trkpt lat="45.23335" lon="0.34131">
        <ele>121</ele>
        <time>2016-03-01T13:37:45Z</time>
      </trkpt>
      <trkpt lat="45.23332" lon="0.3413">
        <ele>122</ele>
        <time>2016-03-01T13:37:49Z</time>
      </trkpt>
      <trkpt lat="45.23326" lon="0.34136">
        <ele>122</ele>
        <time>2016-03-01T13:37:54Z</time>
      </trkpt>
      <trkpt lat="45.23321" lon="0.34138">
        <ele>120</ele>
        <time>2016-03-01T13:37:58Z</time>
      </trkpt>
      <trkpt lat="45.23315" lon="0.3414">
        <ele>121</ele>
        <time>2016-03-01T13:38:03Z</time>
      </trkpt>
      <trkpt lat="45.23311" lon="0.3414">
        <ele>122</ele>
        <time>2016-03-01T13:38:07Z</time>
      </trkpt>
      <trkpt lat="45.23306" lon="0.34141">
        <ele>122</ele>
        <time>2016-03-01T13:38:11Z</time>
      </trkpt>
      <trkpt lat="45.23302" lon="0.34145">
        <ele>123</ele>
        <time>2016-03-01T13:38:15Z</time>
      </trkpt>
      <trkpt lat="45.23296" lon="0.34147">
        <ele>123</ele>
        <time>2016-03-01T13:38:20Z</time>
      </trkpt>
      <trkpt lat="45.23292" lon="0.34147">
        <ele>124</ele>
        <time>2016-03-01T13:38:24Z</time>
      </trkpt>
      <trkpt lat="45.23287" lon="0.34148">
        <ele>124</ele>
        <time>2016-03-01T13:38:28Z</time>
      </trkpt>
      <trkpt lat="45.23281" lon="0.34151">
        <ele>124</ele>
        <time>2016-03-01T13:38:33Z</time>
      </trkpt>
      <trkpt lat="45.23275" lon="0.34154">
        <ele>124</ele>
        <time>2016-03-01T13:38:38Z</time>
      </trkpt>
      <trkpt lat="45.2327" lon="0.34158">
        <ele>124</ele>
        <time>2016-03-01T13:38:42Z</time>
      </trkpt>
      <trkpt lat="45.23266" lon="0.34161">
        <ele>124</ele>
        <time>2016-03-01T13:38:46Z</time>
      </trkpt>
      <trkpt lat="45.23261" lon="0.34165">
        <ele>125</ele>
        <time>2016-03-01T13:38:51Z</time>
      </trkpt>
      <trkpt lat="45.23257" lon="0.34168">
        <ele>125</ele>
        <time>2016-03-01T13:38:56Z</time>
      </trkpt>
      <trkpt lat="45.23251" lon="0.34172">
        <ele>124</ele>
        <time>2016-03-01T13:39:01Z</time>
      </trkpt>
      <trkpt lat="45.23247" lon="0.34176">
        <ele>125</ele>
        <time>2016-03-01T13:39:05Z</time>
      </trkpt>
      <trkpt lat="45.23243" lon="0.34178">
        <ele>126</ele>
        <time>2016-03-01T13:39:09Z</time>
      </trkpt>
      <trkpt lat="45.23239" lon="0.3418">
        <ele>127</ele>
        <time>2016-03-01T13:39:14Z</time>
      </trkpt>
      <trkpt lat="45.23234" lon="0.34189">
        <ele>125</ele>
        <time>2016-03-01T13:39:18Z</time>
      </trkpt>
      <trkpt lat="45.2323" lon="0.34192">
        <ele>124</ele>
        <time>2016-03-01T13:39:22Z</time>
      </trkpt>
      <trkpt lat="45.23225" lon="0.34195">
        <ele>124</ele>
        <time>2016-03-01T13:39:26Z</time>
      </trkpt>
      <trkpt lat="45.2322" lon="0.34199">
        <ele>126</ele>
        <time>2016-03-01T13:39:30Z</time>
      </trkpt>
      <trkpt lat="45.23215" lon="0.34207">
        <ele>125</ele>
        <time>2016-03-01T13:39:35Z</time>
      </trkpt>
      <trkpt lat="45.23211" lon="0.34211">
        <ele>125</ele>
        <time>2016-03-01T13:39:39Z</time>
      </trkpt>
      <trkpt lat="45.23207" lon="0.34216">
        <ele>126</ele>
        <time>2016-03-01T13:39:44Z</time>
      </trkpt>
      <trkpt lat="45.23203" lon="0.34225">
        <ele>125</ele>
        <time>2016-03-01T13:39:48Z</time>
      </trkpt>
      <trkpt lat="45.23198" lon="0.34234">
        <ele>125</ele>
        <time>2016-03-01T13:39:53Z</time>
      </trkpt>
      <trkpt lat="45.23194" lon="0.3424">
        <ele>125</ele>
        <time>2016-03-01T13:39:57Z</time>
      </trkpt>
      <trkpt lat="45.23191" lon="0.34246">
        <ele>126</ele>
        <time>2016-03-01T13:40:01Z</time>
      </trkpt>
      <trkpt lat="45.23188" lon="0.34251">
        <ele>126</ele>
        <time>2016-03-01T13:40:05Z</time>
      </trkpt>
      <trkpt lat="45.23185" lon="0.34256">
        <ele>126</ele>
        <time>2016-03-01T13:40:09Z</time>
      </trkpt>
      <trkpt lat="45.23181" lon="0.3426">
        <ele>127</ele>
        <time>2016-03-01T13:40:13Z</time>
      </trkpt>
      <trkpt lat="45.23177" lon="0.34264">
        <ele>126</ele>
        <time>2016-03-01T13:40:17Z</time>
      </trkpt>
      <trkpt lat="45.23172" lon="0.34272">
        <ele>126</ele>
        <time>2016-03-01T13:40:22Z</time>
      </trkpt>
      <trkpt lat="45.23168" lon="0.3428">
        <ele>124</ele>
        <time>2016-03-01T13:40:26Z</time>
      </trkpt>
      <trkpt lat="45.23165" lon="0.34282">
        <ele>125</ele>
        <time>2016-03-01T13:40:30Z</time>
      </trkpt>
      <trkpt lat="45.23161" lon="0.34287">
        <ele>126</ele>
        <time>2016-03-01T13:40:35Z</time>
      </trkpt>
      <trkpt lat="45.23155" lon="0.34291">
        <ele>127</ele>
        <time>2016-03-01T13:40:40Z</time>
      </trkpt>
      <trkpt lat="45.23151" lon="0.34296">
        <ele>127</ele>
        <time>2016-03-01T13:40:45Z</time>
      </trkpt>
      <trkpt lat="45.23146" lon="0.34302">
        <ele>126</ele>
        <time>2016-03-01T13:40:49Z</time>
      </trkpt>
      <trkpt lat="45.23143" lon="0.34305">
        <ele>128</ele>
        <time>2016-03-01T13:40:54Z</time>
      </trkpt>
      <trkpt lat="45.23138" lon="0.34308">
        <ele>129</ele>
        <time>2016-03-01T13:40:59Z</time>
      </trkpt>
      <trkpt lat="45.23134" lon="0.34314">
        <ele>129</ele>
        <time>2016-03-01T13:41:04Z</time>
      </trkpt>
      <trkpt lat="45.23129" lon="0.34316">
        <ele>129</ele>
        <time>2016-03-01T13:41:08Z</time>
      </trkpt>
      <trkpt lat="45.23126" lon="0.3432">
        <ele>129</ele>
        <time>2016-03-01T13:41:13Z</time>
      </trkpt>
      <trkpt lat="45.23122" lon="0.34322">
        <ele>130</ele>
        <time>2016-03-01T13:41:17Z</time>
      </trkpt>
      <trkpt lat="45.23117" lon="0.34325">
        <ele>131</ele>
        <time>2016-03-01T13:41:22Z</time>
      </trkpt>
      <trkpt lat="45.23112" lon="0.34327">
        <ele>131</ele>
        <time>2016-03-01T13:41:26Z</time>
      </trkpt>
      <trkpt lat="45.23107" lon="0.34328">
        <ele>131</ele>
        <time>2016-03-01T13:41:31Z</time>
      </trkpt>
      <trkpt lat="45.23102" lon="0.3433">
        <ele>132</ele>
        <time>2016-03-01T13:41:35Z</time>
      </trkpt>
      <trkpt lat="45.23095" lon="0.34335">
        <ele>130</ele>
        <time>2016-03-01T13:41:40Z</time>
      </trkpt>
      <trkpt lat="45.2309" lon="0.34337">
        <ele>131</ele>
        <time>2016-03-01T13:41:44Z</time>
      </trkpt>
      <trkpt lat="45.23085" lon="0.34338">
        <ele>131</ele>
        <time>2016-03-01T13:41:48Z</time>
      </trkpt>
      <trkpt lat="45.2308" lon="0.34341">
        <ele>132</ele>
        <time>2016-03-01T13:41:52Z</time>
      </trkpt>
      <trkpt lat="45.23073" lon="0.34343">
        <ele>132</ele>
        <time>2016-03-01T13:41:57Z</time>
      </trkpt>
      <trkpt lat="45.23069" lon="0.34345">
        <ele>132</ele>
        <time>2016-03-01T13:42:01Z</time>
      </trkpt>
      <trkpt lat="45.23063" lon="0.34348">
        <ele>133</ele>
        <time>2016-03-01T13:42:06Z</time>
      </trkpt>
      <trkpt lat="45.23059" lon="0.3435">
        <ele>133</ele>
        <time>2016-03-01T13:42:10Z</time>
      </trkpt>
      <trkpt lat="45.23054" lon="0.34351">
        <ele>133</ele>
        <time>2016-03-01T13:42:15Z</time>
      </trkpt>
      <trkpt lat="45.23049" lon="0.34355">
        <ele>133</ele>
        <time>2016-03-01T13:42:20Z</time>
      </trkpt>
      <trkpt lat="45.23042" lon="0.34358">
        <ele>134</ele>
        <time>2016-03-01T13:42:25Z</time>
      </trkpt>
      <trkpt lat="45.23037" lon="0.34362">
        <ele>134</ele>
        <time>2016-03-01T13:42:29Z</time>
      </trkpt>
      <trkpt lat="45.23032" lon="0.34364">
        <ele>133</ele>
        <time>2016-03-01T13:42:34Z</time>
      </trkpt>
      <trkpt lat="45.23027" lon="0.34367">
        <ele>133</ele>
        <time>2016-03-01T13:42:38Z</time>
      </trkpt>
      <trkpt lat="45.23021" lon="0.34369">
        <ele>134</ele>
        <time>2016-03-01T13:42:43Z</time>
      </trkpt>
      <trkpt lat="45.23017" lon="0.34373">
        <ele>133</ele>
        <time>2016-03-01T13:42:47Z</time>
      </trkpt>
      <trkpt lat="45.23013" lon="0.34376">
        <ele>133</ele>
        <time>2016-03-01T13:42:51Z</time>
      </trkpt>
      <trkpt lat="45.23009" lon="0.3438">
        <ele>133</ele>
        <time>2016-03-01T13:42:55Z</time>
      </trkpt>
      <trkpt lat="45.23005" lon="0.34383">
        <ele>133</ele>
        <time>2016-03-01T13:43:00Z</time>
      </trkpt>
      <trkpt lat="45.22999" lon="0.34386">
        <ele>134</ele>
        <time>2016-03-01T13:43:04Z</time>
      </trkpt>
      <trkpt lat="45.22994" lon="0.34389">
        <ele>135</ele>
        <time>2016-03-01T13:43:09Z</time>
      </trkpt>
      <trkpt lat="45.22987" lon="0.34392">
        <ele>135</ele>
        <time>2016-03-01T13:43:14Z</time>
      </trkpt>
      <trkpt lat="45.22983" lon="0.34395">
        <ele>136</ele>
        <time>2016-03-01T13:43:18Z</time>
      </trkpt>
      <trkpt lat="45.22978" lon="0.34399">
        <ele>135</ele>
        <time>2016-03-01T13:43:23Z</time>
      </trkpt>
      <trkpt lat="45.22973" lon="0.34403">
        <ele>135</ele>
        <time>2016-03-01T13:43:27Z</time>
      </trkpt>
      <trkpt lat="45.2297" lon="0.34406">
        <ele>135</ele>
        <time>2016-03-01T13:43:31Z</time>
      </trkpt>
      <trkpt lat="45.22965" lon="0.34412">
        <ele>135</ele>
        <time>2016-03-01T13:43:36Z</time>
      </trkpt>
      <trkpt lat="45.22959" lon="0.34416">
        <ele>134</ele>
        <time>2016-03-01T13:43:41Z</time>
      </trkpt>
      <trkpt lat="45.22955" lon="0.3442">
        <ele>134</ele>
        <time>2016-03-01T13:43:45Z</time>
      </trkpt>
      <trkpt lat="45.22951" lon="0.34422">
        <ele>134</ele>
        <time>2016-03-01T13:43:49Z</time>
      </trkpt>
      <trkpt lat="45.22946" lon="0.34425">
        <ele>134</ele>
        <time>2016-03-01T13:43:53Z</time>
      </trkpt>
      <trkpt lat="45.22941" lon="0.34428">
        <ele>134</ele>
        <time>2016-03-01T13:43:58Z</time>
      </trkpt>
      <trkpt lat="45.22936" lon="0.34432">
        <ele>134</ele>
        <time>2016-03-01T13:44:03Z</time>
      </trkpt>
      <trkpt lat="45.22931" lon="0.34435">
        <ele>134</ele>
        <time>2016-03-01T13:44:07Z</time>
      </trkpt>
      <trkpt lat="45.22927" lon="0.34437">
        <ele>134</ele>
        <time>2016-03-01T13:44:11Z</time>
      </trkpt>
      <trkpt lat="45.22922" lon="0.34442">
        <ele>134</ele>
        <time>2016-03-01T13:44:16Z</time>
      </trkpt>
      <trkpt lat="45.22918" lon="0.34443">
        <ele>134</ele>
        <time>2016-03-01T13:44:20Z</time>
      </trkpt>
      <trkpt lat="45.22913" lon="0.34446">
        <ele>134</ele>
        <time>2016-03-01T13:44:25Z</time>
      </trkpt>
      <trkpt lat="45.22908" lon="0.34449">
        <ele>133</ele>
        <time>2016-03-01T13:44:29Z</time>
      </trkpt>
      <trkpt lat="45.22904" lon="0.34451">
        <ele>133</ele>
        <time>2016-03-01T13:44:33Z</time>
      </trkpt>
      <trkpt lat="45.22899" lon="0.34454">
        <ele>133</ele>
        <time>2016-03-01T13:44:37Z</time>
      </trkpt>
      <trkpt lat="45.22895" lon="0.34457">
        <ele>133</ele>
        <time>2016-03-01T13:44:41Z</time>
      </trkpt>
      <trkpt lat="45.2289" lon="0.3446">
        <ele>133</ele>
        <time>2016-03-01T13:44:45Z</time>
      </trkpt>
      <trkpt lat="45.22884" lon="0.34462">
        <ele>132</ele>
        <time>2016-03-01T13:44:50Z</time>
      </trkpt>
      <trkpt lat="45.22879" lon="0.34467">
        <ele>132</ele>
        <time>2016-03-01T13:44:54Z</time>
      </trkpt>
      <trkpt lat="45.22875" lon="0.34469">
        <ele>133</ele>
        <time>2016-03-01T13:44:58Z</time>
      </trkpt>
      <trkpt lat="45.2287" lon="0.3447">
        <ele>134</ele>
        <time>2016-03-01T13:45:02Z</time>
      </trkpt>
      <trkpt lat="45.22866" lon="0.34473">
        <ele>133</ele>
        <time>2016-03-01T13:45:06Z</time>
      </trkpt>
      <trkpt lat="45.22861" lon="0.34475">
        <ele>134</ele>
        <time>2016-03-01T13:45:11Z</time>
      </trkpt>
      <trkpt lat="45.22856" lon="0.34477">
        <ele>134</ele>
        <time>2016-03-01T13:45:15Z</time>
      </trkpt>
      <trkpt lat="45.2285" lon="0.34479">
        <ele>133</ele>
        <time>2016-03-01T13:45:19Z</time>
      </trkpt>
      <trkpt lat="45.22846" lon="0.3448">
        <ele>133</ele>
        <time>2016-03-01T13:45:23Z</time>
      </trkpt>
      <trkpt lat="45.22842" lon="0.34481">
        <ele>133</ele>
        <time>2016-03-01T13:45:28Z</time>
      </trkpt>
      <trkpt lat="45.22835" lon="0.34482">
        <ele>132</ele>
        <time>2016-03-01T13:45:32Z</time>
      </trkpt>
      <trkpt lat="45.22831" lon="0.34484">
        <ele>131</ele>
        <time>2016-03-01T13:45:36Z</time>
      </trkpt>
      <trkpt lat="45.22827" lon="0.34485">
        <ele>132</ele>
        <time>2016-03-01T13:45:41Z</time>
      </trkpt>
      <trkpt lat="45.22821" lon="0.34487">
        <ele>131</ele>
        <time>2016-03-01T13:45:46Z</time>
      </trkpt>
      <trkpt lat="45.22815" lon="0.34489">
        <ele>131</ele>
        <time>2016-03-01T13:45:50Z</time>
      </trkpt>
      <trkpt lat="45.2281" lon="0.34489">
        <ele>132</ele>
        <time>2016-03-01T13:45:54Z</time>
      </trkpt>
      <trkpt lat="45.22805" lon="0.3449">
        <ele>132</ele>
        <time>2016-03-01T13:45:59Z</time>
      </trkpt>
      <trkpt lat="45.228" lon="0.34492">
        <ele>132</ele>
        <time>2016-03-01T13:46:03Z</time>
      </trkpt>
      <trkpt lat="45.22794" lon="0.34492">
        <ele>132</ele>
        <time>2016-03-01T13:46:08Z</time>
      </trkpt>
      <trkpt lat="45.2279" lon="0.34493">
        <ele>132</ele>
        <time>2016-03-01T13:46:12Z</time>
      </trkpt>
      <trkpt lat="45.22783" lon="0.34497">
        <ele>132</ele>
        <time>2016-03-01T13:46:17Z</time>
      </trkpt>
      <trkpt lat="45.22779" lon="0.34499">
        <ele>132</ele>
        <time>2016-03-01T13:46:21Z</time>
      </trkpt>
      <trkpt lat="45.22772" lon="0.34501">
        <ele>133</ele>
        <time>2016-03-01T13:46:26Z</time>
      </trkpt>
      <trkpt lat="45.22768" lon="0.34501">
        <ele>134</ele>
        <time>2016-03-01T13:46:30Z</time>
      </trkpt>
      <trkpt lat="45.22763" lon="0.34502">
        <ele>134</ele>
        <time>2016-03-01T13:46:34Z</time>
      </trkpt>
      <trkpt lat="45.2276" lon="0.34503">
        <ele>134</ele>
        <time>2016-03-01T13:46:39Z</time>
      </trkpt>
      <trkpt lat="45.22754" lon="0.34503">
        <ele>134</ele>
        <time>2016-03-01T13:46:44Z</time>
      </trkpt>
      <trkpt lat="45.22749" lon="0.34503">
        <ele>135</ele>
        <time>2016-03-01T13:46:48Z</time>
      </trkpt>
      <trkpt lat="45.22744" lon="0.34504">
        <ele>134</ele>
        <time>2016-03-01T13:46:52Z</time>
      </trkpt>
      <trkpt lat="45.22739" lon="0.34502">
        <ele>136</ele>
        <time>2016-03-01T13:46:57Z</time>
      </trkpt>
      <trkpt lat="45.22734" lon="0.34503">
        <ele>136</ele>
        <time>2016-03-01T13:47:02Z</time>
      </trkpt>
      <trkpt lat="45.22729" lon="0.34503">
        <ele>135</ele>
        <time>2016-03-01T13:47:06Z</time>
      </trkpt>
      <trkpt lat="45.22726" lon="0.34507">
        <ele>137</ele>
        <time>2016-03-01T13:47:24Z</time>
      </trkpt>
      <trkpt lat="45.22722" lon="0.3451">
        <ele>133</ele>
        <time>2016-03-01T13:48:41Z</time>
      </trkpt>
      <trkpt lat="45.22718" lon="0.34511">
        <ele>134</ele>
        <time>2016-03-01T13:50:13Z</time>
      </trkpt>
      <trkpt lat="45.22714" lon="0.34511">
        <ele>134</ele>
        <time>2016-03-01T13:50:21Z</time>
      </trkpt>
      <trkpt lat="45.22711" lon="0.34506">
        <ele>135</ele>
        <time>2016-03-01T13:50:27Z</time>
      </trkpt>
      <trkpt lat="45.22708" lon="0.34502">
        <ele>133</ele>
        <time>2016-03-01T13:50:34Z</time>
      </trkpt>
      <trkpt lat="45.22705" lon="0.34504">
        <ele>130</ele>
        <time>2016-03-01T13:51:12Z</time>
      </trkpt>
      <trkpt lat="45.22701" lon="0.34509">
        <ele>132</ele>
        <time>2016-03-01T13:51:16Z</time>
      </trkpt>
      <trkpt lat="45.22694" lon="0.34507">
        <ele>133</ele>
        <time>2016-03-01T13:51:21Z</time>
      </trkpt>
      <trkpt lat="45.22688" lon="0.34505">
        <ele>136</ele>
        <time>2016-03-01T13:51:25Z</time>
      </trkpt>
      <trkpt lat="45.22682" lon="0.34504">
        <ele>136</ele>
        <time>2016-03-01T13:51:29Z</time>
      </trkpt>
      <trkpt lat="45.22677" lon="0.34504">
        <ele>137</ele>
        <time>2016-03-01T13:51:33Z</time>
      </trkpt>
      <trkpt lat="45.22671" lon="0.34504">
        <ele>138</ele>
        <time>2016-03-01T13:51:37Z</time>
      </trkpt>
      <trkpt lat="45.22664" lon="0.34505">
        <ele>139</ele>
        <time>2016-03-01T13:51:42Z</time>
      </trkpt>
      <trkpt lat="45.22657" lon="0.34506">
        <ele>139</ele>
        <time>2016-03-01T13:51:47Z</time>
      </trkpt>
      <trkpt lat="45.22652" lon="0.34506">
        <ele>140</ele>
        <time>2016-03-01T13:51:51Z</time>
      </trkpt>
      <trkpt lat="45.22648" lon="0.34506">
        <ele>140</ele>
        <time>2016-03-01T13:51:55Z</time>
      </trkpt>
      <trkpt lat="45.22643" lon="0.34506">
        <ele>141</ele>
        <time>2016-03-01T13:51:59Z</time>
      </trkpt>
      <trkpt lat="45.22639" lon="0.34506">
        <ele>141</ele>
        <time>2016-03-01T13:52:04Z</time>
      </trkpt>
      <trkpt lat="45.22633" lon="0.34505">
        <ele>141</ele>
        <time>2016-03-01T13:52:09Z</time>
      </trkpt>
      <trkpt lat="45.22629" lon="0.34504">
        <ele>141</ele>
        <time>2016-03-01T13:52:13Z</time>
      </trkpt>
      <trkpt lat="45.22626" lon="0.34502">
        <ele>141</ele>
        <time>2016-03-01T13:52:17Z</time>
      </trkpt>
      <trkpt lat="45.22621" lon="0.34499">
        <ele>142</ele>
        <time>2016-03-01T13:52:21Z</time>
      </trkpt>
      <trkpt lat="45.22618" lon="0.34495">
        <ele>142</ele>
        <time>2016-03-01T13:52:25Z</time>
      </trkpt>
      <trkpt lat="45.22613" lon="0.34493">
        <ele>143</ele>
        <time>2016-03-01T13:52:29Z</time>
      </trkpt>
      <trkpt lat="45.22609" lon="0.34487">
        <ele>144</ele>
        <time>2016-03-01T13:52:34Z</time>
      </trkpt>
      <trkpt lat="45.22605" lon="0.34487">
        <ele>143</ele>
        <time>2016-03-01T13:52:46Z</time>
      </trkpt>
      <trkpt lat="45.22601" lon="0.34484">
        <ele>142</ele>
        <time>2016-03-01T13:52:55Z</time>
      </trkpt>
      <trkpt lat="45.22599" lon="0.3448">
        <ele>144</ele>
        <time>2016-03-01T13:53:07Z</time>
      </trkpt>
      <trkpt lat="45.22595" lon="0.34476">
        <ele>145</ele>
        <time>2016-03-01T13:53:12Z</time>
      </trkpt>
      <trkpt lat="45.22592" lon="0.34472">
        <ele>145</ele>
        <time>2016-03-01T13:53:17Z</time>
      </trkpt>
      <trkpt lat="45.22588" lon="0.34468">
        <ele>146</ele>
        <time>2016-03-01T13:53:21Z</time>
      </trkpt>
      <trkpt lat="45.22585" lon="0.34464">
        <ele>146</ele>
        <time>2016-03-01T13:53:26Z</time>
      </trkpt>
      <trkpt lat="45.22581" lon="0.34463">
        <ele>146</ele>
        <time>2016-03-01T13:53:30Z</time>
      </trkpt>
      <trkpt lat="45.22577" lon="0.34459">
        <ele>147</ele>
        <time>2016-03-01T13:53:34Z</time>
      </trkpt>
      <trkpt lat="45.22573" lon="0.34458">
        <ele>147</ele>
        <time>2016-03-01T13:53:39Z</time>
      </trkpt>
      <trkpt lat="45.22569" lon="0.34458">
        <ele>148</ele>
        <time>2016-03-01T13:53:44Z</time>
      </trkpt>
      <trkpt lat="45.22564" lon="0.34456">
        <ele>148</ele>
        <time>2016-03-01T13:53:49Z</time>
      </trkpt>
      <trkpt lat="45.2256" lon="0.34454">
        <ele>148</ele>
        <time>2016-03-01T13:53:53Z</time>
      </trkpt>
      <trkpt lat="45.22557" lon="0.34452">
        <ele>150</ele>
        <time>2016-03-01T13:53:57Z</time>
      </trkpt>
      <trkpt lat="45.22553" lon="0.34451">
        <ele>150</ele>
        <time>2016-03-01T13:54:01Z</time>
      </trkpt>
      <trkpt lat="45.22549" lon="0.3445">
        <ele>151</ele>
        <time>2016-03-01T13:54:05Z</time>
      </trkpt>
      <trkpt lat="45.22545" lon="0.34449">
        <ele>151</ele>
        <time>2016-03-01T13:54:09Z</time>
      </trkpt>
      <trkpt lat="45.22541" lon="0.34448">
        <ele>151</ele>
        <time>2016-03-01T13:54:13Z</time>
      </trkpt>
      <trkpt lat="45.22537" lon="0.34448">
        <ele>153</ele>
        <time>2016-03-01T13:54:18Z</time>
      </trkpt>
      <trkpt lat="45.22532" lon="0.34446">
        <ele>153</ele>
        <time>2016-03-01T13:54:23Z</time>
      </trkpt>
      <trkpt lat="45.22527" lon="0.34445">
        <ele>152</ele>
        <time>2016-03-01T13:54:27Z</time>
      </trkpt>
      <trkpt lat="45.22523" lon="0.34446">
        <ele>151</ele>
        <time>2016-03-01T13:54:32Z</time>
      </trkpt>
      <trkpt lat="45.22517" lon="0.34446">
        <ele>152</ele>
        <time>2016-03-01T13:54:37Z</time>
      </trkpt>
      <trkpt lat="45.22512" lon="0.34445">
        <ele>154</ele>
        <time>2016-03-01T13:54:41Z</time>
      </trkpt>
      <trkpt lat="45.22507" lon="0.34443">
        <ele>155</ele>
        <time>2016-03-01T13:54:44Z</time>
      </trkpt>
      <trkpt lat="45.22501" lon="0.34444">
        <ele>156</ele>
        <time>2016-03-01T13:54:49Z</time>
      </trkpt>
      <trkpt lat="45.22495" lon="0.34443">
        <ele>157</ele>
        <time>2016-03-01T13:54:53Z</time>
      </trkpt>
      <trkpt lat="45.2249" lon="0.34441">
        <ele>157</ele>
        <time>2016-03-01T13:54:57Z</time>
      </trkpt>
      <trkpt lat="45.22484" lon="0.3444">
        <ele>156</ele>
        <time>2016-03-01T13:55:01Z</time>
      </trkpt>
      <trkpt lat="45.22477" lon="0.34439">
        <ele>155</ele>
        <time>2016-03-01T13:55:05Z</time>
      </trkpt>
      <trkpt lat="45.22471" lon="0.34438">
        <ele>155</ele>
        <time>2016-03-01T13:55:09Z</time>
      </trkpt>
      <trkpt lat="45.22465" lon="0.34437">
        <ele>157</ele>
        <time>2016-03-01T13:55:14Z</time>
      </trkpt>
      <trkpt lat="45.2246" lon="0.34437">
        <ele>157</ele>
        <time>2016-03-01T13:55:18Z</time>
      </trkpt>
      <trkpt lat="45.22452" lon="0.34435">
        <ele>157</ele>
        <time>2016-03-01T13:55:23Z</time>
      </trkpt>
      <trkpt lat="45.22447" lon="0.34434">
        <ele>157</ele>
        <time>2016-03-01T13:55:27Z</time>
      </trkpt>
      <trkpt lat="45.2244" lon="0.34433">
        <ele>158</ele>
        <time>2016-03-01T13:55:31Z</time>
      </trkpt>
      <trkpt lat="45.22435" lon="0.34432">
        <ele>158</ele>
        <time>2016-03-01T13:55:35Z</time>
      </trkpt>
      <trkpt lat="45.22429" lon="0.34432">
        <ele>159</ele>
        <time>2016-03-01T13:55:40Z</time>
      </trkpt>
      <trkpt lat="45.22425" lon="0.34432">
        <ele>159</ele>
        <time>2016-03-01T13:55:44Z</time>
      </trkpt>
      <trkpt lat="45.22418" lon="0.34433">
        <ele>159</ele>
        <time>2016-03-01T13:55:49Z</time>
      </trkpt>
      <trkpt lat="45.22413" lon="0.34433">
        <ele>160</ele>
        <time>2016-03-01T13:55:54Z</time>
      </trkpt>
      <trkpt lat="45.22408" lon="0.34435">
        <ele>159</ele>
        <time>2016-03-01T13:55:59Z</time>
      </trkpt>
      <trkpt lat="45.22402" lon="0.34436">
        <ele>160</ele>
        <time>2016-03-01T13:56:03Z</time>
      </trkpt>
      <trkpt lat="45.22397" lon="0.34436">
        <ele>159</ele>
        <time>2016-03-01T13:56:08Z</time>
      </trkpt>
      <trkpt lat="45.2239" lon="0.34439">
        <ele>157</ele>
        <time>2016-03-01T13:56:13Z</time>
      </trkpt>
      <trkpt lat="45.22383" lon="0.3444">
        <ele>158</ele>
        <time>2016-03-01T13:56:17Z</time>
      </trkpt>
      <trkpt lat="45.22379" lon="0.34443">
        <ele>158</ele>
        <time>2016-03-01T13:56:21Z</time>
      </trkpt>
      <trkpt lat="45.22373" lon="0.34447">
        <ele>158</ele>
        <time>2016-03-01T13:56:26Z</time>
      </trkpt>
      <trkpt lat="45.22369" lon="0.34447">
        <ele>158</ele>
        <time>2016-03-01T13:56:30Z</time>
      </trkpt>
      <trkpt lat="45.22366" lon="0.34449">
        <ele>158</ele>
        <time>2016-03-01T13:56:35Z</time>
      </trkpt>
      <trkpt lat="45.22359" lon="0.34451">
        <ele>157</ele>
        <time>2016-03-01T13:56:39Z</time>
      </trkpt>
      <trkpt lat="45.22356" lon="0.34454">
        <ele>157</ele>
        <time>2016-03-01T13:56:46Z</time>
      </trkpt>
      <trkpt lat="45.22352" lon="0.34453">
        <ele>158</ele>
        <time>2016-03-01T13:56:51Z</time>
      </trkpt>
      <trkpt lat="45.22347" lon="0.34458">
        <ele>157</ele>
        <time>2016-03-01T13:56:56Z</time>
      </trkpt>
      <trkpt lat="45.22343" lon="0.34459">
        <ele>156</ele>
        <time>2016-03-01T13:57:00Z</time>
      </trkpt>
      <trkpt lat="45.22335" lon="0.34456">
        <ele>154</ele>
        <time>2016-03-01T13:57:04Z</time>
      </trkpt>
      <trkpt lat="45.22331" lon="0.34457">
        <ele>156</ele>
        <time>2016-03-01T13:57:08Z</time>
      </trkpt>
      <trkpt lat="45.22325" lon="0.34459">
        <ele>156</ele>
        <time>2016-03-01T13:57:12Z</time>
      </trkpt>
      <trkpt lat="45.2232" lon="0.34462">
        <ele>154</ele>
        <time>2016-03-01T13:57:17Z</time>
      </trkpt>
      <trkpt lat="45.22317" lon="0.34463">
        <ele>153</ele>
        <time>2016-03-01T13:57:21Z</time>
      </trkpt>
      <trkpt lat="45.22313" lon="0.34465">
        <ele>153</ele>
        <time>2016-03-01T13:57:27Z</time>
      </trkpt>
      <trkpt lat="45.22305" lon="0.34467">
        <ele>154</ele>
        <time>2016-03-01T13:57:32Z</time>
      </trkpt>
      <trkpt lat="45.223" lon="0.34469">
        <ele>152</ele>
        <time>2016-03-01T13:57:36Z</time>
      </trkpt>
      <trkpt lat="45.22296" lon="0.34472">
        <ele>151</ele>
        <time>2016-03-01T13:57:41Z</time>
      </trkpt>
      <trkpt lat="45.22289" lon="0.34472">
        <ele>151</ele>
        <time>2016-03-01T13:57:46Z</time>
      </trkpt>
      <trkpt lat="45.22283" lon="0.34474">
        <ele>154</ele>
        <time>2016-03-01T13:57:51Z</time>
      </trkpt>
      <trkpt lat="45.22279" lon="0.34475">
        <ele>155</ele>
        <time>2016-03-01T13:57:56Z</time>
      </trkpt>
      <trkpt lat="45.22275" lon="0.34477">
        <ele>155</ele>
        <time>2016-03-01T13:58:00Z</time>
      </trkpt>
      <trkpt lat="45.2227" lon="0.34479">
        <ele>155</ele>
        <time>2016-03-01T13:58:04Z</time>
      </trkpt>
      <trkpt lat="45.22265" lon="0.34482">
        <ele>155</ele>
        <time>2016-03-01T13:58:08Z</time>
      </trkpt>
      <trkpt lat="45.22261" lon="0.34484">
        <ele>155</ele>
        <time>2016-03-01T13:58:13Z</time>
      </trkpt>
      <trkpt lat="45.22256" lon="0.34488">
        <ele>154</ele>
        <time>2016-03-01T13:58:18Z</time>
      </trkpt>
      <trkpt lat="45.22249" lon="0.34487">
        <ele>152</ele>
        <time>2016-03-01T13:58:22Z</time>
      </trkpt>
      <trkpt lat="45.22249" lon="0.34492">
        <ele>155</ele>
        <time>2016-03-01T13:58:30Z</time>
      </trkpt>
      <trkpt lat="45.22246" lon="0.34496">
        <ele>152</ele>
        <time>2016-03-01T13:58:40Z</time>
      </trkpt>
      <trkpt lat="45.22243" lon="0.34496">
        <ele>152</ele>
        <time>2016-03-01T13:58:54Z</time>
      </trkpt>
      <trkpt lat="45.22239" lon="0.34496">
        <ele>151</ele>
        <time>2016-03-01T13:59:01Z</time>
      </trkpt>
      <trkpt lat="45.22235" lon="0.34497">
        <ele>151</ele>
        <time>2016-03-01T13:59:06Z</time>
      </trkpt>
      <trkpt lat="45.22228" lon="0.34495">
        <ele>151</ele>
        <time>2016-03-01T13:59:11Z</time>
      </trkpt>
      <trkpt lat="45.22224" lon="0.34494">
        <ele>151</ele>
        <time>2016-03-01T13:59:20Z</time>
      </trkpt>
      <trkpt lat="45.22221" lon="0.34492">
        <ele>152</ele>
        <time>2016-03-01T13:59:31Z</time>
      </trkpt>
      <trkpt lat="45.22215" lon="0.34492">
        <ele>152</ele>
        <time>2016-03-01T13:59:36Z</time>
      </trkpt>
      <trkpt lat="45.2221" lon="0.34493">
        <ele>153</ele>
        <time>2016-03-01T13:59:40Z</time>
      </trkpt>
      <trkpt lat="45.22205" lon="0.34496">
        <ele>155</ele>
        <time>2016-03-01T13:59:44Z</time>
      </trkpt>
      <trkpt lat="45.22198" lon="0.34499">
        <ele>155</ele>
        <time>2016-03-01T13:59:49Z</time>
      </trkpt>
      <trkpt lat="45.22192" lon="0.34501">
        <ele>155</ele>
        <time>2016-03-01T13:59:54Z</time>
      </trkpt>
      <trkpt lat="45.22186" lon="0.34505">
        <ele>155</ele>
        <time>2016-03-01T13:59:59Z</time>
      </trkpt>
      <trkpt lat="45.22183" lon="0.34506">
        <ele>156</ele>
        <time>2016-03-01T14:00:03Z</time>
      </trkpt>
      <trkpt lat="45.22178" lon="0.34508">
        <ele>157</ele>
        <time>2016-03-01T14:00:08Z</time>
      </trkpt>
      <trkpt lat="45.22174" lon="0.3451">
        <ele>157</ele>
        <time>2016-03-01T14:00:12Z</time>
      </trkpt>
      <trkpt lat="45.2217" lon="0.34514">
        <ele>157</ele>
        <time>2016-03-01T14:00:17Z</time>
      </trkpt>
      <trkpt lat="45.22167" lon="0.34517">
        <ele>156</ele>
        <time>2016-03-01T14:00:21Z</time>
      </trkpt>
      <trkpt lat="45.22162" lon="0.34519">
        <ele>156</ele>
        <time>2016-03-01T14:00:25Z</time>
      </trkpt>
      <trkpt lat="45.22159" lon="0.34522">
        <ele>156</ele>
        <time>2016-03-01T14:00:30Z</time>
      </trkpt>
      <trkpt lat="45.22154" lon="0.34522">
        <ele>157</ele>
        <time>2016-03-01T14:00:34Z</time>
      </trkpt>
      <trkpt lat="45.2215" lon="0.34524">
        <ele>156</ele>
        <time>2016-03-01T14:00:38Z</time>
      </trkpt>
      <trkpt lat="45.22145" lon="0.34526">
        <ele>158</ele>
        <time>2016-03-01T14:00:43Z</time>
      </trkpt>
      <trkpt lat="45.22141" lon="0.34527">
        <ele>157</ele>
        <time>2016-03-01T14:00:47Z</time>
      </trkpt>
      <trkpt lat="45.22136" lon="0.34527">
        <ele>158</ele>
        <time>2016-03-01T14:00:51Z</time>
      </trkpt>
      <trkpt lat="45.22132" lon="0.34527">
        <ele>157</ele>
        <time>2016-03-01T14:00:55Z</time>
      </trkpt>
      <trkpt lat="45.22127" lon="0.34529">
        <ele>158</ele>
        <time>2016-03-01T14:01:00Z</time>
      </trkpt>
      <trkpt lat="45.22122" lon="0.3453">
        <ele>157</ele>
        <time>2016-03-01T14:01:05Z</time>
      </trkpt>
      <trkpt lat="45.22119" lon="0.34531">
        <ele>157</ele>
        <time>2016-03-01T14:01:09Z</time>
      </trkpt>
      <trkpt lat="45.22114" lon="0.34533">
        <ele>158</ele>
        <time>2016-03-01T14:01:14Z</time>
      </trkpt>
      <trkpt lat="45.22108" lon="0.3453">
        <ele>159</ele>
        <time>2016-03-01T14:01:18Z</time>
      </trkpt>
      <trkpt lat="45.22106" lon="0.34525">
        <ele>160</ele>
        <time>2016-03-01T14:01:23Z</time>
      </trkpt>
      <trkpt lat="45.22109" lon="0.34517">
        <ele>162</ele>
        <time>2016-03-01T14:01:28Z</time>
      </trkpt>
      <trkpt lat="45.22108" lon="0.34512">
        <ele>162</ele>
        <time>2016-03-01T14:01:33Z</time>
      </trkpt>
      <trkpt lat="45.22106" lon="0.34505">
        <ele>162</ele>
        <time>2016-03-01T14:01:37Z</time>
      </trkpt>
      <trkpt lat="45.22105" lon="0.34499">
        <ele>161</ele>
        <time>2016-03-01T14:01:42Z</time>
      </trkpt>
      <trkpt lat="45.22105" lon="0.34493">
        <ele>159</ele>
        <time>2016-03-01T14:01:46Z</time>
      </trkpt>
      <trkpt lat="45.22108" lon="0.34487">
        <ele>158</ele>
        <time>2016-03-01T14:01:51Z</time>
      </trkpt>
      <trkpt lat="45.22112" lon="0.34482">
        <ele>159</ele>
        <time>2016-03-01T14:01:55Z</time>
      </trkpt>
      <trkpt lat="45.22115" lon="0.34475">
        <ele>157</ele>
        <time>2016-03-01T14:02:00Z</time>
      </trkpt>
      <trkpt lat="45.22102" lon="0.34466">
        <ele>154</ele>
        <time>2016-03-01T14:02:04Z</time>
      </trkpt>
      <trkpt lat="45.22102" lon="0.34459">
        <ele>155</ele>
        <time>2016-03-01T14:02:09Z</time>
      </trkpt>
      <trkpt lat="45.22104" lon="0.34454">
        <ele>155</ele>
        <time>2016-03-01T14:02:13Z</time>
      </trkpt>
      <trkpt lat="45.22102" lon="0.34445">
        <ele>153</ele>
        <time>2016-03-01T14:02:18Z</time>
      </trkpt>
      <trkpt lat="45.22101" lon="0.34438">
        <ele>152</ele>
        <time>2016-03-01T14:02:23Z</time>
      </trkpt>
      <trkpt lat="45.22103" lon="0.34432">
        <ele>153</ele>
        <time>2016-03-01T14:02:28Z</time>
      </trkpt>
      <trkpt lat="45.22103" lon="0.34424">
        <ele>153</ele>
        <time>2016-03-01T14:02:32Z</time>
      </trkpt>
      <trkpt lat="45.22104" lon="0.34417">
        <ele>154</ele>
        <time>2016-03-01T14:02:36Z</time>
      </trkpt>
      <trkpt lat="45.22105" lon="0.34409">
        <ele>152</ele>
        <time>2016-03-01T14:02:41Z</time>
      </trkpt>
      <trkpt lat="45.22106" lon="0.34402">
        <ele>151</ele>
        <time>2016-03-01T14:02:46Z</time>
      </trkpt>
      <trkpt lat="45.22107" lon="0.34394">
        <ele>152</ele>
        <time>2016-03-01T14:02:50Z</time>
      </trkpt>
      <trkpt lat="45.22107" lon="0.34385">
        <ele>150</ele>
        <time>2016-03-01T14:02:55Z</time>
      </trkpt>
      <trkpt lat="45.22106" lon="0.34378">
        <ele>149</ele>
        <time>2016-03-01T14:03:00Z</time>
      </trkpt>
      <trkpt lat="45.22106" lon="0.34374">
        <ele>149</ele>
        <time>2016-03-01T14:03:05Z</time>
      </trkpt>
      <trkpt lat="45.22107" lon="0.34366">
        <ele>148</ele>
        <time>2016-03-01T14:03:10Z</time>
      </trkpt>
      <trkpt lat="45.22105" lon="0.34359">
        <ele>147</ele>
        <time>2016-03-01T14:03:14Z</time>
      </trkpt>
      <trkpt lat="45.22106" lon="0.3435">
        <ele>147</ele>
        <time>2016-03-01T14:03:19Z</time>
      </trkpt>
      <trkpt lat="45.22106" lon="0.34342">
        <ele>146</ele>
        <time>2016-03-01T14:03:24Z</time>
      </trkpt>
      <trkpt lat="45.22107" lon="0.34336">
        <ele>145</ele>
        <time>2016-03-01T14:03:29Z</time>
      </trkpt>
      <trkpt lat="45.22107" lon="0.3433">
        <ele>145</ele>
        <time>2016-03-01T14:03:34Z</time>
      </trkpt>
      <trkpt lat="45.22107" lon="0.34323">
        <ele>145</ele>
        <time>2016-03-01T14:03:39Z</time>
      </trkpt>
      <trkpt lat="45.22108" lon="0.34315">
        <ele>143</ele>
        <time>2016-03-01T14:03:44Z</time>
      </trkpt>
      <trkpt lat="45.22108" lon="0.34308">
        <ele>143</ele>
        <time>2016-03-01T14:03:49Z</time>
      </trkpt>
      <trkpt lat="45.22108" lon="0.34302">
        <ele>144</ele>
        <time>2016-03-01T14:03:53Z</time>
      </trkpt>
      <trkpt lat="45.22108" lon="0.34295">
        <ele>144</ele>
        <time>2016-03-01T14:03:57Z</time>
      </trkpt>
      <trkpt lat="45.22108" lon="0.34289">
        <ele>144</ele>
        <time>2016-03-01T14:04:01Z</time>
      </trkpt>
      <trkpt lat="45.22107" lon="0.34281">
        <ele>144</ele>
        <time>2016-03-01T14:04:05Z</time>
      </trkpt>
      <trkpt lat="45.22106" lon="0.34273">
        <ele>144</ele>
        <time>2016-03-01T14:04:10Z</time>
      </trkpt>
      <trkpt lat="45.22105" lon="0.34264">
        <ele>142</ele>
        <time>2016-03-01T14:04:15Z</time>
      </trkpt>
      <trkpt lat="45.22105" lon="0.34258">
        <ele>141</ele>
        <time>2016-03-01T14:04:19Z</time>
      </trkpt>
      <trkpt lat="45.22103" lon="0.3425">
        <ele>141</ele>
        <time>2016-03-01T14:04:24Z</time>
      </trkpt>
      <trkpt lat="45.22102" lon="0.34243">
        <ele>141</ele>
        <time>2016-03-01T14:04:28Z</time>
      </trkpt>
      <trkpt lat="45.22101" lon="0.34235">
        <ele>140</ele>
        <time>2016-03-01T14:04:33Z</time>
      </trkpt>
      <trkpt lat="45.22101" lon="0.34227">
        <ele>140</ele>
        <time>2016-03-01T14:04:37Z</time>
      </trkpt>
      <trkpt lat="45.22099" lon="0.34221">
        <ele>139</ele>
        <time>2016-03-01T14:04:41Z</time>
      </trkpt>
      <trkpt lat="45.22098" lon="0.34213">
        <ele>139</ele>
        <time>2016-03-01T14:04:46Z</time>
      </trkpt>
      <trkpt lat="45.22097" lon="0.34206">
        <ele>138</ele>
        <time>2016-03-01T14:04:50Z</time>
      </trkpt>
      <trkpt lat="45.22095" lon="0.34201">
        <ele>137</ele>
        <time>2016-03-01T14:04:54Z</time>
      </trkpt>
      <trkpt lat="45.22094" lon="0.34194">
        <ele>137</ele>
        <time>2016-03-01T14:04:58Z</time>
      </trkpt>
      <trkpt lat="45.22093" lon="0.34186">
        <ele>136</ele>
        <time>2016-03-01T14:05:03Z</time>
      </trkpt>
      <trkpt lat="45.22093" lon="0.3418">
        <ele>136</ele>
        <time>2016-03-01T14:05:07Z</time>
      </trkpt>
      <trkpt lat="45.22092" lon="0.34173">
        <ele>136</ele>
        <time>2016-03-01T14:05:11Z</time>
      </trkpt>
      <trkpt lat="45.2209" lon="0.34166">
        <ele>136</ele>
        <time>2016-03-01T14:05:15Z</time>
      </trkpt>
      <trkpt lat="45.22088" lon="0.3416">
        <ele>135</ele>
        <time>2016-03-01T14:05:19Z</time>
      </trkpt>
      <trkpt lat="45.22087" lon="0.34153">
        <ele>134</ele>
        <time>2016-03-01T14:05:23Z</time>
      </trkpt>
      <trkpt lat="45.22086" lon="0.34145">
        <ele>134</ele>
        <time>2016-03-01T14:05:28Z</time>
      </trkpt>
      <trkpt lat="45.22084" lon="0.34139">
        <ele>133</ele>
        <time>2016-03-01T14:05:32Z</time>
      </trkpt>
      <trkpt lat="45.22084" lon="0.34133">
        <ele>133</ele>
        <time>2016-03-01T14:05:36Z</time>
      </trkpt>
      <trkpt lat="45.22082" lon="0.34125">
        <ele>133</ele>
        <time>2016-03-01T14:05:41Z</time>
      </trkpt>
      <trkpt lat="45.22081" lon="0.34118">
        <ele>133</ele>
        <time>2016-03-01T14:05:45Z</time>
      </trkpt>
      <trkpt lat="45.2208" lon="0.34109">
        <ele>133</ele>
        <time>2016-03-01T14:05:50Z</time>
      </trkpt>
      <trkpt lat="45.22079" lon="0.34103">
        <ele>132</ele>
        <time>2016-03-01T14:05:54Z</time>
      </trkpt>
      <trkpt lat="45.22078" lon="0.34095">
        <ele>133</ele>
        <time>2016-03-01T14:05:59Z</time>
      </trkpt>
      <trkpt lat="45.22076" lon="0.34089">
        <ele>133</ele>
        <time>2016-03-01T14:06:03Z</time>
      </trkpt>
      <trkpt lat="45.22073" lon="0.34082">
        <ele>133</ele>
        <time>2016-03-01T14:06:08Z</time>
      </trkpt>
      <trkpt lat="45.22071" lon="0.34076">
        <ele>134</ele>
        <time>2016-03-01T14:06:12Z</time>
      </trkpt>
      <trkpt lat="45.22067" lon="0.34069">
        <ele>134</ele>
        <time>2016-03-01T14:06:17Z</time>
      </trkpt>
      <trkpt lat="45.22064" lon="0.34064">
        <ele>135</ele>
        <time>2016-03-01T14:06:21Z</time>
      </trkpt>
      <trkpt lat="45.22061" lon="0.34059">
        <ele>135</ele>
        <time>2016-03-01T14:06:25Z</time>
      </trkpt>
      <trkpt lat="45.22058" lon="0.34054">
        <ele>135</ele>
        <time>2016-03-01T14:06:29Z</time>
      </trkpt>
      <trkpt lat="45.22055" lon="0.34049">
        <ele>135</ele>
        <time>2016-03-01T14:06:33Z</time>
      </trkpt>
      <trkpt lat="45.22051" lon="0.34043">
        <ele>136</ele>
        <time>2016-03-01T14:06:38Z</time>
      </trkpt>
      <trkpt lat="45.22048" lon="0.3404">
        <ele>136</ele>
        <time>2016-03-01T14:06:42Z</time>
      </trkpt>
      <trkpt lat="45.22045" lon="0.34036">
        <ele>136</ele>
        <time>2016-03-01T14:06:46Z</time>
      </trkpt>
      <trkpt lat="45.22042" lon="0.3403">
        <ele>136</ele>
        <time>2016-03-01T14:06:50Z</time>
      </trkpt>
      <trkpt lat="45.22038" lon="0.34025">
        <ele>136</ele>
        <time>2016-03-01T14:06:54Z</time>
      </trkpt>
      <trkpt lat="45.22035" lon="0.34022">
        <ele>137</ele>
        <time>2016-03-01T14:06:58Z</time>
      </trkpt>
      <trkpt lat="45.22031" lon="0.34018">
        <ele>137</ele>
        <time>2016-03-01T14:07:02Z</time>
      </trkpt>
      <trkpt lat="45.22028" lon="0.34015">
        <ele>137</ele>
        <time>2016-03-01T14:07:07Z</time>
      </trkpt>
      <trkpt lat="45.22024" lon="0.34012">
        <ele>137</ele>
        <time>2016-03-01T14:07:11Z</time>
      </trkpt>
      <trkpt lat="45.22021" lon="0.34007">
        <ele>138</ele>
        <time>2016-03-01T14:07:15Z</time>
      </trkpt>
      <trkpt lat="45.22017" lon="0.34003">
        <ele>137</ele>
        <time>2016-03-01T14:07:19Z</time>
      </trkpt>
      <trkpt lat="45.22012" lon="0.33999">
        <ele>137</ele>
        <time>2016-03-01T14:07:23Z</time>
      </trkpt>
      <trkpt lat="45.22007" lon="0.33995">
        <ele>138</ele>
        <time>2016-03-01T14:07:27Z</time>
      </trkpt>
      <trkpt lat="45.22002" lon="0.33991">
        <ele>137</ele>
        <time>2016-03-01T14:07:32Z</time>
      </trkpt>
      <trkpt lat="45.21999" lon="0.33987">
        <ele>137</ele>
        <time>2016-03-01T14:07:36Z</time>
      </trkpt>
      <trkpt lat="45.21994" lon="0.33983">
        <ele>137</ele>
        <time>2016-03-01T14:07:40Z</time>
      </trkpt>
      <trkpt lat="45.21991" lon="0.33979">
        <ele>138</ele>
        <time>2016-03-01T14:07:44Z</time>
      </trkpt>
      <trkpt lat="45.21986" lon="0.33975">
        <ele>138</ele>
        <time>2016-03-01T14:07:49Z</time>
      </trkpt>
      <trkpt lat="45.21982" lon="0.33971">
        <ele>137</ele>
        <time>2016-03-01T14:07:53Z</time>
      </trkpt>
      <trkpt lat="45.21977" lon="0.33966">
        <ele>138</ele>
        <time>2016-03-01T14:07:58Z</time>
      </trkpt>
      <trkpt lat="45.21973" lon="0.33961">
        <ele>138</ele>
        <time>2016-03-01T14:08:03Z</time>
      </trkpt>
      <trkpt lat="45.21969" lon="0.33955">
        <ele>138</ele>
        <time>2016-03-01T14:08:07Z</time>
      </trkpt>
      <trkpt lat="45.21966" lon="0.33951">
        <ele>138</ele>
        <time>2016-03-01T14:08:11Z</time>
      </trkpt>
      <trkpt lat="45.21962" lon="0.33945">
        <ele>137</ele>
        <time>2016-03-01T14:08:16Z</time>
      </trkpt>
      <trkpt lat="45.21958" lon="0.33939">
        <ele>136</ele>
        <time>2016-03-01T14:08:21Z</time>
      </trkpt>
      <trkpt lat="45.21955" lon="0.33935">
        <ele>135</ele>
        <time>2016-03-01T14:08:25Z</time>
      </trkpt>
      <trkpt lat="45.21952" lon="0.33929">
        <ele>135</ele>
        <time>2016-03-01T14:08:30Z</time>
      </trkpt>
      <trkpt lat="45.21949" lon="0.33925">
        <ele>135</ele>
        <time>2016-03-01T14:08:34Z</time>
      </trkpt>
      <trkpt lat="45.21946" lon="0.3392">
        <ele>135</ele>
        <time>2016-03-01T14:08:38Z</time>
      </trkpt>
      <trkpt lat="45.21942" lon="0.33915">
        <ele>135</ele>
        <time>2016-03-01T14:08:43Z</time>
      </trkpt>
      <trkpt lat="45.21936" lon="0.33909">
        <ele>135</ele>
        <time>2016-03-01T14:08:48Z</time>
      </trkpt>
      <trkpt lat="45.21932" lon="0.33903">
        <ele>135</ele>
        <time>2016-03-01T14:08:52Z</time>
      </trkpt>
      <trkpt lat="45.21929" lon="0.33898">
        <ele>135</ele>
        <time>2016-03-01T14:08:56Z</time>
      </trkpt>
      <trkpt lat="45.21924" lon="0.33892">
        <ele>136</ele>
        <time>2016-03-01T14:09:01Z</time>
      </trkpt>
      <trkpt lat="45.21921" lon="0.33886">
        <ele>136</ele>
        <time>2016-03-01T14:09:05Z</time>
      </trkpt>
      <trkpt lat="45.21918" lon="0.33883">
        <ele>137</ele>
        <time>2016-03-01T14:09:09Z</time>
      </trkpt>
      <trkpt lat="45.21914" lon="0.33878">
        <ele>136</ele>
        <time>2016-03-01T14:09:13Z</time>
      </trkpt>
      <trkpt lat="45.2191" lon="0.33872">
        <ele>135</ele>
        <time>2016-03-01T14:09:18Z</time>
      </trkpt>
      <trkpt lat="45.21907" lon="0.33866">
        <ele>134</ele>
        <time>2016-03-01T14:09:22Z</time>
      </trkpt>
      <trkpt lat="45.21903" lon="0.33861">
        <ele>135</ele>
        <time>2016-03-01T14:09:27Z</time>
      </trkpt>
      <trkpt lat="45.219" lon="0.33857">
        <ele>135</ele>
        <time>2016-03-01T14:09:31Z</time>
      </trkpt>
      <trkpt lat="45.21897" lon="0.3385">
        <ele>136</ele>
        <time>2016-03-01T14:09:36Z</time>
      </trkpt>
      <trkpt lat="45.21895" lon="0.33845">
        <ele>135</ele>
        <time>2016-03-01T14:09:40Z</time>
      </trkpt>
      <trkpt lat="45.21895" lon="0.33839">
        <ele>135</ele>
        <time>2016-03-01T14:09:44Z</time>
      </trkpt>
      <trkpt lat="45.21896" lon="0.33834">
        <ele>136</ele>
        <time>2016-03-01T14:09:48Z</time>
      </trkpt>
      <trkpt lat="45.21898" lon="0.33829">
        <ele>137</ele>
        <time>2016-03-01T14:09:52Z</time>
      </trkpt>
      <trkpt lat="45.21901" lon="0.33826">
        <ele>136</ele>
        <time>2016-03-01T14:09:57Z</time>
      </trkpt>
      <trkpt lat="45.21904" lon="0.33823">
        <ele>136</ele>
        <time>2016-03-01T14:10:01Z</time>
      </trkpt>
      <trkpt lat="45.21908" lon="0.33821">
        <ele>137</ele>
        <time>2016-03-01T14:10:08Z</time>
      </trkpt>
      <trkpt lat="45.21911" lon="0.33816">
        <ele>132</ele>
        <time>2016-03-01T14:12:27Z</time>
      </trkpt>
      <trkpt lat="45.21914" lon="0.33812">
        <ele>134</ele>
        <time>2016-03-01T14:12:40Z</time>
      </trkpt>
      <trkpt lat="45.21917" lon="0.33809">
        <ele>135</ele>
        <time>2016-03-01T14:12:45Z</time>
      </trkpt>
      <trkpt lat="45.21921" lon="0.33806">
        <ele>133</ele>
        <time>2016-03-01T14:12:49Z</time>
      </trkpt>
      <trkpt lat="45.21925" lon="0.33802">
        <ele>132</ele>
        <time>2016-03-01T14:12:53Z</time>
      </trkpt>
      <trkpt lat="45.21928" lon="0.33799">
        <ele>132</ele>
        <time>2016-03-01T14:12:57Z</time>
      </trkpt>
      <trkpt lat="45.21931" lon="0.33796">
        <ele>131</ele>
        <time>2016-03-01T14:13:01Z</time>
      </trkpt>
      <trkpt lat="45.21934" lon="0.33792">
        <ele>131</ele>
        <time>2016-03-01T14:13:05Z</time>
      </trkpt>
      <trkpt lat="45.21938" lon="0.33787">
        <ele>129</ele>
        <time>2016-03-01T14:13:10Z</time>
      </trkpt>
      <trkpt lat="45.21942" lon="0.33783">
        <ele>130</ele>
        <time>2016-03-01T14:13:15Z</time>
      </trkpt>
      <trkpt lat="45.21945" lon="0.33779">
        <ele>130</ele>
        <time>2016-03-01T14:13:19Z</time>
      </trkpt>
      <trkpt lat="45.2195" lon="0.33775">
        <ele>130</ele>
        <time>2016-03-01T14:13:24Z</time>
      </trkpt>
      <trkpt lat="45.21953" lon="0.3377">
        <ele>129</ele>
        <time>2016-03-01T14:13:28Z</time>
      </trkpt>
      <trkpt lat="45.21955" lon="0.33765">
        <ele>129</ele>
        <time>2016-03-01T14:13:32Z</time>
      </trkpt>
      <trkpt lat="45.21959" lon="0.33759">
        <ele>129</ele>
        <time>2016-03-01T14:13:37Z</time>
      </trkpt>
      <trkpt lat="45.2196" lon="0.33751">
        <ele>129</ele>
        <time>2016-03-01T14:13:42Z</time>
      </trkpt>
      <trkpt lat="45.21963" lon="0.33746">
        <ele>129</ele>
        <time>2016-03-01T14:13:46Z</time>
      </trkpt>
      <trkpt lat="45.21966" lon="0.33739">
        <ele>128</ele>
        <time>2016-03-01T14:13:50Z</time>
      </trkpt>
      <trkpt lat="45.21968" lon="0.33732">
        <ele>128</ele>
        <time>2016-03-01T14:13:55Z</time>
      </trkpt>
      <trkpt lat="45.21971" lon="0.33725">
        <ele>128</ele>
        <time>2016-03-01T14:13:59Z</time>
      </trkpt>
      <trkpt lat="45.21974" lon="0.33718">
        <ele>128</ele>
        <time>2016-03-01T14:14:03Z</time>
      </trkpt>
      <trkpt lat="45.21977" lon="0.3371">
        <ele>128</ele>
        <time>2016-03-01T14:14:08Z</time>
      </trkpt>
      <trkpt lat="45.21979" lon="0.33703">
        <ele>126</ele>
        <time>2016-03-01T14:14:13Z</time>
      </trkpt>
      <trkpt lat="45.21981" lon="0.33697">
        <ele>126</ele>
        <time>2016-03-01T14:14:17Z</time>
      </trkpt>
      <trkpt lat="45.21984" lon="0.33693">
        <ele>127</ele>
        <time>2016-03-01T14:14:21Z</time>
      </trkpt>
      <trkpt lat="45.21986" lon="0.33682">
        <ele>129</ele>
        <time>2016-03-01T14:14:26Z</time>
      </trkpt>
      <trkpt lat="45.21988" lon="0.33677">
        <ele>128</ele>
        <time>2016-03-01T14:14:30Z</time>
      </trkpt>
      <trkpt lat="45.21991" lon="0.33668">
        <ele>129</ele>
        <time>2016-03-01T14:14:35Z</time>
      </trkpt>
      <trkpt lat="45.21992" lon="0.33662">
        <ele>130</ele>
        <time>2016-03-01T14:14:39Z</time>
      </trkpt>
      <trkpt lat="45.21995" lon="0.33656">
        <ele>131</ele>
        <time>2016-03-01T14:14:44Z</time>
      </trkpt>
      <trkpt lat="45.21996" lon="0.33651">
        <ele>131</ele>
        <time>2016-03-01T14:14:48Z</time>
      </trkpt>
      <trkpt lat="45.21998" lon="0.33643">
        <ele>129</ele>
        <time>2016-03-01T14:14:53Z</time>
      </trkpt>
      <trkpt lat="45.22" lon="0.33637">
        <ele>129</ele>
        <time>2016-03-01T14:14:57Z</time>
      </trkpt>
      <trkpt lat="45.22002" lon="0.33631">
        <ele>130</ele>
        <time>2016-03-01T14:15:01Z</time>
      </trkpt>
      <trkpt lat="45.22004" lon="0.33623">
        <ele>127</ele>
        <time>2016-03-01T14:15:05Z</time>
      </trkpt>
      <trkpt lat="45.22006" lon="0.33617">
        <ele>127</ele>
        <time>2016-03-01T14:15:09Z</time>
      </trkpt>
      <trkpt lat="45.22009" lon="0.3361">
        <ele>127</ele>
        <time>2016-03-01T14:15:14Z</time>
      </trkpt>
      <trkpt lat="45.22011" lon="0.33604">
        <ele>128</ele>
        <time>2016-03-01T14:15:18Z</time>
      </trkpt>
      <trkpt lat="45.22015" lon="0.336">
        <ele>127</ele>
        <time>2016-03-01T14:15:22Z</time>
      </trkpt>
      <trkpt lat="45.22018" lon="0.33592">
        <ele>128</ele>
        <time>2016-03-01T14:15:27Z</time>
      </trkpt>
      <trkpt lat="45.22021" lon="0.33587">
        <ele>128</ele>
        <time>2016-03-01T14:15:31Z</time>
      </trkpt>
      <trkpt lat="45.22025" lon="0.33582">
        <ele>127</ele>
        <time>2016-03-01T14:15:36Z</time>
      </trkpt>
      <trkpt lat="45.22028" lon="0.33577">
        <ele>128</ele>
        <time>2016-03-01T14:15:40Z</time>
      </trkpt>
      <trkpt lat="45.2203" lon="0.3357">
        <ele>125</ele>
        <time>2016-03-01T14:15:44Z</time>
      </trkpt>
      <trkpt lat="45.22032" lon="0.33563">
        <ele>125</ele>
        <time>2016-03-01T14:15:49Z</time>
      </trkpt>
      <trkpt lat="45.22034" lon="0.33557">
        <ele>124</ele>
        <time>2016-03-01T14:15:53Z</time>
      </trkpt>
      <trkpt lat="45.22037" lon="0.33552">
        <ele>123</ele>
        <time>2016-03-01T14:15:57Z</time>
      </trkpt>
      <trkpt lat="45.22039" lon="0.33545">
        <ele>122</ele>
        <time>2016-03-01T14:16:01Z</time>
      </trkpt>
      <trkpt lat="45.22043" lon="0.33538">
        <ele>121</ele>
        <time>2016-03-01T14:16:06Z</time>
      </trkpt>
      <trkpt lat="45.22045" lon="0.33531">
        <ele>121</ele>
        <time>2016-03-01T14:16:10Z</time>
      </trkpt>
      <trkpt lat="45.22046" lon="0.33527">
        <ele>122</ele>
        <time>2016-03-01T14:16:14Z</time>
      </trkpt>
      <trkpt lat="45.22047" lon="0.3352">
        <ele>122</ele>
        <time>2016-03-01T14:16:18Z</time>
      </trkpt>
      <trkpt lat="45.22049" lon="0.33513">
        <ele>122</ele>
        <time>2016-03-01T14:16:23Z</time>
      </trkpt>
      <trkpt lat="45.2205" lon="0.33506">
        <ele>122</ele>
        <time>2016-03-01T14:16:27Z</time>
      </trkpt>
      <trkpt lat="45.22053" lon="0.33501">
        <ele>121</ele>
        <time>2016-03-01T14:16:31Z</time>
      </trkpt>
      <trkpt lat="45.22055" lon="0.33494">
        <ele>121</ele>
        <time>2016-03-01T14:16:35Z</time>
      </trkpt>
      <trkpt lat="45.22057" lon="0.33486">
        <ele>120</ele>
        <time>2016-03-01T14:16:40Z</time>
      </trkpt>
      <trkpt lat="45.22058" lon="0.33479">
        <ele>120</ele>
        <time>2016-03-01T14:16:44Z</time>
      </trkpt>
      <trkpt lat="45.2206" lon="0.33472">
        <ele>120</ele>
        <time>2016-03-01T14:16:48Z</time>
      </trkpt>
      <trkpt lat="45.22063" lon="0.33466">
        <ele>120</ele>
        <time>2016-03-01T14:16:52Z</time>
      </trkpt>
      <trkpt lat="45.22066" lon="0.3346">
        <ele>119</ele>
        <time>2016-03-01T14:16:57Z</time>
      </trkpt>
      <trkpt lat="45.2207" lon="0.33456">
        <ele>119</ele>
        <time>2016-03-01T14:17:01Z</time>
      </trkpt>
      <trkpt lat="45.22076" lon="0.33454">
        <ele>118</ele>
        <time>2016-03-01T14:17:06Z</time>
      </trkpt>
      <trkpt lat="45.22082" lon="0.33456">
        <ele>118</ele>
        <time>2016-03-01T14:17:11Z</time>
      </trkpt>
      <trkpt lat="45.22086" lon="0.33458">
        <ele>119</ele>
        <time>2016-03-01T14:17:15Z</time>
      </trkpt>
      <trkpt lat="45.22092" lon="0.33459">
        <ele>118</ele>
        <time>2016-03-01T14:17:19Z</time>
      </trkpt>
      <trkpt lat="45.22097" lon="0.33457">
        <ele>118</ele>
        <time>2016-03-01T14:17:23Z</time>
      </trkpt>
      <trkpt lat="45.22101" lon="0.33455">
        <ele>120</ele>
        <time>2016-03-01T14:17:28Z</time>
      </trkpt>
      <trkpt lat="45.22104" lon="0.3345">
        <ele>120</ele>
        <time>2016-03-01T14:17:32Z</time>
      </trkpt>
      <trkpt lat="45.22107" lon="0.33443">
        <ele>120</ele>
        <time>2016-03-01T14:17:37Z</time>
      </trkpt>
      <trkpt lat="45.2211" lon="0.33437">
        <ele>120</ele>
        <time>2016-03-01T14:17:41Z</time>
      </trkpt>
      <trkpt lat="45.22111" lon="0.3343">
        <ele>120</ele>
        <time>2016-03-01T14:17:45Z</time>
      </trkpt>
      <trkpt lat="45.22114" lon="0.33424">
        <ele>119</ele>
        <time>2016-03-01T14:17:50Z</time>
      </trkpt>
      <trkpt lat="45.22116" lon="0.33414">
        <ele>119</ele>
        <time>2016-03-01T14:17:55Z</time>
      </trkpt>
      <trkpt lat="45.22117" lon="0.33407">
        <ele>119</ele>
        <time>2016-03-01T14:18:00Z</time>
      </trkpt>
      <trkpt lat="45.2212" lon="0.33399">
        <ele>118</ele>
        <time>2016-03-01T14:18:04Z</time>
      </trkpt>
      <trkpt lat="45.22121" lon="0.33392">
        <ele>119</ele>
        <time>2016-03-01T14:18:09Z</time>
      </trkpt>
      <trkpt lat="45.22122" lon="0.33387">
        <ele>120</ele>
        <time>2016-03-01T14:18:13Z</time>
      </trkpt>
      <trkpt lat="45.22123" lon="0.33382">
        <ele>122</ele>
        <time>2016-03-01T14:18:18Z</time>
      </trkpt>
      <trkpt lat="45.22124" lon="0.33376">
        <ele>123</ele>
        <time>2016-03-01T14:18:22Z</time>
      </trkpt>
      <trkpt lat="45.22125" lon="0.33368">
        <ele>122</ele>
        <time>2016-03-01T14:18:26Z</time>
      </trkpt>
      <trkpt lat="45.22126" lon="0.33362">
        <ele>123</ele>
        <time>2016-03-01T14:18:30Z</time>
      </trkpt>
      <trkpt lat="45.22129" lon="0.33356">
        <ele>124</ele>
        <time>2016-03-01T14:18:35Z</time>
      </trkpt>
      <trkpt lat="45.2213" lon="0.33349">
        <ele>124</ele>
        <time>2016-03-01T14:18:39Z</time>
      </trkpt>
      <trkpt lat="45.2213" lon="0.33343">
        <ele>124</ele>
        <time>2016-03-01T14:18:43Z</time>
      </trkpt>
      <trkpt lat="45.2213" lon="0.33336">
        <ele>126</ele>
        <time>2016-03-01T14:18:48Z</time>
      </trkpt>
      <trkpt lat="45.2213" lon="0.33329">
        <ele>126</ele>
        <time>2016-03-01T14:18:52Z</time>
      </trkpt>
      <trkpt lat="45.22129" lon="0.33322">
        <ele>127</ele>
        <time>2016-03-01T14:18:56Z</time>
      </trkpt>
      <trkpt lat="45.22128" lon="0.33313">
        <ele>127</ele>
        <time>2016-03-01T14:19:01Z</time>
      </trkpt>
      <trkpt lat="45.22129" lon="0.33307">
        <ele>128</ele>
        <time>2016-03-01T14:19:05Z</time>
      </trkpt>
      <trkpt lat="45.22129" lon="0.33301">
        <ele>130</ele>
        <time>2016-03-01T14:19:09Z</time>
      </trkpt>
      <trkpt lat="45.22128" lon="0.33296">
        <ele>130</ele>
        <time>2016-03-01T14:19:14Z</time>
      </trkpt>
      <trkpt lat="45.22125" lon="0.33293">
        <ele>130</ele>
        <time>2016-03-01T14:19:19Z</time>
      </trkpt>
      <trkpt lat="45.22126" lon="0.33287">
        <ele>130</ele>
        <time>2016-03-01T14:19:45Z</time>
      </trkpt>
      <trkpt lat="45.22127" lon="0.33281">
        <ele>126</ele>
        <time>2016-03-01T14:21:26Z</time>
      </trkpt>
      <trkpt lat="45.22129" lon="0.33276">
        <ele>128</ele>
        <time>2016-03-01T14:22:16Z</time>
      </trkpt>
      <trkpt lat="45.22129" lon="0.3327">
        <ele>128</ele>
        <time>2016-03-01T14:22:23Z</time>
      </trkpt>
      <trkpt lat="45.22126" lon="0.33266">
        <ele>128</ele>
        <time>2016-03-01T14:22:29Z</time>
      </trkpt>
      <trkpt lat="45.22123" lon="0.33265">
        <ele>127</ele>
        <time>2016-03-01T14:22:33Z</time>
      </trkpt>
      <trkpt lat="45.22122" lon="0.33261">
        <ele>130</ele>
        <time>2016-03-01T14:22:39Z</time>
      </trkpt>
      <trkpt lat="45.2212" lon="0.33254">
        <ele>130</ele>
        <time>2016-03-01T14:22:44Z</time>
      </trkpt>
      <trkpt lat="45.2212" lon="0.33248">
        <ele>131</ele>
        <time>2016-03-01T14:22:49Z</time>
      </trkpt>
      <trkpt lat="45.22119" lon="0.33243">
        <ele>132</ele>
        <time>2016-03-01T14:22:53Z</time>
      </trkpt>
      <trkpt lat="45.22119" lon="0.33236">
        <ele>134</ele>
        <time>2016-03-01T14:22:59Z</time>
      </trkpt>
      <trkpt lat="45.22113" lon="0.33228">
        <ele>133</ele>
        <time>2016-03-01T14:23:04Z</time>
      </trkpt>
      <trkpt lat="45.22111" lon="0.33222">
        <ele>134</ele>
        <time>2016-03-01T14:23:09Z</time>
      </trkpt>
      <trkpt lat="45.2211" lon="0.33217">
        <ele>133</ele>
        <time>2016-03-01T14:23:13Z</time>
      </trkpt>
      <trkpt lat="45.22109" lon="0.3321">
        <ele>133</ele>
        <time>2016-03-01T14:23:18Z</time>
      </trkpt>
      <trkpt lat="45.22107" lon="0.33205">
        <ele>134</ele>
        <time>2016-03-01T14:23:22Z</time>
      </trkpt>
      <trkpt lat="45.22106" lon="0.33197">
        <ele>134</ele>
        <time>2016-03-01T14:23:27Z</time>
      </trkpt>
      <trkpt lat="45.22105" lon="0.33192">
        <ele>134</ele>
        <time>2016-03-01T14:23:31Z</time>
      </trkpt>
      <trkpt lat="45.22102" lon="0.33186">
        <ele>134</ele>
        <time>2016-03-01T14:23:35Z</time>
      </trkpt>
      <trkpt lat="45.221" lon="0.33181">
        <ele>135</ele>
        <time>2016-03-01T14:23:40Z</time>
      </trkpt>
      <trkpt lat="45.22098" lon="0.33173">
        <ele>137</ele>
        <time>2016-03-01T14:23:45Z</time>
      </trkpt>
      <trkpt lat="45.22096" lon="0.33166">
        <ele>135</ele>
        <time>2016-03-01T14:23:49Z</time>
      </trkpt>
      <trkpt lat="45.22094" lon="0.3316">
        <ele>135</ele>
        <time>2016-03-01T14:23:54Z</time>
      </trkpt>
      <trkpt lat="45.22092" lon="0.33153">
        <ele>134</ele>
        <time>2016-03-01T14:23:58Z</time>
      </trkpt>
      <trkpt lat="45.2209" lon="0.33145">
        <ele>134</ele>
        <time>2016-03-01T14:24:03Z</time>
      </trkpt>
      <trkpt lat="45.22088" lon="0.33138">
        <ele>133</ele>
        <time>2016-03-01T14:24:07Z</time>
      </trkpt>
      <trkpt lat="45.22087" lon="0.33132">
        <ele>136</ele>
        <time>2016-03-01T14:24:12Z</time>
      </trkpt>
      <trkpt lat="45.22086" lon="0.33125">
        <ele>137</ele>
        <time>2016-03-01T14:24:16Z</time>
      </trkpt>
      <trkpt lat="45.22082" lon="0.33118">
        <ele>139</ele>
        <time>2016-03-01T14:24:21Z</time>
      </trkpt>
      <trkpt lat="45.22081" lon="0.33113">
        <ele>139</ele>
        <time>2016-03-01T14:24:25Z</time>
      </trkpt>
      <trkpt lat="45.22079" lon="0.33106">
        <ele>139</ele>
        <time>2016-03-01T14:24:30Z</time>
      </trkpt>
      <trkpt lat="45.22078" lon="0.33099">
        <ele>139</ele>
        <time>2016-03-01T14:24:34Z</time>
      </trkpt>
      <trkpt lat="45.22073" lon="0.33096">
        <ele>138</ele>
        <time>2016-03-01T14:24:38Z</time>
      </trkpt>
      <trkpt lat="45.22068" lon="0.33096">
        <ele>137</ele>
        <time>2016-03-01T14:24:42Z</time>
      </trkpt>
      <trkpt lat="45.22064" lon="0.33096">
        <ele>137</ele>
        <time>2016-03-01T14:24:47Z</time>
      </trkpt>
      <trkpt lat="45.2206" lon="0.33097">
        <ele>138</ele>
        <time>2016-03-01T14:24:51Z</time>
      </trkpt>
      <trkpt lat="45.22057" lon="0.33097">
        <ele>137</ele>
        <time>2016-03-01T14:24:54Z</time>
      </trkpt>
      <trkpt lat="45.22052" lon="0.33097">
        <ele>138</ele>
        <time>2016-03-01T14:24:59Z</time>
      </trkpt>
      <trkpt lat="45.22048" lon="0.33098">
        <ele>139</ele>
        <time>2016-03-01T14:25:03Z</time>
      </trkpt>
      <trkpt lat="45.22042" lon="0.331">
        <ele>139</ele>
        <time>2016-03-01T14:25:07Z</time>
      </trkpt>
      <trkpt lat="45.22039" lon="0.33101">
        <ele>141</ele>
        <time>2016-03-01T14:25:13Z</time>
      </trkpt>
      <trkpt lat="45.22033" lon="0.33101">
        <ele>142</ele>
        <time>2016-03-01T14:25:18Z</time>
      </trkpt>
      <trkpt lat="45.2203" lon="0.33102">
        <ele>141</ele>
        <time>2016-03-01T14:25:22Z</time>
      </trkpt>
      <trkpt lat="45.22024" lon="0.33106">
        <ele>139</ele>
        <time>2016-03-01T14:25:27Z</time>
      </trkpt>
      <trkpt lat="45.2202" lon="0.33106">
        <ele>140</ele>
        <time>2016-03-01T14:25:31Z</time>
      </trkpt>
      <trkpt lat="45.22014" lon="0.33106">
        <ele>140</ele>
        <time>2016-03-01T14:25:35Z</time>
      </trkpt>
      <trkpt lat="45.22009" lon="0.33107">
        <ele>141</ele>
        <time>2016-03-01T14:25:40Z</time>
      </trkpt>
      <trkpt lat="45.22005" lon="0.33109">
        <ele>141</ele>
        <time>2016-03-01T14:25:44Z</time>
      </trkpt>
      <trkpt lat="45.21999" lon="0.33109">
        <ele>140</ele>
        <time>2016-03-01T14:25:49Z</time>
      </trkpt>
      <trkpt lat="45.21993" lon="0.33112">
        <ele>143</ele>
        <time>2016-03-01T14:25:53Z</time>
      </trkpt>
      <trkpt lat="45.21988" lon="0.33113">
        <ele>143</ele>
        <time>2016-03-01T14:25:57Z</time>
      </trkpt>
      <trkpt lat="45.21984" lon="0.33112">
        <ele>142</ele>
        <time>2016-03-01T14:26:01Z</time>
      </trkpt>
      <trkpt lat="45.21979" lon="0.33114">
        <ele>141</ele>
        <time>2016-03-01T14:26:05Z</time>
      </trkpt>
      <trkpt lat="45.21974" lon="0.33115">
        <ele>140</ele>
        <time>2016-03-01T14:26:10Z</time>
      </trkpt>
      <trkpt lat="45.21969" lon="0.33116">
        <ele>139</ele>
        <time>2016-03-01T14:26:14Z</time>
      </trkpt>
      <trkpt lat="45.21964" lon="0.33117">
        <ele>139</ele>
        <time>2016-03-01T14:26:18Z</time>
      </trkpt>
      <trkpt lat="45.2196" lon="0.33117">
        <ele>141</ele>
        <time>2016-03-01T14:26:22Z</time>
      </trkpt>
      <trkpt lat="45.21955" lon="0.33118">
        <ele>140</ele>
        <time>2016-03-01T14:26:26Z</time>
      </trkpt>
      <trkpt lat="45.2195" lon="0.33119">
        <ele>138</ele>
        <time>2016-03-01T14:26:31Z</time>
      </trkpt>
      <trkpt lat="45.21945" lon="0.33121">
        <ele>138</ele>
        <time>2016-03-01T14:26:35Z</time>
      </trkpt>
      <trkpt lat="45.2194" lon="0.33125">
        <ele>137</ele>
        <time>2016-03-01T14:26:40Z</time>
      </trkpt>
      <trkpt lat="45.21935" lon="0.33128">
        <ele>137</ele>
        <time>2016-03-01T14:26:44Z</time>
      </trkpt>
      <trkpt lat="45.2193" lon="0.33133">
        <ele>135</ele>
        <time>2016-03-01T14:26:49Z</time>
      </trkpt>
      <trkpt lat="45.21925" lon="0.33136">
        <ele>135</ele>
        <time>2016-03-01T14:26:53Z</time>
      </trkpt>
      <trkpt lat="45.21921" lon="0.33139">
        <ele>135</ele>
        <time>2016-03-01T14:26:58Z</time>
      </trkpt>
      <trkpt lat="45.21917" lon="0.3314">
        <ele>135</ele>
        <time>2016-03-01T14:27:02Z</time>
      </trkpt>
      <trkpt lat="45.21912" lon="0.33141">
        <ele>135</ele>
        <time>2016-03-01T14:27:07Z</time>
      </trkpt>
      <trkpt lat="45.21908" lon="0.33146">
        <ele>137</ele>
        <time>2016-03-01T14:27:11Z</time>
      </trkpt>
      <trkpt lat="45.21904" lon="0.33149">
        <ele>136</ele>
        <time>2016-03-01T14:27:15Z</time>
      </trkpt>
      <trkpt lat="45.219" lon="0.33152">
        <ele>136</ele>
        <time>2016-03-01T14:27:20Z</time>
      </trkpt>
      <trkpt lat="45.21894" lon="0.33156">
        <ele>136</ele>
        <time>2016-03-01T14:27:25Z</time>
      </trkpt>
      <trkpt lat="45.2189" lon="0.33159">
        <ele>137</ele>
        <time>2016-03-01T14:27:29Z</time>
      </trkpt>
      <trkpt lat="45.21884" lon="0.33165">
        <ele>135</ele>
        <time>2016-03-01T14:27:34Z</time>
      </trkpt>
      <trkpt lat="45.2188" lon="0.3317">
        <ele>137</ele>
        <time>2016-03-01T14:27:39Z</time>
      </trkpt>
      <trkpt lat="45.21877" lon="0.33174">
        <ele>135</ele>
        <time>2016-03-01T14:27:43Z</time>
      </trkpt>
      <trkpt lat="45.21873" lon="0.33178">
        <ele>137</ele>
        <time>2016-03-01T14:27:48Z</time>
      </trkpt>
      <trkpt lat="45.21869" lon="0.3318">
        <ele>137</ele>
        <time>2016-03-01T14:27:52Z</time>
      </trkpt>
      <trkpt lat="45.21864" lon="0.33183">
        <ele>138</ele>
        <time>2016-03-01T14:27:57Z</time>
      </trkpt>
      <trkpt lat="45.2186" lon="0.33185">
        <ele>139</ele>
        <time>2016-03-01T14:28:01Z</time>
      </trkpt>
      <trkpt lat="45.21855" lon="0.33187">
        <ele>141</ele>
        <time>2016-03-01T14:28:06Z</time>
      </trkpt>
      <trkpt lat="45.21851" lon="0.3319">
        <ele>142</ele>
        <time>2016-03-01T14:28:11Z</time>
      </trkpt>
      <trkpt lat="45.21845" lon="0.33193">
        <ele>141</ele>
        <time>2016-03-01T14:28:16Z</time>
      </trkpt>
      <trkpt lat="45.21841" lon="0.33196">
        <ele>142</ele>
        <time>2016-03-01T14:28:21Z</time>
      </trkpt>
      <trkpt lat="45.21838" lon="0.33197">
        <ele>143</ele>
        <time>2016-03-01T14:28:26Z</time>
      </trkpt>
      <trkpt lat="45.21834" lon="0.33199">
        <ele>147</ele>
        <time>2016-03-01T14:28:31Z</time>
      </trkpt>
      <trkpt lat="45.21829" lon="0.332">
        <ele>150</ele>
        <time>2016-03-01T14:28:37Z</time>
      </trkpt>
      <trkpt lat="45.21825" lon="0.33199">
        <ele>150</ele>
        <time>2016-03-01T14:28:43Z</time>
      </trkpt>
      <trkpt lat="45.21822" lon="0.33201">
        <ele>150</ele>
        <time>2016-03-01T14:28:49Z</time>
      </trkpt>
      <trkpt lat="45.21817" lon="0.33202">
        <ele>152</ele>
        <time>2016-03-01T14:28:53Z</time>
      </trkpt>
      <trkpt lat="45.21813" lon="0.33204">
        <ele>155</ele>
        <time>2016-03-01T14:28:58Z</time>
      </trkpt>
      <trkpt lat="45.21809" lon="0.33205">
        <ele>153</ele>
        <time>2016-03-01T14:29:02Z</time>
      </trkpt>
      <trkpt lat="45.21804" lon="0.33206">
        <ele>153</ele>
        <time>2016-03-01T14:29:07Z</time>
      </trkpt>
      <trkpt lat="45.21799" lon="0.33209">
        <ele>151</ele>
        <time>2016-03-01T14:29:11Z</time>
      </trkpt>
      <trkpt lat="45.21795" lon="0.33211">
        <ele>151</ele>
        <time>2016-03-01T14:29:15Z</time>
      </trkpt>
      <trkpt lat="45.2179" lon="0.33211">
        <ele>151</ele>
        <time>2016-03-01T14:29:20Z</time>
      </trkpt>
      <trkpt lat="45.21785" lon="0.33211">
        <ele>151</ele>
        <time>2016-03-01T14:29:24Z</time>
      </trkpt>
      <trkpt lat="45.21781" lon="0.3321">
        <ele>154</ele>
        <time>2016-03-01T14:29:28Z</time>
      </trkpt>
      <trkpt lat="45.21777" lon="0.33209">
        <ele>154</ele>
        <time>2016-03-01T14:29:33Z</time>
      </trkpt>
      <trkpt lat="45.21773" lon="0.33208">
        <ele>154</ele>
        <time>2016-03-01T14:29:37Z</time>
      </trkpt>
      <trkpt lat="45.21769" lon="0.33212">
        <ele>154</ele>
        <time>2016-03-01T14:29:42Z</time>
      </trkpt>
      <trkpt lat="45.21764" lon="0.33215">
        <ele>154</ele>
        <time>2016-03-01T14:29:46Z</time>
      </trkpt>
      <trkpt lat="45.21761" lon="0.33218">
        <ele>155</ele>
        <time>2016-03-01T14:29:55Z</time>
      </trkpt>
      <trkpt lat="45.21757" lon="0.33221">
        <ele>157</ele>
        <time>2016-03-01T14:29:59Z</time>
      </trkpt>
      <trkpt lat="45.2175" lon="0.33225">
        <ele>155</ele>
        <time>2016-03-01T14:30:04Z</time>
      </trkpt>
      <trkpt lat="45.21746" lon="0.33226">
        <ele>154</ele>
        <time>2016-03-01T14:30:10Z</time>
      </trkpt>
      <trkpt lat="45.21741" lon="0.33226">
        <ele>154</ele>
        <time>2016-03-01T14:30:14Z</time>
      </trkpt>
      <trkpt lat="45.21734" lon="0.33228">
        <ele>156</ele>
        <time>2016-03-01T14:30:19Z</time>
      </trkpt>
      <trkpt lat="45.21726" lon="0.33228">
        <ele>154</ele>
        <time>2016-03-01T14:30:24Z</time>
      </trkpt>
      <trkpt lat="45.21722" lon="0.3323">
        <ele>154</ele>
        <time>2016-03-01T14:30:28Z</time>
      </trkpt>
      <trkpt lat="45.21718" lon="0.33229">
        <ele>156</ele>
        <time>2016-03-01T14:30:33Z</time>
      </trkpt>
      <trkpt lat="45.21713" lon="0.33228">
        <ele>157</ele>
        <time>2016-03-01T14:30:37Z</time>
      </trkpt>
      <trkpt lat="45.21709" lon="0.33227">
        <ele>156</ele>
        <time>2016-03-01T14:30:42Z</time>
      </trkpt>
      <trkpt lat="45.21705" lon="0.33223">
        <ele>158</ele>
        <time>2016-03-01T14:30:47Z</time>
      </trkpt>
      <trkpt lat="45.21701" lon="0.33222">
        <ele>159</ele>
        <time>2016-03-01T14:30:52Z</time>
      </trkpt>
      <trkpt lat="45.21697" lon="0.33219">
        <ele>159</ele>
        <time>2016-03-01T14:30:56Z</time>
      </trkpt>
      <trkpt lat="45.21693" lon="0.33221">
        <ele>159</ele>
        <time>2016-03-01T14:31:00Z</time>
      </trkpt>
      <trkpt lat="45.21688" lon="0.33222">
        <ele>157</ele>
        <time>2016-03-01T14:31:04Z</time>
      </trkpt>
      <trkpt lat="45.21681" lon="0.33224">
        <ele>158</ele>
        <time>2016-03-01T14:31:09Z</time>
      </trkpt>
      <trkpt lat="45.21677" lon="0.33227">
        <ele>157</ele>
        <time>2016-03-01T14:31:13Z</time>
      </trkpt>
      <trkpt lat="45.21673" lon="0.33229">
        <ele>159</ele>
        <time>2016-03-01T14:31:17Z</time>
      </trkpt>
      <trkpt lat="45.21669" lon="0.33232">
        <ele>159</ele>
        <time>2016-03-01T14:31:21Z</time>
      </trkpt>
      <trkpt lat="45.21665" lon="0.33244">
        <ele>159</ele>
        <time>2016-03-01T14:31:26Z</time>
      </trkpt>
      <trkpt lat="45.21662" lon="0.33239">
        <ele>160</ele>
        <time>2016-03-01T14:31:30Z</time>
      </trkpt>
      <trkpt lat="45.21657" lon="0.33241">
        <ele>161</ele>
        <time>2016-03-01T14:31:35Z</time>
      </trkpt>
      <trkpt lat="45.21654" lon="0.33245">
        <ele>159</ele>
        <time>2016-03-01T14:31:40Z</time>
      </trkpt>
      <trkpt lat="45.2165" lon="0.3325">
        <ele>158</ele>
        <time>2016-03-01T14:31:45Z</time>
      </trkpt>
      <trkpt lat="45.21647" lon="0.33254">
        <ele>156</ele>
        <time>2016-03-01T14:31:49Z</time>
      </trkpt>
      <trkpt lat="45.21645" lon="0.33258">
        <ele>157</ele>
        <time>2016-03-01T14:31:54Z</time>
      </trkpt>
      <trkpt lat="45.21641" lon="0.33261">
        <ele>156</ele>
        <time>2016-03-01T14:32:00Z</time>
      </trkpt>
      <trkpt lat="45.21637" lon="0.33264">
        <ele>156</ele>
        <time>2016-03-01T14:32:06Z</time>
      </trkpt>
      <trkpt lat="45.21634" lon="0.33268">
        <ele>157</ele>
        <time>2016-03-01T14:32:11Z</time>
      </trkpt>
      <trkpt lat="45.2163" lon="0.33271">
        <ele>158</ele>
        <time>2016-03-01T14:32:17Z</time>
      </trkpt>
      <trkpt lat="45.21627" lon="0.33274">
        <ele>159</ele>
        <time>2016-03-01T14:32:22Z</time>
      </trkpt>
      <trkpt lat="45.21623" lon="0.33279">
        <ele>163</ele>
        <time>2016-03-01T14:32:27Z</time>
      </trkpt>
      <trkpt lat="45.21619" lon="0.3328">
        <ele>163</ele>
        <time>2016-03-01T14:32:33Z</time>
      </trkpt>
      <trkpt lat="45.21615" lon="0.33282">
        <ele>165</ele>
        <time>2016-03-01T14:32:41Z</time>
      </trkpt>
      <trkpt lat="45.21611" lon="0.33284">
        <ele>163</ele>
        <time>2016-03-01T14:32:45Z</time>
      </trkpt>
      <trkpt lat="45.21607" lon="0.33287">
        <ele>163</ele>
        <time>2016-03-01T14:32:50Z</time>
      </trkpt>
      <trkpt lat="45.21604" lon="0.33291">
        <ele>163</ele>
        <time>2016-03-01T14:32:55Z</time>
      </trkpt>
      <trkpt lat="45.216" lon="0.33295">
        <ele>164</ele>
        <time>2016-03-01T14:33:00Z</time>
      </trkpt>
      <trkpt lat="45.21596" lon="0.33301">
        <ele>161</ele>
        <time>2016-03-01T14:33:04Z</time>
      </trkpt>
      <trkpt lat="45.21592" lon="0.33301">
        <ele>165</ele>
        <time>2016-03-01T14:33:09Z</time>
      </trkpt>
      <trkpt lat="45.21588" lon="0.33303">
        <ele>168</ele>
        <time>2016-03-01T14:33:15Z</time>
      </trkpt>
      <trkpt lat="45.21584" lon="0.33309">
        <ele>165</ele>
        <time>2016-03-01T14:33:19Z</time>
      </trkpt>
      <trkpt lat="45.21581" lon="0.33312">
        <ele>163</ele>
        <time>2016-03-01T14:33:24Z</time>
      </trkpt>
      <trkpt lat="45.21578" lon="0.33316">
        <ele>162</ele>
        <time>2016-03-01T14:33:29Z</time>
      </trkpt>
      <trkpt lat="45.21574" lon="0.3332">
        <ele>162</ele>
        <time>2016-03-01T14:33:34Z</time>
      </trkpt>
      <trkpt lat="45.21569" lon="0.33323">
        <ele>160</ele>
        <time>2016-03-01T14:33:39Z</time>
      </trkpt>
      <trkpt lat="45.21565" lon="0.33323">
        <ele>164</ele>
        <time>2016-03-01T14:33:46Z</time>
      </trkpt>
      <trkpt lat="45.21561" lon="0.33327">
        <ele>164</ele>
        <time>2016-03-01T14:34:04Z</time>
      </trkpt>
      <trkpt lat="45.21557" lon="0.33324">
        <ele>167</ele>
        <time>2016-03-01T14:35:12Z</time>
      </trkpt>
      <trkpt lat="45.21553" lon="0.33326">
        <ele>168</ele>
        <time>2016-03-01T14:35:16Z</time>
      </trkpt>
      <trkpt lat="45.21551" lon="0.3333">
        <ele>174</ele>
        <time>2016-03-01T14:35:24Z</time>
      </trkpt>
      <trkpt lat="45.21547" lon="0.33334">
        <ele>172</ele>
        <time>2016-03-01T14:35:28Z</time>
      </trkpt>
      <trkpt lat="45.21544" lon="0.33339">
        <ele>171</ele>
        <time>2016-03-01T14:35:32Z</time>
      </trkpt>
      <trkpt lat="45.21541" lon="0.33347">
        <ele>170</ele>
        <time>2016-03-01T14:35:37Z</time>
      </trkpt>
      <trkpt lat="45.2154" lon="0.33352">
        <ele>169</ele>
        <time>2016-03-01T14:35:41Z</time>
      </trkpt>
      <trkpt lat="45.21538" lon="0.3336">
        <ele>168</ele>
        <time>2016-03-01T14:35:46Z</time>
      </trkpt>
      <trkpt lat="45.21537" lon="0.33365">
        <ele>169</ele>
        <time>2016-03-01T14:35:51Z</time>
      </trkpt>
      <trkpt lat="45.21532" lon="0.33376">
        <ele>166</ele>
        <time>2016-03-01T14:35:56Z</time>
      </trkpt>
      <trkpt lat="45.2153" lon="0.33381">
        <ele>166</ele>
        <time>2016-03-01T14:36:00Z</time>
      </trkpt>
      <trkpt lat="45.21528" lon="0.33388">
        <ele>166</ele>
        <time>2016-03-01T14:36:04Z</time>
      </trkpt>
      <trkpt lat="45.21527" lon="0.33396">
        <ele>168</ele>
        <time>2016-03-01T14:36:09Z</time>
      </trkpt>
      <trkpt lat="45.21526" lon="0.33402">
        <ele>169</ele>
        <time>2016-03-01T14:36:13Z</time>
      </trkpt>
      <trkpt lat="45.21524" lon="0.33409">
        <ele>170</ele>
        <time>2016-03-01T14:36:18Z</time>
      </trkpt>
      <trkpt lat="45.21523" lon="0.33413">
        <ele>170</ele>
        <time>2016-03-01T14:36:22Z</time>
      </trkpt>
      <trkpt lat="45.21522" lon="0.33419">
        <ele>171</ele>
        <time>2016-03-01T14:36:27Z</time>
      </trkpt>
      <trkpt lat="45.21521" lon="0.33424">
        <ele>171</ele>
        <time>2016-03-01T14:36:31Z</time>
      </trkpt>
      <trkpt lat="45.2152" lon="0.33429">
        <ele>171</ele>
        <time>2016-03-01T14:36:35Z</time>
      </trkpt>
      <trkpt lat="45.2152" lon="0.3344">
        <ele>171</ele>
        <time>2016-03-01T14:36:39Z</time>
      </trkpt>
      <trkpt lat="45.21519" lon="0.33448">
        <ele>172</ele>
        <time>2016-03-01T14:36:43Z</time>
      </trkpt>
      <trkpt lat="45.21519" lon="0.33454">
        <ele>171</ele>
        <time>2016-03-01T14:36:47Z</time>
      </trkpt>
      <trkpt lat="45.21518" lon="0.33462">
        <ele>171</ele>
        <time>2016-03-01T14:36:52Z</time>
      </trkpt>
      <trkpt lat="45.21517" lon="0.33469">
        <ele>171</ele>
        <time>2016-03-01T14:36:56Z</time>
      </trkpt>
      <trkpt lat="45.21516" lon="0.33478">
        <ele>171</ele>
        <time>2016-03-01T14:37:01Z</time>
      </trkpt>
      <trkpt lat="45.21515" lon="0.33486">
        <ele>171</ele>
        <time>2016-03-01T14:37:06Z</time>
      </trkpt>
      <trkpt lat="45.21515" lon="0.33492">
        <ele>171</ele>
        <time>2016-03-01T14:37:10Z</time>
      </trkpt>
      <trkpt lat="45.21515" lon="0.33499">
        <ele>171</ele>
        <time>2016-03-01T14:37:14Z</time>
      </trkpt>
      <trkpt lat="45.21514" lon="0.33505">
        <ele>170</ele>
        <time>2016-03-01T14:37:18Z</time>
      </trkpt>
      <trkpt lat="45.21513" lon="0.33513">
        <ele>170</ele>
        <time>2016-03-01T14:37:22Z</time>
      </trkpt>
      <trkpt lat="45.21511" lon="0.33519">
        <ele>171</ele>
        <time>2016-03-01T14:37:26Z</time>
      </trkpt>
      <trkpt lat="45.2151" lon="0.33526">
        <ele>172</ele>
        <time>2016-03-01T14:37:30Z</time>
      </trkpt>
      <trkpt lat="45.21508" lon="0.33531">
        <ele>172</ele>
        <time>2016-03-01T14:37:35Z</time>
      </trkpt>
      <trkpt lat="45.21504" lon="0.3353">
        <ele>172</ele>
        <time>2016-03-01T14:37:43Z</time>
      </trkpt>
      <trkpt lat="45.215" lon="0.33528">
        <ele>173</ele>
        <time>2016-03-01T14:37:48Z</time>
      </trkpt>
      <trkpt lat="45.21496" lon="0.33525">
        <ele>173</ele>
        <time>2016-03-01T14:37:52Z</time>
      </trkpt>
      <trkpt lat="45.21491" lon="0.33523">
        <ele>173</ele>
        <time>2016-03-01T14:37:57Z</time>
      </trkpt>
      <trkpt lat="45.21488" lon="0.33519">
        <ele>174</ele>
        <time>2016-03-01T14:38:01Z</time>
      </trkpt>
      <trkpt lat="45.21483" lon="0.33515">
        <ele>173</ele>
        <time>2016-03-01T14:38:06Z</time>
      </trkpt>
      <trkpt lat="45.21481" lon="0.33511">
        <ele>175</ele>
        <time>2016-03-01T14:38:11Z</time>
      </trkpt>
      <trkpt lat="45.21478" lon="0.33506">
        <ele>176</ele>
        <time>2016-03-01T14:38:15Z</time>
      </trkpt>
      <trkpt lat="45.21475" lon="0.335">
        <ele>175</ele>
        <time>2016-03-01T14:38:20Z</time>
      </trkpt>
      <trkpt lat="45.21473" lon="0.33495">
        <ele>176</ele>
        <time>2016-03-01T14:38:25Z</time>
      </trkpt>
      <trkpt lat="45.21471" lon="0.33487">
        <ele>177</ele>
        <time>2016-03-01T14:38:30Z</time>
      </trkpt>
      <trkpt lat="45.21468" lon="0.33482">
        <ele>177</ele>
        <time>2016-03-01T14:38:34Z</time>
      </trkpt>
      <trkpt lat="45.21464" lon="0.33475">
        <ele>177</ele>
        <time>2016-03-01T14:38:39Z</time>
      </trkpt>
      <trkpt lat="45.21462" lon="0.3347">
        <ele>177</ele>
        <time>2016-03-01T14:38:43Z</time>
      </trkpt>
      <trkpt lat="45.21459" lon="0.33465">
        <ele>178</ele>
        <time>2016-03-01T14:38:47Z</time>
      </trkpt>
      <trkpt lat="45.21456" lon="0.3346">
        <ele>178</ele>
        <time>2016-03-01T14:38:51Z</time>
      </trkpt>
      <trkpt lat="45.21453" lon="0.33455">
        <ele>178</ele>
        <time>2016-03-01T14:38:55Z</time>
      </trkpt>
      <trkpt lat="45.21448" lon="0.33451">
        <ele>176</ele>
        <time>2016-03-01T14:38:59Z</time>
      </trkpt>
      <trkpt lat="45.21446" lon="0.33445">
        <ele>177</ele>
        <time>2016-03-01T14:39:04Z</time>
      </trkpt>
      <trkpt lat="45.21444" lon="0.33439">
        <ele>178</ele>
        <time>2016-03-01T14:39:08Z</time>
      </trkpt>
      <trkpt lat="45.21441" lon="0.33433">
        <ele>179</ele>
        <time>2016-03-01T14:39:13Z</time>
      </trkpt>
      <trkpt lat="45.21438" lon="0.33427">
        <ele>179</ele>
        <time>2016-03-01T14:39:17Z</time>
      </trkpt>
      <trkpt lat="45.21432" lon="0.33424">
        <ele>177</ele>
        <time>2016-03-01T14:39:21Z</time>
      </trkpt>
      <trkpt lat="45.21427" lon="0.33419">
        <ele>175</ele>
        <time>2016-03-01T14:39:25Z</time>
      </trkpt>
      <trkpt lat="45.21424" lon="0.33414">
        <ele>174</ele>
        <time>2016-03-01T14:39:29Z</time>
      </trkpt>
      <trkpt lat="45.21419" lon="0.33407">
        <ele>174</ele>
        <time>2016-03-01T14:39:34Z</time>
      </trkpt>
      <trkpt lat="45.21416" lon="0.33401">
        <ele>174</ele>
        <time>2016-03-01T14:39:38Z</time>
      </trkpt>
      <trkpt lat="45.21412" lon="0.33396">
        <ele>174</ele>
        <time>2016-03-01T14:39:43Z</time>
      </trkpt>
      <trkpt lat="45.21409" lon="0.33391">
        <ele>173</ele>
        <time>2016-03-01T14:39:47Z</time>
      </trkpt>
      <trkpt lat="45.21407" lon="0.33386">
        <ele>173</ele>
        <time>2016-03-01T14:39:51Z</time>
      </trkpt>
      <trkpt lat="45.21403" lon="0.3338">
        <ele>173</ele>
        <time>2016-03-01T14:39:56Z</time>
      </trkpt>
      <trkpt lat="45.214" lon="0.33373">
        <ele>172</ele>
        <time>2016-03-01T14:40:01Z</time>
      </trkpt>
      <trkpt lat="45.21397" lon="0.33368">
        <ele>172</ele>
        <time>2016-03-01T14:40:05Z</time>
      </trkpt>
      <trkpt lat="45.21392" lon="0.33362">
        <ele>171</ele>
        <time>2016-03-01T14:40:10Z</time>
      </trkpt>
      <trkpt lat="45.21389" lon="0.33357">
        <ele>170</ele>
        <time>2016-03-01T14:40:14Z</time>
      </trkpt>
      <trkpt lat="45.21387" lon="0.33352">
        <ele>170</ele>
        <time>2016-03-01T14:40:18Z</time>
      </trkpt>
      <trkpt lat="45.21387" lon="0.33347">
        <ele>169</ele>
        <time>2016-03-01T14:40:22Z</time>
      </trkpt>
      <trkpt lat="45.21385" lon="0.33341">
        <ele>168</ele>
        <time>2016-03-01T14:40:26Z</time>
      </trkpt>
      <trkpt lat="45.21382" lon="0.33334">
        <ele>166</ele>
        <time>2016-03-01T14:40:31Z</time>
      </trkpt>
      <trkpt lat="45.21379" lon="0.3333">
        <ele>166</ele>
        <time>2016-03-01T14:40:35Z</time>
      </trkpt>
      <trkpt lat="45.21375" lon="0.33324">
        <ele>167</ele>
        <time>2016-03-01T14:40:39Z</time>
      </trkpt>
      <trkpt lat="45.21371" lon="0.33319">
        <ele>167</ele>
        <time>2016-03-01T14:40:43Z</time>
      </trkpt>
      <trkpt lat="45.21362" lon="0.33316">
        <ele>165</ele>
        <time>2016-03-01T14:40:48Z</time>
      </trkpt>
      <trkpt lat="45.21358" lon="0.33314">
        <ele>169</ele>
        <time>2016-03-01T14:40:53Z</time>
      </trkpt>
      <trkpt lat="45.2135" lon="0.33313">
        <ele>166</ele>
        <time>2016-03-01T14:40:58Z</time>
      </trkpt>
      <trkpt lat="45.21346" lon="0.33312">
        <ele>168</ele>
        <time>2016-03-01T14:41:02Z</time>
      </trkpt>
      <trkpt lat="45.21339" lon="0.33308">
        <ele>167</ele>
        <time>2016-03-01T14:41:06Z</time>
      </trkpt>
      <trkpt lat="45.21333" lon="0.33304">
        <ele>168</ele>
        <time>2016-03-01T14:41:10Z</time>
      </trkpt>
      <trkpt lat="45.21328" lon="0.33305">
        <ele>170</ele>
        <time>2016-03-01T14:41:15Z</time>
      </trkpt>
      <trkpt lat="45.21324" lon="0.33305">
        <ele>171</ele>
        <time>2016-03-01T14:41:19Z</time>
      </trkpt>
      <trkpt lat="45.2132" lon="0.33307">
        <ele>171</ele>
        <time>2016-03-01T14:41:26Z</time>
      </trkpt>
      <trkpt lat="45.21315" lon="0.33308">
        <ele>173</ele>
        <time>2016-03-01T14:41:31Z</time>
      </trkpt>
      <trkpt lat="45.21309" lon="0.33307">
        <ele>175</ele>
        <time>2016-03-01T14:41:35Z</time>
      </trkpt>
      <trkpt lat="45.21303" lon="0.33307">
        <ele>176</ele>
        <time>2016-03-01T14:41:39Z</time>
      </trkpt>
      <trkpt lat="45.21299" lon="0.33309">
        <ele>177</ele>
        <time>2016-03-01T14:41:45Z</time>
      </trkpt>
      <trkpt lat="45.21293" lon="0.33317">
        <ele>171</ele>
        <time>2016-03-01T14:41:49Z</time>
      </trkpt>
      <trkpt lat="45.21288" lon="0.33319">
        <ele>169</ele>
        <time>2016-03-01T14:41:53Z</time>
      </trkpt>
      <trkpt lat="45.2128" lon="0.33323">
        <ele>166</ele>
        <time>2016-03-01T14:41:58Z</time>
      </trkpt>
      <trkpt lat="45.21273" lon="0.33323">
        <ele>167</ele>
        <time>2016-03-01T14:42:03Z</time>
      </trkpt>
      <trkpt lat="45.21268" lon="0.33326">
        <ele>165</ele>
        <time>2016-03-01T14:42:08Z</time>
      </trkpt>
      <trkpt lat="45.21263" lon="0.33326">
        <ele>164</ele>
        <time>2016-03-01T14:42:12Z</time>
      </trkpt>
      <trkpt lat="45.21258" lon="0.33327">
        <ele>162</ele>
        <time>2016-03-01T14:42:16Z</time>
      </trkpt>
      <trkpt lat="45.21252" lon="0.33331">
        <ele>159</ele>
        <time>2016-03-01T14:42:21Z</time>
      </trkpt>
      <trkpt lat="45.21248" lon="0.33332">
        <ele>156</ele>
        <time>2016-03-01T14:42:25Z</time>
      </trkpt>
      <trkpt lat="45.21244" lon="0.33333">
        <ele>155</ele>
        <time>2016-03-01T14:42:30Z</time>
      </trkpt>
      <trkpt lat="45.21238" lon="0.33332">
        <ele>154</ele>
        <time>2016-03-01T14:42:35Z</time>
      </trkpt>
      <trkpt lat="45.21233" lon="0.33332">
        <ele>152</ele>
        <time>2016-03-01T14:42:42Z</time>
      </trkpt>
      <trkpt lat="45.2123" lon="0.3333">
        <ele>149</ele>
        <time>2016-03-01T14:42:49Z</time>
      </trkpt>
      <trkpt lat="45.21226" lon="0.33327">
        <ele>149</ele>
        <time>2016-03-01T14:42:55Z</time>
      </trkpt>
      <trkpt lat="45.21222" lon="0.33322">
        <ele>150</ele>
        <time>2016-03-01T14:43:00Z</time>
      </trkpt>
      <trkpt lat="45.21219" lon="0.33318">
        <ele>151</ele>
        <time>2016-03-01T14:43:05Z</time>
      </trkpt>
      <trkpt lat="45.21218" lon="0.33312">
        <ele>154</ele>
        <time>2016-03-01T14:43:12Z</time>
      </trkpt>
      <trkpt lat="45.21215" lon="0.33308">
        <ele>156</ele>
        <time>2016-03-01T14:43:17Z</time>
      </trkpt>
      <trkpt lat="45.21211" lon="0.33303">
        <ele>158</ele>
        <time>2016-03-01T14:43:21Z</time>
      </trkpt>
      <trkpt lat="45.21208" lon="0.33298">
        <ele>157</ele>
        <time>2016-03-01T14:43:25Z</time>
      </trkpt>
      <trkpt lat="45.21208" lon="0.33291">
        <ele>159</ele>
        <time>2016-03-01T14:43:30Z</time>
      </trkpt>
      <trkpt lat="45.21205" lon="0.33286">
        <ele>160</ele>
        <time>2016-03-01T14:43:34Z</time>
      </trkpt>
      <trkpt lat="45.21203" lon="0.33278">
        <ele>159</ele>
        <time>2016-03-01T14:43:39Z</time>
      </trkpt>
      <trkpt lat="45.212" lon="0.33275">
        <ele>162</ele>
        <time>2016-03-01T14:43:47Z</time>
      </trkpt>
      <trkpt lat="45.21196" lon="0.33273">
        <ele>164</ele>
        <time>2016-03-01T14:43:51Z</time>
      </trkpt>
      <trkpt lat="45.21189" lon="0.33271">
        <ele>161</ele>
        <time>2016-03-01T14:43:56Z</time>
      </trkpt>
      <trkpt lat="45.2118" lon="0.33267">
        <ele>155</ele>
        <time>2016-03-01T14:44:00Z</time>
      </trkpt>
      <trkpt lat="45.21173" lon="0.33266">
        <ele>153</ele>
        <time>2016-03-01T14:44:04Z</time>
      </trkpt>
      <trkpt lat="45.21167" lon="0.33264">
        <ele>151</ele>
        <time>2016-03-01T14:44:08Z</time>
      </trkpt>
      <trkpt lat="45.2116" lon="0.33264">
        <ele>151</ele>
        <time>2016-03-01T14:44:13Z</time>
      </trkpt>
      <trkpt lat="45.21153" lon="0.33265">
        <ele>152</ele>
        <time>2016-03-01T14:44:18Z</time>
      </trkpt>
      <trkpt lat="45.21146" lon="0.33263">
        <ele>149</ele>
        <time>2016-03-01T14:44:22Z</time>
      </trkpt>
      <trkpt lat="45.21138" lon="0.33262">
        <ele>147</ele>
        <time>2016-03-01T14:44:27Z</time>
      </trkpt>
      <trkpt lat="45.21131" lon="0.3326">
        <ele>147</ele>
        <time>2016-03-01T14:44:32Z</time>
      </trkpt>
      <trkpt lat="45.21126" lon="0.33259">
        <ele>144</ele>
        <time>2016-03-01T14:44:36Z</time>
      </trkpt>
      <trkpt lat="45.21122" lon="0.3326">
        <ele>144</ele>
        <time>2016-03-01T14:44:40Z</time>
      </trkpt>
      <trkpt lat="45.21117" lon="0.3326">
        <ele>143</ele>
        <time>2016-03-01T14:44:45Z</time>
      </trkpt>
      <trkpt lat="45.21111" lon="0.33259">
        <ele>144</ele>
        <time>2016-03-01T14:44:49Z</time>
      </trkpt>
      <trkpt lat="45.21107" lon="0.33258">
        <ele>145</ele>
        <time>2016-03-01T14:44:53Z</time>
      </trkpt>
      <trkpt lat="45.21102" lon="0.33256">
        <ele>144</ele>
        <time>2016-03-01T14:44:57Z</time>
      </trkpt>
      <trkpt lat="45.21099" lon="0.33254">
        <ele>148</ele>
        <time>2016-03-01T14:45:05Z</time>
      </trkpt>
      <trkpt lat="45.21092" lon="0.33251">
        <ele>144</ele>
        <time>2016-03-01T14:45:10Z</time>
      </trkpt>
      <trkpt lat="45.21086" lon="0.3325">
        <ele>141</ele>
        <time>2016-03-01T14:45:14Z</time>
      </trkpt>
      <trkpt lat="45.2108" lon="0.33247">
        <ele>139</ele>
        <time>2016-03-01T14:45:18Z</time>
      </trkpt>
      <trkpt lat="45.21077" lon="0.33243">
        <ele>140</ele>
        <time>2016-03-01T14:45:23Z</time>
      </trkpt>
      <trkpt lat="45.21073" lon="0.33241">
        <ele>144</ele>
        <time>2016-03-01T14:45:29Z</time>
      </trkpt>
      <trkpt lat="45.21069" lon="0.33238">
        <ele>145</ele>
        <time>2016-03-01T14:45:33Z</time>
      </trkpt>
      <trkpt lat="45.21065" lon="0.33235">
        <ele>145</ele>
        <time>2016-03-01T14:45:37Z</time>
      </trkpt>
      <trkpt lat="45.21063" lon="0.33227">
        <ele>145</ele>
        <time>2016-03-01T14:45:41Z</time>
      </trkpt>
      <trkpt lat="45.2106" lon="0.33222">
        <ele>146</ele>
        <time>2016-03-01T14:45:46Z</time>
      </trkpt>
      <trkpt lat="45.21058" lon="0.33218">
        <ele>149</ele>
        <time>2016-03-01T14:45:51Z</time>
      </trkpt>
      <trkpt lat="45.21054" lon="0.33212">
        <ele>147</ele>
        <time>2016-03-01T14:45:56Z</time>
      </trkpt>
      <trkpt lat="45.21051" lon="0.33206">
        <ele>147</ele>
        <time>2016-03-01T14:46:03Z</time>
      </trkpt>
      <trkpt lat="45.21048" lon="0.33202">
        <ele>149</ele>
        <time>2016-03-01T14:46:07Z</time>
      </trkpt>
      <trkpt lat="45.21048" lon="0.33195">
        <ele>146</ele>
        <time>2016-03-01T14:46:11Z</time>
      </trkpt>
      <trkpt lat="45.21045" lon="0.3319">
        <ele>146</ele>
        <time>2016-03-01T14:46:15Z</time>
      </trkpt>
      <trkpt lat="45.21044" lon="0.33184">
        <ele>145</ele>
        <time>2016-03-01T14:46:19Z</time>
      </trkpt>
      <trkpt lat="45.21042" lon="0.33176">
        <ele>145</ele>
        <time>2016-03-01T14:46:24Z</time>
      </trkpt>
      <trkpt lat="45.21041" lon="0.33171">
        <ele>145</ele>
        <time>2016-03-01T14:46:29Z</time>
      </trkpt>
      <trkpt lat="45.21037" lon="0.33164">
        <ele>146</ele>
        <time>2016-03-01T14:46:33Z</time>
      </trkpt>
      <trkpt lat="45.21035" lon="0.33155">
        <ele>147</ele>
        <time>2016-03-01T14:46:38Z</time>
      </trkpt>
      <trkpt lat="45.21031" lon="0.33149">
        <ele>151</ele>
        <time>2016-03-01T14:46:42Z</time>
      </trkpt>
      <trkpt lat="45.2103" lon="0.33143">
        <ele>151</ele>
        <time>2016-03-01T14:46:46Z</time>
      </trkpt>
      <trkpt lat="45.21031" lon="0.33136">
        <ele>153</ele>
        <time>2016-03-01T14:46:50Z</time>
      </trkpt>
      <trkpt lat="45.21031" lon="0.33132">
        <ele>151</ele>
        <time>2016-03-01T14:46:54Z</time>
      </trkpt>
      <trkpt lat="45.21027" lon="0.33124">
        <ele>148</ele>
        <time>2016-03-01T14:46:58Z</time>
      </trkpt>
      <trkpt lat="45.2102" lon="0.3312">
        <ele>149</ele>
        <time>2016-03-01T14:47:02Z</time>
      </trkpt>
      <trkpt lat="45.2102" lon="0.33111">
        <ele>146</ele>
        <time>2016-03-01T14:47:06Z</time>
      </trkpt>
      <trkpt lat="45.2102" lon="0.33105">
        <ele>146</ele>
        <time>2016-03-01T14:47:10Z</time>
      </trkpt>
      <trkpt lat="45.2102" lon="0.33097">
        <ele>146</ele>
        <time>2016-03-01T14:47:15Z</time>
      </trkpt>
      <trkpt lat="45.21017" lon="0.3309">
        <ele>145</ele>
        <time>2016-03-01T14:47:19Z</time>
      </trkpt>
      <trkpt lat="45.21016" lon="0.33083">
        <ele>145</ele>
        <time>2016-03-01T14:47:23Z</time>
      </trkpt>
      <trkpt lat="45.21014" lon="0.33076">
        <ele>143</ele>
        <time>2016-03-01T14:47:28Z</time>
      </trkpt>
      <trkpt lat="45.21011" lon="0.33069">
        <ele>142</ele>
        <time>2016-03-01T14:47:32Z</time>
      </trkpt>
      <trkpt lat="45.2101" lon="0.33063">
        <ele>144</ele>
        <time>2016-03-01T14:47:36Z</time>
      </trkpt>
      <trkpt lat="45.21011" lon="0.33058">
        <ele>143</ele>
        <time>2016-03-01T14:47:41Z</time>
      </trkpt>
      <trkpt lat="45.21011" lon="0.33051">
        <ele>139</ele>
        <time>2016-03-01T14:47:45Z</time>
      </trkpt>
      <trkpt lat="45.21011" lon="0.33046">
        <ele>139</ele>
        <time>2016-03-01T14:47:49Z</time>
      </trkpt>
      <trkpt lat="45.21009" lon="0.33039">
        <ele>139</ele>
        <time>2016-03-01T14:47:53Z</time>
      </trkpt>
      <trkpt lat="45.21006" lon="0.33034">
        <ele>137</ele>
        <time>2016-03-01T14:47:57Z</time>
      </trkpt>
      <trkpt lat="45.21005" lon="0.33029">
        <ele>135</ele>
        <time>2016-03-01T14:48:01Z</time>
      </trkpt>
      <trkpt lat="45.21006" lon="0.33022">
        <ele>133</ele>
        <time>2016-03-01T14:48:05Z</time>
      </trkpt>
      <trkpt lat="45.21003" lon="0.33017">
        <ele>132</ele>
        <time>2016-03-01T14:48:10Z</time>
      </trkpt>
      <trkpt lat="45.21002" lon="0.33011">
        <ele>130</ele>
        <time>2016-03-01T14:48:15Z</time>
      </trkpt>
      <trkpt lat="45.21002" lon="0.33005">
        <ele>130</ele>
        <time>2016-03-01T14:48:20Z</time>
      </trkpt>
      <trkpt lat="45.21001" lon="0.33001">
        <ele>127</ele>
        <time>2016-03-01T14:48:25Z</time>
      </trkpt>
      <trkpt lat="45.21" lon="0.32995">
        <ele>128</ele>
        <time>2016-03-01T14:48:29Z</time>
      </trkpt>
      <trkpt lat="45.20998" lon="0.32989">
        <ele>127</ele>
        <time>2016-03-01T14:48:34Z</time>
      </trkpt>
      <trkpt lat="45.20997" lon="0.32983">
        <ele>125</ele>
        <time>2016-03-01T14:48:39Z</time>
      </trkpt>
      <trkpt lat="45.20997" lon="0.32977">
        <ele>123</ele>
        <time>2016-03-01T14:48:44Z</time>
      </trkpt>
      <trkpt lat="45.20996" lon="0.32971">
        <ele>124</ele>
        <time>2016-03-01T14:48:49Z</time>
      </trkpt>
      <trkpt lat="45.20996" lon="0.32965">
        <ele>127</ele>
        <time>2016-03-01T14:48:54Z</time>
      </trkpt>
      <trkpt lat="45.20993" lon="0.3296">
        <ele>126</ele>
        <time>2016-03-01T14:48:58Z</time>
      </trkpt>
      <trkpt lat="45.20991" lon="0.32953">
        <ele>126</ele>
        <time>2016-03-01T14:49:03Z</time>
      </trkpt>
      <trkpt lat="45.20988" lon="0.32948">
        <ele>125</ele>
        <time>2016-03-01T14:49:07Z</time>
      </trkpt>
      <trkpt lat="45.20983" lon="0.32943">
        <ele>122</ele>
        <time>2016-03-01T14:49:12Z</time>
      </trkpt>
      <trkpt lat="45.2098" lon="0.32938">
        <ele>123</ele>
        <time>2016-03-01T14:49:16Z</time>
      </trkpt>
      <trkpt lat="45.20976" lon="0.32935">
        <ele>123</ele>
        <time>2016-03-01T14:49:21Z</time>
      </trkpt>
      <trkpt lat="45.20974" lon="0.3293">
        <ele>123</ele>
        <time>2016-03-01T14:49:25Z</time>
      </trkpt>
      <trkpt lat="45.20972" lon="0.32926">
        <ele>124</ele>
        <time>2016-03-01T14:49:30Z</time>
      </trkpt>
      <trkpt lat="45.20971" lon="0.3292">
        <ele>125</ele>
        <time>2016-03-01T14:49:37Z</time>
      </trkpt>
      <trkpt lat="45.20971" lon="0.32914">
        <ele>125</ele>
        <time>2016-03-01T14:49:44Z</time>
      </trkpt>
      <trkpt lat="45.20971" lon="0.32909">
        <ele>124</ele>
        <time>2016-03-01T14:49:48Z</time>
      </trkpt>
      <trkpt lat="45.20972" lon="0.32902">
        <ele>124</ele>
        <time>2016-03-01T14:49:53Z</time>
      </trkpt>
      <trkpt lat="45.20974" lon="0.32896">
        <ele>126</ele>
        <time>2016-03-01T14:49:58Z</time>
      </trkpt>
      <trkpt lat="45.20975" lon="0.32889">
        <ele>127</ele>
        <time>2016-03-01T14:50:02Z</time>
      </trkpt>
      <trkpt lat="45.20977" lon="0.32883">
        <ele>127</ele>
        <time>2016-03-01T14:50:06Z</time>
      </trkpt>
      <trkpt lat="45.20979" lon="0.32878">
        <ele>126</ele>
        <time>2016-03-01T14:50:10Z</time>
      </trkpt>
      <trkpt lat="45.20982" lon="0.32872">
        <ele>125</ele>
        <time>2016-03-01T14:50:14Z</time>
      </trkpt>
      <trkpt lat="45.20983" lon="0.32866">
        <ele>124</ele>
        <time>2016-03-01T14:50:18Z</time>
      </trkpt>
      <trkpt lat="45.20984" lon="0.3286">
        <ele>125</ele>
        <time>2016-03-01T14:50:22Z</time>
      </trkpt>
      <trkpt lat="45.20985" lon="0.32854">
        <ele>126</ele>
        <time>2016-03-01T14:50:27Z</time>
      </trkpt>
      <trkpt lat="45.20986" lon="0.32849">
        <ele>124</ele>
        <time>2016-03-01T14:50:31Z</time>
      </trkpt>
      <trkpt lat="45.20987" lon="0.32841">
        <ele>123</ele>
        <time>2016-03-01T14:50:36Z</time>
      </trkpt>
      <trkpt lat="45.20989" lon="0.32836">
        <ele>121</ele>
        <time>2016-03-01T14:50:40Z</time>
      </trkpt>
      <trkpt lat="45.20991" lon="0.3283">
        <ele>121</ele>
        <time>2016-03-01T14:50:44Z</time>
      </trkpt>
      <trkpt lat="45.20994" lon="0.32824">
        <ele>121</ele>
        <time>2016-03-01T14:50:49Z</time>
      </trkpt>
      <trkpt lat="45.20996" lon="0.32818">
        <ele>120</ele>
        <time>2016-03-01T14:50:53Z</time>
      </trkpt>
      <trkpt lat="45.20999" lon="0.32813">
        <ele>122</ele>
        <time>2016-03-01T14:50:58Z</time>
      </trkpt>
      <trkpt lat="45.21002" lon="0.32807">
        <ele>121</ele>
        <time>2016-03-01T14:51:02Z</time>
      </trkpt>
      <trkpt lat="45.21004" lon="0.32802">
        <ele>121</ele>
        <time>2016-03-01T14:51:06Z</time>
      </trkpt>
      <trkpt lat="45.21006" lon="0.32798">
        <ele>121</ele>
        <time>2016-03-01T14:51:10Z</time>
      </trkpt>
      <trkpt lat="45.21009" lon="0.32794">
        <ele>122</ele>
        <time>2016-03-01T14:51:14Z</time>
      </trkpt>
      <trkpt lat="45.21012" lon="0.32788">
        <ele>123</ele>
        <time>2016-03-01T14:51:19Z</time>
      </trkpt>
      <trkpt lat="45.21014" lon="0.3278">
        <ele>123</ele>
        <time>2016-03-01T14:51:24Z</time>
      </trkpt>
      <trkpt lat="45.21017" lon="0.32775">
        <ele>122</ele>
        <time>2016-03-01T14:51:28Z</time>
      </trkpt>
      <trkpt lat="45.2102" lon="0.32768">
        <ele>121</ele>
        <time>2016-03-01T14:51:33Z</time>
      </trkpt>
      <trkpt lat="45.21023" lon="0.32763">
        <ele>121</ele>
        <time>2016-03-01T14:51:38Z</time>
      </trkpt>
      <trkpt lat="45.21025" lon="0.32759">
        <ele>119</ele>
        <time>2016-03-01T14:51:42Z</time>
      </trkpt>
      <trkpt lat="45.21028" lon="0.32755">
        <ele>120</ele>
        <time>2016-03-01T14:51:46Z</time>
      </trkpt>
      <trkpt lat="45.2103" lon="0.3275">
        <ele>121</ele>
        <time>2016-03-01T14:51:50Z</time>
      </trkpt>
      <trkpt lat="45.21032" lon="0.32742">
        <ele>119</ele>
        <time>2016-03-01T14:51:55Z</time>
      </trkpt>
      <trkpt lat="45.21034" lon="0.32737">
        <ele>119</ele>
        <time>2016-03-01T14:51:59Z</time>
      </trkpt>
      <trkpt lat="45.21036" lon="0.32731">
        <ele>121</ele>
        <time>2016-03-01T14:52:03Z</time>
      </trkpt>
      <trkpt lat="45.21038" lon="0.32726">
        <ele>122</ele>
        <time>2016-03-01T14:52:07Z</time>
      </trkpt>
      <trkpt lat="45.21041" lon="0.3272">
        <ele>122</ele>
        <time>2016-03-01T14:52:12Z</time>
      </trkpt>
      <trkpt lat="45.21043" lon="0.32715">
        <ele>123</ele>
        <time>2016-03-01T14:52:16Z</time>
      </trkpt>
      <trkpt lat="45.21046" lon="0.32712">
        <ele>121</ele>
        <time>2016-03-01T14:52:20Z</time>
      </trkpt>
      <trkpt lat="45.2105" lon="0.32708">
        <ele>120</ele>
        <time>2016-03-01T14:52:24Z</time>
      </trkpt>
      <trkpt lat="45.21052" lon="0.32704">
        <ele>122</ele>
        <time>2016-03-01T14:52:29Z</time>
      </trkpt>
      <trkpt lat="45.21056" lon="0.32703">
        <ele>122</ele>
        <time>2016-03-01T14:52:37Z</time>
      </trkpt>
      <trkpt lat="45.2106" lon="0.32703">
        <ele>118</ele>
        <time>2016-03-01T14:52:53Z</time>
      </trkpt>
      <trkpt lat="45.21064" lon="0.32702">
        <ele>116</ele>
        <time>2016-03-01T14:53:01Z</time>
      </trkpt>
      <trkpt lat="45.21068" lon="0.32703">
        <ele>118</ele>
        <time>2016-03-01T14:53:45Z</time>
      </trkpt>
      <trkpt lat="45.21072" lon="0.32705">
        <ele>121</ele>
        <time>2016-03-01T14:55:31Z</time>
      </trkpt>
      <trkpt lat="45.21076" lon="0.32707">
        <ele>122</ele>
        <time>2016-03-01T14:55:37Z</time>
      </trkpt>
      <trkpt lat="45.2108" lon="0.32708">
        <ele>124</ele>
        <time>2016-03-01T14:55:43Z</time>
      </trkpt>
      <trkpt lat="45.21084" lon="0.32708">
        <ele>123</ele>
        <time>2016-03-01T14:55:50Z</time>
      </trkpt>
      <trkpt lat="45.21088" lon="0.32708">
        <ele>122</ele>
        <time>2016-03-01T14:55:54Z</time>
      </trkpt>
      <trkpt lat="45.21092" lon="0.32707">
        <ele>122</ele>
        <time>2016-03-01T14:56:00Z</time>
      </trkpt>
      <trkpt lat="45.21096" lon="0.32707">
        <ele>123</ele>
        <time>2016-03-01T14:56:06Z</time>
      </trkpt>
      <trkpt lat="45.211" lon="0.32708">
        <ele>121</ele>
        <time>2016-03-01T14:56:10Z</time>
      </trkpt>
      <trkpt lat="45.21103" lon="0.3271">
        <ele>120</ele>
        <time>2016-03-01T14:56:15Z</time>
      </trkpt>
      <trkpt lat="45.21107" lon="0.32713">
        <ele>120</ele>
        <time>2016-03-01T14:56:20Z</time>
      </trkpt>
      <trkpt lat="45.21106" lon="0.32719">
        <ele>123</ele>
        <time>2016-03-01T14:56:25Z</time>
      </trkpt>
      <trkpt lat="45.2111" lon="0.32723">
        <ele>122</ele>
        <time>2016-03-01T14:56:30Z</time>
      </trkpt>
      <trkpt lat="45.21113" lon="0.32727">
        <ele>124</ele>
        <time>2016-03-01T14:56:35Z</time>
      </trkpt>
      <trkpt lat="45.21115" lon="0.32735">
        <ele>127</ele>
        <time>2016-03-01T14:56:40Z</time>
      </trkpt>
      <trkpt lat="45.21117" lon="0.32742">
        <ele>127</ele>
        <time>2016-03-01T14:56:45Z</time>
      </trkpt>
      <trkpt lat="45.21118" lon="0.32748">
        <ele>128</ele>
        <time>2016-03-01T14:56:49Z</time>
      </trkpt>
      <trkpt lat="45.2112" lon="0.32753">
        <ele>128</ele>
        <time>2016-03-01T14:56:53Z</time>
      </trkpt>
      <trkpt lat="45.21123" lon="0.32757">
        <ele>128</ele>
        <time>2016-03-01T14:56:57Z</time>
      </trkpt>
      <trkpt lat="45.21125" lon="0.32763">
        <ele>127</ele>
        <time>2016-03-01T14:57:01Z</time>
      </trkpt>
      <trkpt lat="45.21128" lon="0.3277">
        <ele>127</ele>
        <time>2016-03-01T14:57:06Z</time>
      </trkpt>
      <trkpt lat="45.2113" lon="0.32775">
        <ele>127</ele>
        <time>2016-03-01T14:57:10Z</time>
      </trkpt>
      <trkpt lat="45.21132" lon="0.32782">
        <ele>128</ele>
        <time>2016-03-01T14:57:15Z</time>
      </trkpt>
      <trkpt lat="45.21133" lon="0.32788">
        <ele>130</ele>
        <time>2016-03-01T14:57:20Z</time>
      </trkpt>
      <trkpt lat="45.21135" lon="0.32794">
        <ele>130</ele>
        <time>2016-03-01T14:57:25Z</time>
      </trkpt>
      <trkpt lat="45.21138" lon="0.32799">
        <ele>130</ele>
        <time>2016-03-01T14:57:29Z</time>
      </trkpt>
      <trkpt lat="45.21141" lon="0.32805">
        <ele>131</ele>
        <time>2016-03-01T14:57:34Z</time>
      </trkpt>
      <trkpt lat="45.21142" lon="0.32809">
        <ele>130</ele>
        <time>2016-03-01T14:57:38Z</time>
      </trkpt>
      <trkpt lat="45.21145" lon="0.32815">
        <ele>131</ele>
        <time>2016-03-01T14:57:42Z</time>
      </trkpt>
      <trkpt lat="45.21148" lon="0.32821">
        <ele>132</ele>
        <time>2016-03-01T14:57:47Z</time>
      </trkpt>
      <trkpt lat="45.2115" lon="0.32827">
        <ele>132</ele>
        <time>2016-03-01T14:57:51Z</time>
      </trkpt>
      <trkpt lat="45.21153" lon="0.32832">
        <ele>133</ele>
        <time>2016-03-01T14:57:56Z</time>
      </trkpt>
      <trkpt lat="45.21156" lon="0.32836">
        <ele>134</ele>
        <time>2016-03-01T14:58:00Z</time>
      </trkpt>
      <trkpt lat="45.2116" lon="0.32841">
        <ele>134</ele>
        <time>2016-03-01T14:58:04Z</time>
      </trkpt>
      <trkpt lat="45.21164" lon="0.32847">
        <ele>132</ele>
        <time>2016-03-01T14:58:09Z</time>
      </trkpt>
      <trkpt lat="45.21166" lon="0.32852">
        <ele>132</ele>
        <time>2016-03-01T14:58:13Z</time>
      </trkpt>
      <trkpt lat="45.21169" lon="0.32857">
        <ele>133</ele>
        <time>2016-03-01T14:58:18Z</time>
      </trkpt>
      <trkpt lat="45.21171" lon="0.32863">
        <ele>134</ele>
        <time>2016-03-01T14:58:22Z</time>
      </trkpt>
      <trkpt lat="45.21174" lon="0.32868">
        <ele>135</ele>
        <time>2016-03-01T14:58:27Z</time>
      </trkpt>
      <trkpt lat="45.21178" lon="0.32871">
        <ele>135</ele>
        <time>2016-03-01T14:58:31Z</time>
      </trkpt>
      <trkpt lat="45.21183" lon="0.32876">
        <ele>134</ele>
        <time>2016-03-01T14:58:36Z</time>
      </trkpt>
      <trkpt lat="45.21186" lon="0.3288">
        <ele>135</ele>
        <time>2016-03-01T14:58:41Z</time>
      </trkpt>
      <trkpt lat="45.21189" lon="0.32887">
        <ele>136</ele>
        <time>2016-03-01T14:58:46Z</time>
      </trkpt>
      <trkpt lat="45.2119" lon="0.32892">
        <ele>137</ele>
        <time>2016-03-01T14:58:50Z</time>
      </trkpt>
      <trkpt lat="45.21193" lon="0.32897">
        <ele>136</ele>
        <time>2016-03-01T14:58:55Z</time>
      </trkpt>
      <trkpt lat="45.21195" lon="0.32902">
        <ele>137</ele>
        <time>2016-03-01T14:58:59Z</time>
      </trkpt>
      <trkpt lat="45.21198" lon="0.32906">
        <ele>137</ele>
        <time>2016-03-01T14:59:03Z</time>
      </trkpt>
      <trkpt lat="45.212" lon="0.32911">
        <ele>136</ele>
        <time>2016-03-01T14:59:08Z</time>
      </trkpt>
      <trkpt lat="45.21205" lon="0.32918">
        <ele>135</ele>
        <time>2016-03-01T14:59:13Z</time>
      </trkpt>
      <trkpt lat="45.21209" lon="0.3292">
        <ele>138</ele>
        <time>2016-03-01T14:59:21Z</time>
      </trkpt>
      <trkpt lat="45.21212" lon="0.32924">
        <ele>141</ele>
        <time>2016-03-01T14:59:25Z</time>
      </trkpt>
      <trkpt lat="45.21217" lon="0.32929">
        <ele>141</ele>
        <time>2016-03-01T14:59:30Z</time>
      </trkpt>
      <trkpt lat="45.21221" lon="0.32932">
        <ele>142</ele>
        <time>2016-03-01T14:59:34Z</time>
      </trkpt>
      <trkpt lat="45.21226" lon="0.32934">
        <ele>141</ele>
        <time>2016-03-01T14:59:38Z</time>
      </trkpt>
      <trkpt lat="45.2123" lon="0.32937">
        <ele>142</ele>
        <time>2016-03-01T14:59:42Z</time>
      </trkpt>
      <trkpt lat="45.21235" lon="0.32941">
        <ele>142</ele>
        <time>2016-03-01T14:59:46Z</time>
      </trkpt>
      <trkpt lat="45.21239" lon="0.32943">
        <ele>143</ele>
        <time>2016-03-01T14:59:51Z</time>
      </trkpt>
      <trkpt lat="45.21243" lon="0.32947">
        <ele>143</ele>
        <time>2016-03-01T14:59:55Z</time>
      </trkpt>
      <trkpt lat="45.21246" lon="0.32949">
        <ele>147</ele>
        <time>2016-03-01T15:00:00Z</time>
      </trkpt>
      <trkpt lat="45.21251" lon="0.32955">
        <ele>146</ele>
        <time>2016-03-01T15:00:05Z</time>
      </trkpt>
      <trkpt lat="45.21256" lon="0.32957">
        <ele>145</ele>
        <time>2016-03-01T15:00:09Z</time>
      </trkpt>
      <trkpt lat="45.2126" lon="0.3296">
        <ele>146</ele>
        <time>2016-03-01T15:00:13Z</time>
      </trkpt>
      <trkpt lat="45.21262" lon="0.32964">
        <ele>147</ele>
        <time>2016-03-01T15:00:17Z</time>
      </trkpt>
      <trkpt lat="45.21266" lon="0.32968">
        <ele>146</ele>
        <time>2016-03-01T15:00:21Z</time>
      </trkpt>
      <trkpt lat="45.21271" lon="0.32971">
        <ele>145</ele>
        <time>2016-03-01T15:00:26Z</time>
      </trkpt>
      <trkpt lat="45.21275" lon="0.32975">
        <ele>145</ele>
        <time>2016-03-01T15:00:30Z</time>
      </trkpt>
      <trkpt lat="45.21279" lon="0.32976">
        <ele>143</ele>
        <time>2016-03-01T15:00:34Z</time>
      </trkpt>
      <trkpt lat="45.21282" lon="0.32977">
        <ele>143</ele>
        <time>2016-03-01T15:00:38Z</time>
      </trkpt>
      <trkpt lat="45.21289" lon="0.32979">
        <ele>140</ele>
        <time>2016-03-01T15:00:42Z</time>
      </trkpt>
      <trkpt lat="45.21294" lon="0.32976">
        <ele>141</ele>
        <time>2016-03-01T15:00:46Z</time>
      </trkpt>
      <trkpt lat="45.213" lon="0.32975">
        <ele>139</ele>
        <time>2016-03-01T15:00:50Z</time>
      </trkpt>
      <trkpt lat="45.21305" lon="0.32973">
        <ele>137</ele>
        <time>2016-03-01T15:00:54Z</time>
      </trkpt>
      <trkpt lat="45.21312" lon="0.3297">
        <ele>138</ele>
        <time>2016-03-01T15:00:59Z</time>
      </trkpt>
      <trkpt lat="45.21317" lon="0.32968">
        <ele>136</ele>
        <time>2016-03-01T15:01:03Z</time>
      </trkpt>
      <trkpt lat="45.21321" lon="0.32963">
        <ele>135</ele>
        <time>2016-03-01T15:01:07Z</time>
      </trkpt>
      <trkpt lat="45.21325" lon="0.32958">
        <ele>134</ele>
        <time>2016-03-01T15:01:11Z</time>
      </trkpt>
      <trkpt lat="45.2133" lon="0.32952">
        <ele>134</ele>
        <time>2016-03-01T15:01:15Z</time>
      </trkpt>
      <trkpt lat="45.21334" lon="0.32942">
        <ele>133</ele>
        <time>2016-03-01T15:01:20Z</time>
      </trkpt>
      <trkpt lat="45.21336" lon="0.32935">
        <ele>137</ele>
        <time>2016-03-01T15:01:25Z</time>
      </trkpt>
      <trkpt lat="45.21337" lon="0.3293">
        <ele>138</ele>
        <time>2016-03-01T15:01:29Z</time>
      </trkpt>
      <trkpt lat="45.21341" lon="0.32921">
        <ele>135</ele>
        <time>2016-03-01T15:01:34Z</time>
      </trkpt>
      <trkpt lat="45.21345" lon="0.32914">
        <ele>135</ele>
        <time>2016-03-01T15:01:39Z</time>
      </trkpt>
      <trkpt lat="45.21345" lon="0.32909">
        <ele>135</ele>
        <time>2016-03-01T15:01:43Z</time>
      </trkpt>
      <trkpt lat="45.21348" lon="0.32902">
        <ele>137</ele>
        <time>2016-03-01T15:01:47Z</time>
      </trkpt>
      <trkpt lat="45.21352" lon="0.32896">
        <ele>137</ele>
        <time>2016-03-01T15:01:51Z</time>
      </trkpt>
      <trkpt lat="45.21353" lon="0.32891">
        <ele>140</ele>
        <time>2016-03-01T15:01:55Z</time>
      </trkpt>
      <trkpt lat="45.21355" lon="0.32881">
        <ele>137</ele>
        <time>2016-03-01T15:01:59Z</time>
      </trkpt>
      <trkpt lat="45.21357" lon="0.32874">
        <ele>137</ele>
        <time>2016-03-01T15:02:03Z</time>
      </trkpt>
      <trkpt lat="45.21359" lon="0.32869">
        <ele>139</ele>
        <time>2016-03-01T15:02:07Z</time>
      </trkpt>
      <trkpt lat="45.2136" lon="0.32864">
        <ele>140</ele>
        <time>2016-03-01T15:02:12Z</time>
      </trkpt>
      <trkpt lat="45.21364" lon="0.32859">
        <ele>141</ele>
        <time>2016-03-01T15:02:17Z</time>
      </trkpt>
      <trkpt lat="45.21366" lon="0.32854">
        <ele>144</ele>
        <time>2016-03-01T15:02:22Z</time>
      </trkpt>
      <trkpt lat="45.21369" lon="0.32849">
        <ele>144</ele>
        <time>2016-03-01T15:02:26Z</time>
      </trkpt>
      <trkpt lat="45.21371" lon="0.32844">
        <ele>144</ele>
        <time>2016-03-01T15:02:30Z</time>
      </trkpt>
      <trkpt lat="45.21372" lon="0.32839">
        <ele>144</ele>
        <time>2016-03-01T15:02:35Z</time>
      </trkpt>
      <trkpt lat="45.21375" lon="0.32832">
        <ele>144</ele>
        <time>2016-03-01T15:02:40Z</time>
      </trkpt>
      <trkpt lat="45.21376" lon="0.32825">
        <ele>145</ele>
        <time>2016-03-01T15:02:45Z</time>
      </trkpt>
      <trkpt lat="45.21378" lon="0.32819">
        <ele>145</ele>
        <time>2016-03-01T15:02:49Z</time>
      </trkpt>
      <trkpt lat="45.21381" lon="0.32814">
        <ele>145</ele>
        <time>2016-03-01T15:02:53Z</time>
      </trkpt>
      <trkpt lat="45.21383" lon="0.32808">
        <ele>144</ele>
        <time>2016-03-01T15:02:58Z</time>
      </trkpt>
      <trkpt lat="45.21385" lon="0.32803">
        <ele>145</ele>
        <time>2016-03-01T15:03:02Z</time>
      </trkpt>
      <trkpt lat="45.21389" lon="0.32797">
        <ele>143</ele>
        <time>2016-03-01T15:03:06Z</time>
      </trkpt>
      <trkpt lat="45.21391" lon="0.32792">
        <ele>144</ele>
        <time>2016-03-01T15:03:10Z</time>
      </trkpt>
      <trkpt lat="45.21394" lon="0.32787">
        <ele>144</ele>
        <time>2016-03-01T15:03:15Z</time>
      </trkpt>
      <trkpt lat="45.21397" lon="0.32783">
        <ele>145</ele>
        <time>2016-03-01T15:03:23Z</time>
      </trkpt>
      <trkpt lat="45.21401" lon="0.3278">
        <ele>146</ele>
        <time>2016-03-01T15:03:41Z</time>
      </trkpt>
      <trkpt lat="45.21404" lon="0.32777">
        <ele>145</ele>
        <time>2016-03-01T15:04:09Z</time>
      </trkpt>
      <trkpt lat="45.21409" lon="0.32776">
        <ele>147</ele>
        <time>2016-03-01T15:04:14Z</time>
      </trkpt>
      <trkpt lat="45.21412" lon="0.32772">
        <ele>149</ele>
        <time>2016-03-01T15:04:19Z</time>
      </trkpt>
      <trkpt lat="45.21413" lon="0.32767">
        <ele>150</ele>
        <time>2016-03-01T15:04:23Z</time>
      </trkpt>
      <trkpt lat="45.21414" lon="0.32761">
        <ele>153</ele>
        <time>2016-03-01T15:04:28Z</time>
      </trkpt>
      <trkpt lat="45.21415" lon="0.32756">
        <ele>154</ele>
        <time>2016-03-01T15:04:35Z</time>
      </trkpt>
      <trkpt lat="45.21416" lon="0.32751">
        <ele>151</ele>
        <time>2016-03-01T15:04:48Z</time>
      </trkpt>
      <trkpt lat="45.21418" lon="0.32746">
        <ele>149</ele>
        <time>2016-03-01T15:04:57Z</time>
      </trkpt>
      <trkpt lat="45.2142" lon="0.3274">
        <ele>149</ele>
        <time>2016-03-01T15:05:03Z</time>
      </trkpt>
      <trkpt lat="45.21422" lon="0.32735">
        <ele>150</ele>
        <time>2016-03-01T15:05:07Z</time>
      </trkpt>
      <trkpt lat="45.21425" lon="0.32731">
        <ele>153</ele>
        <time>2016-03-01T15:05:17Z</time>
      </trkpt>
      <trkpt lat="45.21428" lon="0.32727">
        <ele>154</ele>
        <time>2016-03-01T15:05:23Z</time>
      </trkpt>
      <trkpt lat="45.21429" lon="0.32721">
        <ele>155</ele>
        <time>2016-03-01T15:05:29Z</time>
      </trkpt>
      <trkpt lat="45.21432" lon="0.32718">
        <ele>158</ele>
        <time>2016-03-01T15:05:34Z</time>
      </trkpt>
      <trkpt lat="45.21434" lon="0.32712">
        <ele>160</ele>
        <time>2016-03-01T15:05:38Z</time>
      </trkpt>
      <trkpt lat="45.21435" lon="0.32705">
        <ele>158</ele>
        <time>2016-03-01T15:05:42Z</time>
      </trkpt>
      <trkpt lat="45.21436" lon="0.32701">
        <ele>160</ele>
        <time>2016-03-01T15:05:50Z</time>
      </trkpt>
      <trkpt lat="45.21437" lon="0.32696">
        <ele>155</ele>
        <time>2016-03-01T15:05:54Z</time>
      </trkpt>
      <trkpt lat="45.2144" lon="0.32692">
        <ele>157</ele>
        <time>2016-03-01T15:05:59Z</time>
      </trkpt>
      <trkpt lat="45.21441" lon="0.32687">
        <ele>157</ele>
        <time>2016-03-01T15:06:08Z</time>
      </trkpt>
      <trkpt lat="45.21442" lon="0.32682">
        <ele>157</ele>
        <time>2016-03-01T15:06:13Z</time>
      </trkpt>
      <trkpt lat="45.21446" lon="0.32675">
        <ele>159</ele>
        <time>2016-03-01T15:06:18Z</time>
      </trkpt>
      <trkpt lat="45.21447" lon="0.32669">
        <ele>162</ele>
        <time>2016-03-01T15:06:25Z</time>
      </trkpt>
      <trkpt lat="45.21448" lon="0.32663">
        <ele>160</ele>
        <time>2016-03-01T15:06:30Z</time>
      </trkpt>
      <trkpt lat="45.2145" lon="0.32658">
        <ele>158</ele>
        <time>2016-03-01T15:06:35Z</time>
      </trkpt>
      <trkpt lat="45.21452" lon="0.32652">
        <ele>157</ele>
        <time>2016-03-01T15:06:39Z</time>
      </trkpt>
      <trkpt lat="45.21453" lon="0.32647">
        <ele>158</ele>
        <time>2016-03-01T15:06:44Z</time>
      </trkpt>
      <trkpt lat="45.21454" lon="0.32642">
        <ele>163</ele>
        <time>2016-03-01T15:06:49Z</time>
      </trkpt>
      <trkpt lat="45.21455" lon="0.32636">
        <ele>167</ele>
        <time>2016-03-01T15:06:56Z</time>
      </trkpt>
      <trkpt lat="45.21457" lon="0.32632">
        <ele>168</ele>
        <time>2016-03-01T15:07:01Z</time>
      </trkpt>
      <trkpt lat="45.21461" lon="0.32629">
        <ele>168</ele>
        <time>2016-03-01T15:07:07Z</time>
      </trkpt>
      <trkpt lat="45.21464" lon="0.32626">
        <ele>169</ele>
        <time>2016-03-01T15:07:15Z</time>
      </trkpt>
      <trkpt lat="45.2147" lon="0.32616">
        <ele>167</ele>
        <time>2016-03-01T15:07:19Z</time>
      </trkpt>
      <trkpt lat="45.21472" lon="0.3261">
        <ele>166</ele>
        <time>2016-03-01T15:07:24Z</time>
      </trkpt>
      <trkpt lat="45.21475" lon="0.32605">
        <ele>163</ele>
        <time>2016-03-01T15:07:28Z</time>
      </trkpt>
      <trkpt lat="45.21478" lon="0.32601">
        <ele>163</ele>
        <time>2016-03-01T15:07:32Z</time>
      </trkpt>
      <trkpt lat="45.21481" lon="0.32596">
        <ele>161</ele>
        <time>2016-03-01T15:07:36Z</time>
      </trkpt>
      <trkpt lat="45.21484" lon="0.32591">
        <ele>163</ele>
        <time>2016-03-01T15:07:43Z</time>
      </trkpt>
      <trkpt lat="45.21482" lon="0.32585">
        <ele>158</ele>
        <time>2016-03-01T15:07:50Z</time>
      </trkpt>
      <trkpt lat="45.21484" lon="0.3258">
        <ele>157</ele>
        <time>2016-03-01T15:07:56Z</time>
      </trkpt>
      <trkpt lat="45.21487" lon="0.32576">
        <ele>157</ele>
        <time>2016-03-01T15:08:01Z</time>
      </trkpt>
      <trkpt lat="45.21494" lon="0.32573">
        <ele>158</ele>
        <time>2016-03-01T15:08:06Z</time>
      </trkpt>
      <trkpt lat="45.21497" lon="0.32569">
        <ele>161</ele>
        <time>2016-03-01T15:08:10Z</time>
      </trkpt>
      <trkpt lat="45.215" lon="0.32563">
        <ele>167</ele>
        <time>2016-03-01T15:08:15Z</time>
      </trkpt>
      <trkpt lat="45.21502" lon="0.32556">
        <ele>164</ele>
        <time>2016-03-01T15:08:19Z</time>
      </trkpt>
      <trkpt lat="45.21505" lon="0.32551">
        <ele>161</ele>
        <time>2016-03-01T15:08:26Z</time>
      </trkpt>
      <trkpt lat="45.21509" lon="0.3255">
        <ele>160</ele>
        <time>2016-03-01T15:08:32Z</time>
      </trkpt>
      <trkpt lat="45.21512" lon="0.32546">
        <ele>159</ele>
        <time>2016-03-01T15:08:37Z</time>
      </trkpt>
      <trkpt lat="45.21517" lon="0.32538">
        <ele>155</ele>
        <time>2016-03-01T15:08:42Z</time>
      </trkpt>
      <trkpt lat="45.21519" lon="0.32534">
        <ele>156</ele>
        <time>2016-03-01T15:08:48Z</time>
      </trkpt>
      <trkpt lat="45.21523" lon="0.32531">
        <ele>158</ele>
        <time>2016-03-01T15:08:52Z</time>
      </trkpt>
      <trkpt lat="45.21528" lon="0.32528">
        <ele>158</ele>
        <time>2016-03-01T15:08:57Z</time>
      </trkpt>
      <trkpt lat="45.21533" lon="0.32525">
        <ele>161</ele>
        <time>2016-03-01T15:09:02Z</time>
      </trkpt>
      <trkpt lat="45.21536" lon="0.32522">
        <ele>160</ele>
        <time>2016-03-01T15:09:17Z</time>
      </trkpt>
      <trkpt lat="45.2154" lon="0.3252">
        <ele>163</ele>
        <time>2016-03-01T15:09:23Z</time>
      </trkpt>
      <trkpt lat="45.21543" lon="0.32518">
        <ele>162</ele>
        <time>2016-03-01T15:09:28Z</time>
      </trkpt>
      <trkpt lat="45.21546" lon="0.32513">
        <ele>163</ele>
        <time>2016-03-01T15:09:34Z</time>
      </trkpt>
      <trkpt lat="45.21548" lon="0.32508">
        <ele>162</ele>
        <time>2016-03-01T15:09:41Z</time>
      </trkpt>
      <trkpt lat="45.21552" lon="0.32504">
        <ele>160</ele>
        <time>2016-03-01T15:09:48Z</time>
      </trkpt>
      <trkpt lat="45.21556" lon="0.32502">
        <ele>162</ele>
        <time>2016-03-01T15:09:53Z</time>
      </trkpt>
      <trkpt lat="45.21561" lon="0.32501">
        <ele>162</ele>
        <time>2016-03-01T15:09:59Z</time>
      </trkpt>
      <trkpt lat="45.21565" lon="0.32494">
        <ele>159</ele>
        <time>2016-03-01T15:10:04Z</time>
      </trkpt>
      <trkpt lat="45.21566" lon="0.3249">
        <ele>156</ele>
        <time>2016-03-01T15:10:12Z</time>
      </trkpt>
      <trkpt lat="45.21569" lon="0.32487">
        <ele>155</ele>
        <time>2016-03-01T15:10:16Z</time>
      </trkpt>
      <trkpt lat="45.21574" lon="0.32483">
        <ele>153</ele>
        <time>2016-03-01T15:10:20Z</time>
      </trkpt>
      <trkpt lat="45.21577" lon="0.32479">
        <ele>152</ele>
        <time>2016-03-01T15:10:25Z</time>
      </trkpt>
      <trkpt lat="45.21583" lon="0.32474">
        <ele>152</ele>
        <time>2016-03-01T15:10:29Z</time>
      </trkpt>
      <trkpt lat="45.21587" lon="0.32472">
        <ele>155</ele>
        <time>2016-03-01T15:10:46Z</time>
      </trkpt>
      <trkpt lat="45.21597" lon="0.32468">
        <ele>152</ele>
        <time>2016-03-01T15:10:50Z</time>
      </trkpt>
      <trkpt lat="45.21605" lon="0.32466">
        <ele>153</ele>
        <time>2016-03-01T15:10:55Z</time>
      </trkpt>
      <trkpt lat="45.2161" lon="0.32462">
        <ele>154</ele>
        <time>2016-03-01T15:10:59Z</time>
      </trkpt>
      <trkpt lat="45.21616" lon="0.32463">
        <ele>151</ele>
        <time>2016-03-01T15:11:03Z</time>
      </trkpt>
      <trkpt lat="45.21622" lon="0.32461">
        <ele>150</ele>
        <time>2016-03-01T15:11:08Z</time>
      </trkpt>
      <trkpt lat="45.21628" lon="0.32458">
        <ele>150</ele>
        <time>2016-03-01T15:11:12Z</time>
      </trkpt>
      <trkpt lat="45.21632" lon="0.32457">
        <ele>149</ele>
        <time>2016-03-01T15:11:16Z</time>
      </trkpt>
      <trkpt lat="45.21636" lon="0.32454">
        <ele>148</ele>
        <time>2016-03-01T15:11:21Z</time>
      </trkpt>
      <trkpt lat="45.2164" lon="0.32452">
        <ele>148</ele>
        <time>2016-03-01T15:11:26Z</time>
      </trkpt>
      <trkpt lat="45.21645" lon="0.32452">
        <ele>144</ele>
        <time>2016-03-01T15:11:30Z</time>
      </trkpt>
      <trkpt lat="45.21648" lon="0.3245">
        <ele>142</ele>
        <time>2016-03-01T15:11:34Z</time>
      </trkpt>
      <trkpt lat="45.21654" lon="0.32448">
        <ele>141</ele>
        <time>2016-03-01T15:11:38Z</time>
      </trkpt>
      <trkpt lat="45.2166" lon="0.32448">
        <ele>138</ele>
        <time>2016-03-01T15:11:43Z</time>
      </trkpt>
      <trkpt lat="45.21665" lon="0.32448">
        <ele>137</ele>
        <time>2016-03-01T15:11:48Z</time>
      </trkpt>
      <trkpt lat="45.21669" lon="0.32446">
        <ele>137</ele>
        <time>2016-03-01T15:11:52Z</time>
      </trkpt>
      <trkpt lat="45.21673" lon="0.32446">
        <ele>136</ele>
        <time>2016-03-01T15:11:56Z</time>
      </trkpt>
      <trkpt lat="45.21678" lon="0.32441">
        <ele>137</ele>
        <time>2016-03-01T15:12:00Z</time>
      </trkpt>
      <trkpt lat="45.21683" lon="0.32436">
        <ele>138</ele>
        <time>2016-03-01T15:12:05Z</time>
      </trkpt>
      <trkpt lat="45.21688" lon="0.32435">
        <ele>140</ele>
        <time>2016-03-01T15:12:09Z</time>
      </trkpt>
      <trkpt lat="45.21691" lon="0.32432">
        <ele>139</ele>
        <time>2016-03-01T15:12:14Z</time>
      </trkpt>
      <trkpt lat="45.21694" lon="0.32425">
        <ele>140</ele>
        <time>2016-03-01T15:12:18Z</time>
      </trkpt>
      <trkpt lat="45.21697" lon="0.32419">
        <ele>141</ele>
        <time>2016-03-01T15:12:22Z</time>
      </trkpt>
      <trkpt lat="45.21699" lon="0.32413">
        <ele>142</ele>
        <time>2016-03-01T15:12:26Z</time>
      </trkpt>
      <trkpt lat="45.21702" lon="0.32411">
        <ele>141</ele>
        <time>2016-03-01T15:12:30Z</time>
      </trkpt>
      <trkpt lat="45.21707" lon="0.32404">
        <ele>142</ele>
        <time>2016-03-01T15:12:34Z</time>
      </trkpt>
      <trkpt lat="45.21711" lon="0.32402">
        <ele>141</ele>
        <time>2016-03-01T15:12:38Z</time>
      </trkpt>
      <trkpt lat="45.21715" lon="0.32402">
        <ele>142</ele>
        <time>2016-03-01T15:12:42Z</time>
      </trkpt>
      <trkpt lat="45.21718" lon="0.32406">
        <ele>143</ele>
        <time>2016-03-01T15:12:47Z</time>
      </trkpt>
      <trkpt lat="45.2172" lon="0.32412">
        <ele>143</ele>
        <time>2016-03-01T15:12:52Z</time>
      </trkpt>
      <trkpt lat="45.21721" lon="0.32417">
        <ele>143</ele>
        <time>2016-03-01T15:12:57Z</time>
      </trkpt>
      <trkpt lat="45.21724" lon="0.32422">
        <ele>144</ele>
        <time>2016-03-01T15:13:07Z</time>
      </trkpt>
      <trkpt lat="45.21725" lon="0.32428">
        <ele>143</ele>
        <time>2016-03-01T15:13:23Z</time>
      </trkpt>
      <trkpt lat="45.21727" lon="0.32433">
        <ele>142</ele>
        <time>2016-03-01T15:13:28Z</time>
      </trkpt>
      <trkpt lat="45.21727" lon="0.32438">
        <ele>142</ele>
        <time>2016-03-01T15:13:33Z</time>
      </trkpt>
      <trkpt lat="45.2173" lon="0.32442">
        <ele>143</ele>
        <time>2016-03-01T15:13:44Z</time>
      </trkpt>
      <trkpt lat="45.21729" lon="0.32446">
        <ele>146</ele>
        <time>2016-03-01T15:13:50Z</time>
      </trkpt>
      <trkpt lat="45.21729" lon="0.32453">
        <ele>146</ele>
        <time>2016-03-01T15:13:54Z</time>
      </trkpt>
      <trkpt lat="45.21729" lon="0.32459">
        <ele>148</ele>
        <time>2016-03-01T15:13:58Z</time>
      </trkpt>
      <trkpt lat="45.2173" lon="0.32469">
        <ele>148</ele>
        <time>2016-03-01T15:14:03Z</time>
      </trkpt>
      <trkpt lat="45.21733" lon="0.32473">
        <ele>146</ele>
        <time>2016-03-01T15:14:13Z</time>
      </trkpt>
      <trkpt lat="45.21734" lon="0.32479">
        <ele>145</ele>
        <time>2016-03-01T15:14:17Z</time>
      </trkpt>
      <trkpt lat="45.21734" lon="0.32484">
        <ele>145</ele>
        <time>2016-03-01T15:14:21Z</time>
      </trkpt>
      <trkpt lat="45.21733" lon="0.32492">
        <ele>146</ele>
        <time>2016-03-01T15:14:26Z</time>
      </trkpt>
      <trkpt lat="45.21731" lon="0.32498">
        <ele>145</ele>
        <time>2016-03-01T15:14:31Z</time>
      </trkpt>
      <trkpt lat="45.21729" lon="0.32502">
        <ele>146</ele>
        <time>2016-03-01T15:14:36Z</time>
      </trkpt>
      <trkpt lat="45.21725" lon="0.32505">
        <ele>147</ele>
        <time>2016-03-01T15:14:41Z</time>
      </trkpt>
      <trkpt lat="45.21721" lon="0.32505">
        <ele>148</ele>
        <time>2016-03-01T15:14:47Z</time>
      </trkpt>
      <trkpt lat="45.21717" lon="0.32504">
        <ele>148</ele>
        <time>2016-03-01T15:14:52Z</time>
      </trkpt>
      <trkpt lat="45.21713" lon="0.32501">
        <ele>149</ele>
        <time>2016-03-01T15:14:57Z</time>
      </trkpt>
      <trkpt lat="45.21711" lon="0.32498">
        <ele>150</ele>
        <time>2016-03-01T15:15:03Z</time>
      </trkpt>
      <trkpt lat="45.21709" lon="0.32492">
        <ele>151</ele>
        <time>2016-03-01T15:15:07Z</time>
      </trkpt>
      <trkpt lat="45.21705" lon="0.3249">
        <ele>152</ele>
        <time>2016-03-01T15:15:11Z</time>
      </trkpt>
      <trkpt lat="45.21701" lon="0.32486">
        <ele>153</ele>
        <time>2016-03-01T15:15:16Z</time>
      </trkpt>
      <trkpt lat="45.21697" lon="0.32484">
        <ele>154</ele>
        <time>2016-03-01T15:15:21Z</time>
      </trkpt>
      <trkpt lat="45.21693" lon="0.32483">
        <ele>154</ele>
        <time>2016-03-01T15:15:25Z</time>
      </trkpt>
      <trkpt lat="45.2169" lon="0.32484">
        <ele>154</ele>
        <time>2016-03-01T15:15:30Z</time>
      </trkpt>
      <trkpt lat="45.21681" lon="0.32485">
        <ele>152</ele>
        <time>2016-03-01T15:15:35Z</time>
      </trkpt>
      <trkpt lat="45.21678" lon="0.32486">
        <ele>152</ele>
        <time>2016-03-01T15:15:39Z</time>
      </trkpt>
      <trkpt lat="45.21674" lon="0.32489">
        <ele>152</ele>
        <time>2016-03-01T15:15:44Z</time>
      </trkpt>
      <trkpt lat="45.2167" lon="0.32492">
        <ele>153</ele>
        <time>2016-03-01T15:15:49Z</time>
      </trkpt>
      <trkpt lat="45.21666" lon="0.32497">
        <ele>153</ele>
        <time>2016-03-01T15:15:53Z</time>
      </trkpt>
      <trkpt lat="45.21664" lon="0.32502">
        <ele>152</ele>
        <time>2016-03-01T15:15:58Z</time>
      </trkpt>
      <trkpt lat="45.21663" lon="0.32506">
        <ele>153</ele>
        <time>2016-03-01T15:16:03Z</time>
      </trkpt>
      <trkpt lat="45.21662" lon="0.32511">
        <ele>155</ele>
        <time>2016-03-01T15:16:08Z</time>
      </trkpt>
      <trkpt lat="45.2166" lon="0.32516">
        <ele>160</ele>
        <time>2016-03-01T15:16:18Z</time>
      </trkpt>
      <trkpt lat="45.21658" lon="0.32522">
        <ele>162</ele>
        <time>2016-03-01T15:16:22Z</time>
      </trkpt>
      <trkpt lat="45.21658" lon="0.32532">
        <ele>159</ele>
        <time>2016-03-01T15:16:26Z</time>
      </trkpt>
      <trkpt lat="45.21657" lon="0.32538">
        <ele>161</ele>
        <time>2016-03-01T15:16:30Z</time>
      </trkpt>
      <trkpt lat="45.21657" lon="0.32545">
        <ele>161</ele>
        <time>2016-03-01T15:16:35Z</time>
      </trkpt>
      <trkpt lat="45.21655" lon="0.32551">
        <ele>165</ele>
        <time>2016-03-01T15:16:40Z</time>
      </trkpt>
      <trkpt lat="45.21654" lon="0.32558">
        <ele>164</ele>
        <time>2016-03-01T15:16:44Z</time>
      </trkpt>
      <trkpt lat="45.21652" lon="0.32563">
        <ele>170</ele>
        <time>2016-03-01T15:16:52Z</time>
      </trkpt>
      <trkpt lat="45.2165" lon="0.32567">
        <ele>175</ele>
        <time>2016-03-01T15:16:57Z</time>
      </trkpt>
      <trkpt lat="45.21648" lon="0.32575">
        <ele>178</ele>
        <time>2016-03-01T15:17:02Z</time>
      </trkpt>
      <trkpt lat="45.21645" lon="0.32578">
        <ele>181</ele>
        <time>2016-03-01T15:17:07Z</time>
      </trkpt>
      <trkpt lat="45.21644" lon="0.32583">
        <ele>184</ele>
        <time>2016-03-01T15:17:11Z</time>
      </trkpt>
      <trkpt lat="45.21643" lon="0.32588">
        <ele>184</ele>
        <time>2016-03-01T15:17:16Z</time>
      </trkpt>
      <trkpt lat="45.21643" lon="0.32597">
        <ele>184</ele>
        <time>2016-03-01T15:17:20Z</time>
      </trkpt>
      <trkpt lat="45.21643" lon="0.32603">
        <ele>184</ele>
        <time>2016-03-01T15:17:24Z</time>
      </trkpt>
      <trkpt lat="45.21642" lon="0.3261">
        <ele>186</ele>
        <time>2016-03-01T15:17:28Z</time>
      </trkpt>
      <trkpt lat="45.2164" lon="0.32617">
        <ele>186</ele>
        <time>2016-03-01T15:17:33Z</time>
      </trkpt>
      <trkpt lat="45.21642" lon="0.32627">
        <ele>182</ele>
        <time>2016-03-01T15:17:38Z</time>
      </trkpt>
      <trkpt lat="45.21642" lon="0.32634">
        <ele>181</ele>
        <time>2016-03-01T15:17:42Z</time>
      </trkpt>
      <trkpt lat="45.21642" lon="0.32643">
        <ele>179</ele>
        <time>2016-03-01T15:17:47Z</time>
      </trkpt>
      <trkpt lat="45.21641" lon="0.32653">
        <ele>178</ele>
        <time>2016-03-01T15:17:52Z</time>
      </trkpt>
      <trkpt lat="45.21643" lon="0.32667">
        <ele>175</ele>
        <time>2016-03-01T15:17:57Z</time>
      </trkpt>
      <trkpt lat="45.21646" lon="0.32675">
        <ele>174</ele>
        <time>2016-03-01T15:18:01Z</time>
      </trkpt>
      <trkpt lat="45.21649" lon="0.32679">
        <ele>173</ele>
        <time>2016-03-01T15:18:05Z</time>
      </trkpt>
      <trkpt lat="45.21652" lon="0.32681">
        <ele>172</ele>
        <time>2016-03-01T15:18:09Z</time>
      </trkpt>
      <trkpt lat="45.21659" lon="0.32686">
        <ele>170</ele>
        <time>2016-03-01T15:18:13Z</time>
      </trkpt>
      <trkpt lat="45.21661" lon="0.3269">
        <ele>172</ele>
        <time>2016-03-01T15:18:18Z</time>
      </trkpt>
      <trkpt lat="45.21665" lon="0.32694">
        <ele>173</ele>
        <time>2016-03-01T15:18:23Z</time>
      </trkpt>
      <trkpt lat="45.21668" lon="0.32699">
        <ele>173</ele>
        <time>2016-03-01T15:18:28Z</time>
      </trkpt>
      <trkpt lat="45.21673" lon="0.32701">
        <ele>174</ele>
        <time>2016-03-01T15:18:32Z</time>
      </trkpt>
      <trkpt lat="45.21677" lon="0.32705">
        <ele>173</ele>
        <time>2016-03-01T15:18:37Z</time>
      </trkpt>
      <trkpt lat="45.21681" lon="0.32708">
        <ele>174</ele>
        <time>2016-03-01T15:18:41Z</time>
      </trkpt>
      <trkpt lat="45.21685" lon="0.32711">
        <ele>175</ele>
        <time>2016-03-01T15:18:46Z</time>
      </trkpt>
      <trkpt lat="45.2169" lon="0.32714">
        <ele>174</ele>
        <time>2016-03-01T15:18:50Z</time>
      </trkpt>
      <trkpt lat="45.21695" lon="0.32717">
        <ele>174</ele>
        <time>2016-03-01T15:18:55Z</time>
      </trkpt>
      <trkpt lat="45.21699" lon="0.32721">
        <ele>176</ele>
        <time>2016-03-01T15:19:00Z</time>
      </trkpt>
      <trkpt lat="45.21703" lon="0.32726">
        <ele>176</ele>
        <time>2016-03-01T15:19:05Z</time>
      </trkpt>
      <trkpt lat="45.21707" lon="0.32728">
        <ele>176</ele>
        <time>2016-03-01T15:19:09Z</time>
      </trkpt>
      <trkpt lat="45.21715" lon="0.3273">
        <ele>174</ele>
        <time>2016-03-01T15:19:13Z</time>
      </trkpt>
      <trkpt lat="45.2172" lon="0.32733">
        <ele>173</ele>
        <time>2016-03-01T15:19:17Z</time>
      </trkpt>
      <trkpt lat="45.21724" lon="0.32736">
        <ele>173</ele>
        <time>2016-03-01T15:19:21Z</time>
      </trkpt>
      <trkpt lat="45.21729" lon="0.3274">
        <ele>173</ele>
        <time>2016-03-01T15:19:26Z</time>
      </trkpt>
      <trkpt lat="45.21733" lon="0.32743">
        <ele>173</ele>
        <time>2016-03-01T15:19:30Z</time>
      </trkpt>
      <trkpt lat="45.21736" lon="0.32746">
        <ele>173</ele>
        <time>2016-03-01T15:19:34Z</time>
      </trkpt>
      <trkpt lat="45.21741" lon="0.32749">
        <ele>174</ele>
        <time>2016-03-01T15:19:39Z</time>
      </trkpt>
      <trkpt lat="45.21744" lon="0.32753">
        <ele>176</ele>
        <time>2016-03-01T15:19:44Z</time>
      </trkpt>
      <trkpt lat="45.21747" lon="0.32755">
        <ele>176</ele>
        <time>2016-03-01T15:19:48Z</time>
      </trkpt>
      <trkpt lat="45.21755" lon="0.32755">
        <ele>176</ele>
        <time>2016-03-01T15:19:53Z</time>
      </trkpt>
      <trkpt lat="45.21761" lon="0.32762">
        <ele>174</ele>
        <time>2016-03-01T15:19:58Z</time>
      </trkpt>
      <trkpt lat="45.21766" lon="0.32764">
        <ele>175</ele>
        <time>2016-03-01T15:20:02Z</time>
      </trkpt>
      <trkpt lat="45.2177" lon="0.32766">
        <ele>175</ele>
        <time>2016-03-01T15:20:06Z</time>
      </trkpt>
      <trkpt lat="45.21776" lon="0.32769">
        <ele>173</ele>
        <time>2016-03-01T15:20:11Z</time>
      </trkpt>
      <trkpt lat="45.21778" lon="0.32771">
        <ele>174</ele>
        <time>2016-03-01T15:20:18Z</time>
      </trkpt>
      <trkpt lat="45.21784" lon="0.32774">
        <ele>179</ele>
        <time>2016-03-01T15:20:23Z</time>
      </trkpt>
      <trkpt lat="45.21789" lon="0.32774">
        <ele>177</ele>
        <time>2016-03-01T15:20:27Z</time>
      </trkpt>
      <trkpt lat="45.21794" lon="0.32772">
        <ele>177</ele>
        <time>2016-03-01T15:20:31Z</time>
      </trkpt>
      <trkpt lat="45.218" lon="0.32775">
        <ele>172</ele>
        <time>2016-03-01T15:20:36Z</time>
      </trkpt>
      <trkpt lat="45.21805" lon="0.32774">
        <ele>171</ele>
        <time>2016-03-01T15:20:40Z</time>
      </trkpt>
      <trkpt lat="45.21809" lon="0.32774">
        <ele>171</ele>
        <time>2016-03-01T15:20:44Z</time>
      </trkpt>
      <trkpt lat="45.21815" lon="0.32774">
        <ele>170</ele>
        <time>2016-03-01T15:20:49Z</time>
      </trkpt>
      <trkpt lat="45.2182" lon="0.32775">
        <ele>169</ele>
        <time>2016-03-01T15:20:53Z</time>
      </trkpt>
      <trkpt lat="45.21825" lon="0.32775">
        <ele>169</ele>
        <time>2016-03-01T15:20:57Z</time>
      </trkpt>
      <trkpt lat="45.21831" lon="0.32774">
        <ele>170</ele>
        <time>2016-03-01T15:21:02Z</time>
      </trkpt>
      <trkpt lat="45.21834" lon="0.32778">
        <ele>170</ele>
        <time>2016-03-01T15:21:07Z</time>
      </trkpt>
      <trkpt lat="45.21838" lon="0.32777">
        <ele>170</ele>
        <time>2016-03-01T15:21:11Z</time>
      </trkpt>
      <trkpt lat="45.21843" lon="0.32776">
        <ele>168</ele>
        <time>2016-03-01T15:21:15Z</time>
      </trkpt>
      <trkpt lat="45.21848" lon="0.32775">
        <ele>167</ele>
        <time>2016-03-01T15:21:19Z</time>
      </trkpt>
      <trkpt lat="45.21853" lon="0.32774">
        <ele>168</ele>
        <time>2016-03-01T15:21:23Z</time>
      </trkpt>
      <trkpt lat="45.21859" lon="0.32772">
        <ele>166</ele>
        <time>2016-03-01T15:21:28Z</time>
      </trkpt>
      <trkpt lat="45.21864" lon="0.3277">
        <ele>167</ele>
        <time>2016-03-01T15:21:32Z</time>
      </trkpt>
      <trkpt lat="45.21868" lon="0.3277">
        <ele>167</ele>
        <time>2016-03-01T15:21:36Z</time>
      </trkpt>
      <trkpt lat="45.21874" lon="0.32767">
        <ele>170</ele>
        <time>2016-03-01T15:21:41Z</time>
      </trkpt>
      <trkpt lat="45.21878" lon="0.32766">
        <ele>169</ele>
        <time>2016-03-01T15:21:46Z</time>
      </trkpt>
      <trkpt lat="45.21885" lon="0.32763">
        <ele>168</ele>
        <time>2016-03-01T15:21:51Z</time>
      </trkpt>
      <trkpt lat="45.21891" lon="0.3276">
        <ele>169</ele>
        <time>2016-03-01T15:21:55Z</time>
      </trkpt>
      <trkpt lat="45.21895" lon="0.32755">
        <ele>169</ele>
        <time>2016-03-01T15:22:00Z</time>
      </trkpt>
      <trkpt lat="45.21901" lon="0.32751">
        <ele>169</ele>
        <time>2016-03-01T15:22:05Z</time>
      </trkpt>
      <trkpt lat="45.21906" lon="0.32745">
        <ele>168</ele>
        <time>2016-03-01T15:22:09Z</time>
      </trkpt>
      <trkpt lat="45.21909" lon="0.32742">
        <ele>169</ele>
        <time>2016-03-01T15:22:16Z</time>
      </trkpt>
      <trkpt lat="45.21915" lon="0.32738">
        <ele>168</ele>
        <time>2016-03-01T15:22:20Z</time>
      </trkpt>
      <trkpt lat="45.2192" lon="0.32732">
        <ele>169</ele>
        <time>2016-03-01T15:22:24Z</time>
      </trkpt>
      <trkpt lat="45.21924" lon="0.32726">
        <ele>167</ele>
        <time>2016-03-01T15:22:28Z</time>
      </trkpt>
      <trkpt lat="45.21929" lon="0.32719">
        <ele>166</ele>
        <time>2016-03-01T15:22:33Z</time>
      </trkpt>
      <trkpt lat="45.21931" lon="0.32715">
        <ele>165</ele>
        <time>2016-03-01T15:22:37Z</time>
      </trkpt>
      <trkpt lat="45.21938" lon="0.3271">
        <ele>168</ele>
        <time>2016-03-01T15:22:42Z</time>
      </trkpt>
      <trkpt lat="45.21943" lon="0.32703">
        <ele>171</ele>
        <time>2016-03-01T15:22:47Z</time>
      </trkpt>
      <trkpt lat="45.21947" lon="0.32699">
        <ele>170</ele>
        <time>2016-03-01T15:22:51Z</time>
      </trkpt>
      <trkpt lat="45.21952" lon="0.32695">
        <ele>167</ele>
        <time>2016-03-01T15:22:55Z</time>
      </trkpt>
      <trkpt lat="45.21957" lon="0.32691">
        <ele>164</ele>
        <time>2016-03-01T15:23:00Z</time>
      </trkpt>
      <trkpt lat="45.21962" lon="0.32688">
        <ele>164</ele>
        <time>2016-03-01T15:23:04Z</time>
      </trkpt>
      <trkpt lat="45.21965" lon="0.32685">
        <ele>166</ele>
        <time>2016-03-01T15:23:08Z</time>
      </trkpt>
      <trkpt lat="45.21969" lon="0.32685">
        <ele>163</ele>
        <time>2016-03-01T15:23:13Z</time>
      </trkpt>
      <trkpt lat="45.21975" lon="0.32683">
        <ele>163</ele>
        <time>2016-03-01T15:23:17Z</time>
      </trkpt>
      <trkpt lat="45.21979" lon="0.32682">
        <ele>164</ele>
        <time>2016-03-01T15:23:22Z</time>
      </trkpt>
      <trkpt lat="45.21985" lon="0.3268">
        <ele>164</ele>
        <time>2016-03-01T15:23:27Z</time>
      </trkpt>
      <trkpt lat="45.21992" lon="0.32679">
        <ele>165</ele>
        <time>2016-03-01T15:23:31Z</time>
      </trkpt>
      <trkpt lat="45.21998" lon="0.32678">
        <ele>162</ele>
        <time>2016-03-01T15:23:35Z</time>
      </trkpt>
      <trkpt lat="45.22002" lon="0.32677">
        <ele>163</ele>
        <time>2016-03-01T15:23:40Z</time>
      </trkpt>
      <trkpt lat="45.22007" lon="0.32677">
        <ele>162</ele>
        <time>2016-03-01T15:23:44Z</time>
      </trkpt>
      <trkpt lat="45.22011" lon="0.32676">
        <ele>162</ele>
        <time>2016-03-01T15:23:48Z</time>
      </trkpt>
      <trkpt lat="45.22017" lon="0.32675">
        <ele>161</ele>
        <time>2016-03-01T15:23:52Z</time>
      </trkpt>
      <trkpt lat="45.22022" lon="0.32674">
        <ele>160</ele>
        <time>2016-03-01T15:23:56Z</time>
      </trkpt>
      <trkpt lat="45.22028" lon="0.32672">
        <ele>158</ele>
        <time>2016-03-01T15:24:00Z</time>
      </trkpt>
      <trkpt lat="45.22033" lon="0.3267">
        <ele>160</ele>
        <time>2016-03-01T15:24:05Z</time>
      </trkpt>
      <trkpt lat="45.22037" lon="0.32672">
        <ele>163</ele>
        <time>2016-03-01T15:24:15Z</time>
      </trkpt>
      <trkpt lat="45.22043" lon="0.32671">
        <ele>162</ele>
        <time>2016-03-01T15:24:19Z</time>
      </trkpt>
      <trkpt lat="45.22049" lon="0.3267">
        <ele>161</ele>
        <time>2016-03-01T15:24:24Z</time>
      </trkpt>
      <trkpt lat="45.22053" lon="0.3267">
        <ele>161</ele>
        <time>2016-03-01T15:24:28Z</time>
      </trkpt>
      <trkpt lat="45.22061" lon="0.3267">
        <ele>159</ele>
        <time>2016-03-01T15:24:33Z</time>
      </trkpt>
      <trkpt lat="45.22065" lon="0.32668">
        <ele>158</ele>
        <time>2016-03-01T15:24:37Z</time>
      </trkpt>
      <trkpt lat="45.22071" lon="0.32668">
        <ele>158</ele>
        <time>2016-03-01T15:24:41Z</time>
      </trkpt>
      <trkpt lat="45.22078" lon="0.32667">
        <ele>158</ele>
        <time>2016-03-01T15:24:46Z</time>
      </trkpt>
      <trkpt lat="45.22082" lon="0.32667">
        <ele>157</ele>
        <time>2016-03-01T15:24:50Z</time>
      </trkpt>
      <trkpt lat="45.22088" lon="0.32667">
        <ele>159</ele>
        <time>2016-03-01T15:24:55Z</time>
      </trkpt>
      <trkpt lat="45.22093" lon="0.32669">
        <ele>157</ele>
        <time>2016-03-01T15:24:59Z</time>
      </trkpt>
      <trkpt lat="45.221" lon="0.32667">
        <ele>161</ele>
        <time>2016-03-01T15:25:04Z</time>
      </trkpt>
      <trkpt lat="45.22104" lon="0.32668">
        <ele>162</ele>
        <time>2016-03-01T15:25:08Z</time>
      </trkpt>
      <trkpt lat="45.22105" lon="0.32662">
        <ele>159</ele>
        <time>2016-03-01T15:25:17Z</time>
      </trkpt>
      <trkpt lat="45.22112" lon="0.32663">
        <ele>158</ele>
        <time>2016-03-01T15:25:22Z</time>
      </trkpt>
      <trkpt lat="45.2212" lon="0.32664">
        <ele>156</ele>
        <time>2016-03-01T15:25:27Z</time>
      </trkpt>
      <trkpt lat="45.22125" lon="0.32663">
        <ele>157</ele>
        <time>2016-03-01T15:25:31Z</time>
      </trkpt>
      <trkpt lat="45.2213" lon="0.32663">
        <ele>155</ele>
        <time>2016-03-01T15:25:36Z</time>
      </trkpt>
      <trkpt lat="45.22134" lon="0.32662">
        <ele>155</ele>
        <time>2016-03-01T15:25:45Z</time>
      </trkpt>
      <trkpt lat="45.22145" lon="0.32664">
        <ele>158</ele>
        <time>2016-03-01T15:25:50Z</time>
      </trkpt>
      <trkpt lat="45.22152" lon="0.32666">
        <ele>156</ele>
        <time>2016-03-01T15:25:54Z</time>
      </trkpt>
      <trkpt lat="45.22161" lon="0.32666">
        <ele>153</ele>
        <time>2016-03-01T15:25:59Z</time>
      </trkpt>
      <trkpt lat="45.22166" lon="0.32666">
        <ele>152</ele>
        <time>2016-03-01T15:26:03Z</time>
      </trkpt>
      <trkpt lat="45.22171" lon="0.32665">
        <ele>152</ele>
        <time>2016-03-01T15:26:08Z</time>
      </trkpt>
      <trkpt lat="45.22178" lon="0.32666">
        <ele>152</ele>
        <time>2016-03-01T15:26:12Z</time>
      </trkpt>
      <trkpt lat="45.22184" lon="0.32666">
        <ele>151</ele>
        <time>2016-03-01T15:26:16Z</time>
      </trkpt>
      <trkpt lat="45.22188" lon="0.32668">
        <ele>152</ele>
        <time>2016-03-01T15:26:20Z</time>
      </trkpt>
      <trkpt lat="45.22194" lon="0.32667">
        <ele>152</ele>
        <time>2016-03-01T15:26:25Z</time>
      </trkpt>
      <trkpt lat="45.222" lon="0.32668">
        <ele>151</ele>
        <time>2016-03-01T15:26:29Z</time>
      </trkpt>
      <trkpt lat="45.22204" lon="0.32667">
        <ele>150</ele>
        <time>2016-03-01T15:26:33Z</time>
      </trkpt>
      <trkpt lat="45.22211" lon="0.32665">
        <ele>149</ele>
        <time>2016-03-01T15:26:38Z</time>
      </trkpt>
      <trkpt lat="45.22215" lon="0.32664">
        <ele>148</ele>
        <time>2016-03-01T15:26:42Z</time>
      </trkpt>
      <trkpt lat="45.22217" lon="0.32661">
        <ele>148</ele>
        <time>2016-03-01T15:26:48Z</time>
      </trkpt>
      <trkpt lat="45.22226" lon="0.32666">
        <ele>148</ele>
        <time>2016-03-01T15:26:53Z</time>
      </trkpt>
      <trkpt lat="45.22231" lon="0.32667">
        <ele>148</ele>
        <time>2016-03-01T15:26:58Z</time>
      </trkpt>
      <trkpt lat="45.22236" lon="0.32666">
        <ele>153</ele>
        <time>2016-03-01T15:27:07Z</time>
      </trkpt>
      <trkpt lat="45.22241" lon="0.32665">
        <ele>150</ele>
        <time>2016-03-01T15:27:11Z</time>
      </trkpt>
      <trkpt lat="45.22249" lon="0.32666">
        <ele>150</ele>
        <time>2016-03-01T15:27:16Z</time>
      </trkpt>
      <trkpt lat="45.22254" lon="0.32665">
        <ele>147</ele>
        <time>2016-03-01T15:27:20Z</time>
      </trkpt>
      <trkpt lat="45.22261" lon="0.32664">
        <ele>144</ele>
        <time>2016-03-01T15:27:25Z</time>
      </trkpt>
      <trkpt lat="45.22268" lon="0.32664">
        <ele>143</ele>
        <time>2016-03-01T15:27:30Z</time>
      </trkpt>
      <trkpt lat="45.22271" lon="0.3266">
        <ele>144</ele>
        <time>2016-03-01T15:28:15Z</time>
      </trkpt>
      <trkpt lat="45.22276" lon="0.32662">
        <ele>142</ele>
        <time>2016-03-01T15:28:19Z</time>
      </trkpt>
      <trkpt lat="45.2228" lon="0.3266">
        <ele>143</ele>
        <time>2016-03-01T15:28:23Z</time>
      </trkpt>
      <trkpt lat="45.22285" lon="0.32648">
        <ele>145</ele>
        <time>2016-03-01T15:28:28Z</time>
      </trkpt>
      <trkpt lat="45.22287" lon="0.32645">
        <ele>143</ele>
        <time>2016-03-01T15:28:32Z</time>
      </trkpt>
      <trkpt lat="45.22293" lon="0.32643">
        <ele>143</ele>
        <time>2016-03-01T15:28:37Z</time>
      </trkpt>
      <trkpt lat="45.22293" lon="0.32637">
        <ele>143</ele>
        <time>2016-03-01T15:28:42Z</time>
      </trkpt>
      <trkpt lat="45.22296" lon="0.32633">
        <ele>141</ele>
        <time>2016-03-01T15:28:46Z</time>
      </trkpt>
      <trkpt lat="45.22298" lon="0.32628">
        <ele>140</ele>
        <time>2016-03-01T15:28:50Z</time>
      </trkpt>
      <trkpt lat="45.223" lon="0.32622">
        <ele>139</ele>
        <time>2016-03-01T15:28:54Z</time>
      </trkpt>
      <trkpt lat="45.22305" lon="0.32616">
        <ele>138</ele>
        <time>2016-03-01T15:28:59Z</time>
      </trkpt>
      <trkpt lat="45.22308" lon="0.3261">
        <ele>136</ele>
        <time>2016-03-01T15:29:03Z</time>
      </trkpt>
      <trkpt lat="45.22313" lon="0.32604">
        <ele>135</ele>
        <time>2016-03-01T15:29:08Z</time>
      </trkpt>
      <trkpt lat="45.22316" lon="0.32598">
        <ele>133</ele>
        <time>2016-03-01T15:29:12Z</time>
      </trkpt>
      <trkpt lat="45.22319" lon="0.32595">
        <ele>133</ele>
        <time>2016-03-01T15:29:16Z</time>
      </trkpt>
      <trkpt lat="45.22321" lon="0.32589">
        <ele>132</ele>
        <time>2016-03-01T15:29:20Z</time>
      </trkpt>
      <trkpt lat="45.22324" lon="0.32585">
        <ele>132</ele>
        <time>2016-03-01T15:29:24Z</time>
      </trkpt>
      <trkpt lat="45.22328" lon="0.32583">
        <ele>132</ele>
        <time>2016-03-01T15:29:28Z</time>
      </trkpt>
      <trkpt lat="45.22332" lon="0.32582">
        <ele>133</ele>
        <time>2016-03-01T15:29:32Z</time>
      </trkpt>
      <trkpt lat="45.22337" lon="0.32582">
        <ele>133</ele>
        <time>2016-03-01T15:29:36Z</time>
      </trkpt>
      <trkpt lat="45.22343" lon="0.32584">
        <ele>133</ele>
        <time>2016-03-01T15:29:41Z</time>
      </trkpt>
      <trkpt lat="45.22348" lon="0.32586">
        <ele>132</ele>
        <time>2016-03-01T15:29:46Z</time>
      </trkpt>
      <trkpt lat="45.22352" lon="0.32588">
        <ele>132</ele>
        <time>2016-03-01T15:29:51Z</time>
      </trkpt>
      <trkpt lat="45.22356" lon="0.3259">
        <ele>132</ele>
        <time>2016-03-01T15:29:55Z</time>
      </trkpt>
      <trkpt lat="45.22363" lon="0.32592">
        <ele>130</ele>
        <time>2016-03-01T15:30:00Z</time>
      </trkpt>
      <trkpt lat="45.22366" lon="0.32595">
        <ele>130</ele>
        <time>2016-03-01T15:30:06Z</time>
      </trkpt>
      <trkpt lat="45.22371" lon="0.32598">
        <ele>131</ele>
        <time>2016-03-01T15:30:11Z</time>
      </trkpt>
      <trkpt lat="45.22379" lon="0.32593">
        <ele>132</ele>
        <time>2016-03-01T15:30:15Z</time>
      </trkpt>
      <trkpt lat="45.22384" lon="0.32596">
        <ele>129</ele>
        <time>2016-03-01T15:30:20Z</time>
      </trkpt>
      <trkpt lat="45.22387" lon="0.32601">
        <ele>132</ele>
        <time>2016-03-01T15:30:24Z</time>
      </trkpt>
      <trkpt lat="45.22395" lon="0.32601">
        <ele>129</ele>
        <time>2016-03-01T15:30:28Z</time>
      </trkpt>
      <trkpt lat="45.22398" lon="0.32603">
        <ele>132</ele>
        <time>2016-03-01T15:30:32Z</time>
      </trkpt>
      <trkpt lat="45.22402" lon="0.32608">
        <ele>131</ele>
        <time>2016-03-01T15:30:37Z</time>
      </trkpt>
      <trkpt lat="45.22407" lon="0.32611">
        <ele>133</ele>
        <time>2016-03-01T15:30:42Z</time>
      </trkpt>
      <trkpt lat="45.2241" lon="0.32614">
        <ele>134</ele>
        <time>2016-03-01T15:30:48Z</time>
      </trkpt>
      <trkpt lat="45.22411" lon="0.32617">
        <ele>133</ele>
        <time>2016-03-01T15:30:55Z</time>
      </trkpt>
      <trkpt lat="45.22422" lon="0.32618">
        <ele>130</ele>
        <time>2016-03-01T15:30:59Z</time>
      </trkpt>
      <trkpt lat="45.22425" lon="0.3262">
        <ele>131</ele>
        <time>2016-03-01T15:31:03Z</time>
      </trkpt>
      <trkpt lat="45.22433" lon="0.32622">
        <ele>128</ele>
        <time>2016-03-01T15:31:07Z</time>
      </trkpt>
      <trkpt lat="45.22437" lon="0.32624">
        <ele>126</ele>
        <time>2016-03-01T15:31:15Z</time>
      </trkpt>
      <trkpt lat="45.22442" lon="0.32624">
        <ele>122</ele>
        <time>2016-03-01T15:31:22Z</time>
      </trkpt>
      <trkpt lat="45.22448" lon="0.32625">
        <ele>123</ele>
        <time>2016-03-01T15:31:26Z</time>
      </trkpt>
      <trkpt lat="45.22453" lon="0.32629">
        <ele>126</ele>
        <time>2016-03-01T15:31:31Z</time>
      </trkpt>
      <trkpt lat="45.22459" lon="0.32632">
        <ele>127</ele>
        <time>2016-03-01T15:31:36Z</time>
      </trkpt>
      <trkpt lat="45.22463" lon="0.32633">
        <ele>129</ele>
        <time>2016-03-01T15:31:40Z</time>
      </trkpt>
      <trkpt lat="45.22469" lon="0.32634">
        <ele>129</ele>
        <time>2016-03-01T15:31:44Z</time>
      </trkpt>
      <trkpt lat="45.22473" lon="0.32636">
        <ele>128</ele>
        <time>2016-03-01T15:31:49Z</time>
      </trkpt>
      <trkpt lat="45.22476" lon="0.3264">
        <ele>128</ele>
        <time>2016-03-01T15:31:54Z</time>
      </trkpt>
      <trkpt lat="45.2248" lon="0.32643">
        <ele>128</ele>
        <time>2016-03-01T15:31:58Z</time>
      </trkpt>
      <trkpt lat="45.22484" lon="0.32646">
        <ele>128</ele>
        <time>2016-03-01T15:32:03Z</time>
      </trkpt>
      <trkpt lat="45.2249" lon="0.3265">
        <ele>128</ele>
        <time>2016-03-01T15:32:08Z</time>
      </trkpt>
      <trkpt lat="45.22494" lon="0.32652">
        <ele>127</ele>
        <time>2016-03-01T15:32:12Z</time>
      </trkpt>
      <trkpt lat="45.225" lon="0.32653">
        <ele>126</ele>
        <time>2016-03-01T15:32:17Z</time>
      </trkpt>
      <trkpt lat="45.22504" lon="0.32656">
        <ele>126</ele>
        <time>2016-03-01T15:32:21Z</time>
      </trkpt>
      <trkpt lat="45.2251" lon="0.32657">
        <ele>125</ele>
        <time>2016-03-01T15:32:26Z</time>
      </trkpt>
      <trkpt lat="45.22516" lon="0.32658">
        <ele>123</ele>
        <time>2016-03-01T15:32:30Z</time>
      </trkpt>
      <trkpt lat="45.2252" lon="0.3266">
        <ele>125</ele>
        <time>2016-03-01T15:32:36Z</time>
      </trkpt>
      <trkpt lat="45.22525" lon="0.32663">
        <ele>125</ele>
        <time>2016-03-01T15:32:41Z</time>
      </trkpt>
      <trkpt lat="45.22531" lon="0.32663">
        <ele>125</ele>
        <time>2016-03-01T15:32:46Z</time>
      </trkpt>
      <trkpt lat="45.22537" lon="0.32664">
        <ele>122</ele>
        <time>2016-03-01T15:32:50Z</time>
      </trkpt>
      <trkpt lat="45.22542" lon="0.32663">
        <ele>125</ele>
        <time>2016-03-01T15:32:55Z</time>
      </trkpt>
      <trkpt lat="45.22546" lon="0.32665">
        <ele>122</ele>
        <time>2016-03-01T15:33:02Z</time>
      </trkpt>
      <trkpt lat="45.22551" lon="0.32669">
        <ele>122</ele>
        <time>2016-03-01T15:33:07Z</time>
      </trkpt>
      <trkpt lat="45.22558" lon="0.32669">
        <ele>124</ele>
        <time>2016-03-01T15:33:12Z</time>
      </trkpt>
      <trkpt lat="45.22562" lon="0.32673">
        <ele>126</ele>
        <time>2016-03-01T15:33:16Z</time>
      </trkpt>
      <trkpt lat="45.22565" lon="0.32678">
        <ele>124</ele>
        <time>2016-03-01T15:33:21Z</time>
      </trkpt>
      <trkpt lat="45.22575" lon="0.3268">
        <ele>121</ele>
        <time>2016-03-01T15:33:26Z</time>
      </trkpt>
      <trkpt lat="45.22578" lon="0.32683">
        <ele>121</ele>
        <time>2016-03-01T15:33:31Z</time>
      </trkpt>
      <trkpt lat="45.22582" lon="0.32686">
        <ele>123</ele>
        <time>2016-03-01T15:33:36Z</time>
      </trkpt>
      <trkpt lat="45.22584" lon="0.32692">
        <ele>122</ele>
        <time>2016-03-01T15:33:41Z</time>
      </trkpt>
      <trkpt lat="45.22588" lon="0.32696">
        <ele>123</ele>
        <time>2016-03-01T15:33:45Z</time>
      </trkpt>
      <trkpt lat="45.22597" lon="0.32698">
        <ele>122</ele>
        <time>2016-03-01T15:33:50Z</time>
      </trkpt>
      <trkpt lat="45.22601" lon="0.327">
        <ele>123</ele>
        <time>2016-03-01T15:33:54Z</time>
      </trkpt>
      <trkpt lat="45.22607" lon="0.32703">
        <ele>124</ele>
        <time>2016-03-01T15:33:59Z</time>
      </trkpt>
      <trkpt lat="45.22612" lon="0.32702">
        <ele>122</ele>
        <time>2016-03-01T15:34:04Z</time>
      </trkpt>
      <trkpt lat="45.22616" lon="0.32707">
        <ele>122</ele>
        <time>2016-03-01T15:34:08Z</time>
      </trkpt>
      <trkpt lat="45.22621" lon="0.32708">
        <ele>124</ele>
        <time>2016-03-01T15:34:13Z</time>
      </trkpt>
      <trkpt lat="45.22625" lon="0.3271">
        <ele>124</ele>
        <time>2016-03-01T15:34:17Z</time>
      </trkpt>
      <trkpt lat="45.22628" lon="0.32714">
        <ele>125</ele>
        <time>2016-03-01T15:34:21Z</time>
      </trkpt>
      <trkpt lat="45.22633" lon="0.32715">
        <ele>125</ele>
        <time>2016-03-01T15:34:25Z</time>
      </trkpt>
      <trkpt lat="45.22637" lon="0.32718">
        <ele>124</ele>
        <time>2016-03-01T15:34:30Z</time>
      </trkpt>
      <trkpt lat="45.22641" lon="0.3272">
        <ele>124</ele>
        <time>2016-03-01T15:34:34Z</time>
      </trkpt>
      <trkpt lat="45.22644" lon="0.32725">
        <ele>124</ele>
        <time>2016-03-01T15:34:39Z</time>
      </trkpt>
      <trkpt lat="45.22647" lon="0.32727">
        <ele>123</ele>
        <time>2016-03-01T15:34:43Z</time>
      </trkpt>
      <trkpt lat="45.22653" lon="0.32729">
        <ele>122</ele>
        <time>2016-03-01T15:34:47Z</time>
      </trkpt>
      <trkpt lat="45.22656" lon="0.3273">
        <ele>122</ele>
        <time>2016-03-01T15:34:51Z</time>
      </trkpt>
      <trkpt lat="45.2266" lon="0.32732">
        <ele>122</ele>
        <time>2016-03-01T15:34:55Z</time>
      </trkpt>
      <trkpt lat="45.22665" lon="0.32734">
        <ele>122</ele>
        <time>2016-03-01T15:34:59Z</time>
      </trkpt>
      <trkpt lat="45.22671" lon="0.32734">
        <ele>122</ele>
        <time>2016-03-01T15:35:03Z</time>
      </trkpt>
      <trkpt lat="45.22676" lon="0.32736">
        <ele>121</ele>
        <time>2016-03-01T15:35:07Z</time>
      </trkpt>
      <trkpt lat="45.22679" lon="0.32738">
        <ele>123</ele>
        <time>2016-03-01T15:35:11Z</time>
      </trkpt>
      <trkpt lat="45.22684" lon="0.32739">
        <ele>123</ele>
        <time>2016-03-01T15:35:15Z</time>
      </trkpt>
      <trkpt lat="45.22692" lon="0.32741">
        <ele>121</ele>
        <time>2016-03-01T15:35:20Z</time>
      </trkpt>
      <trkpt lat="45.22696" lon="0.32741">
        <ele>121</ele>
        <time>2016-03-01T15:35:24Z</time>
      </trkpt>
      <trkpt lat="45.227" lon="0.32743">
        <ele>122</ele>
        <time>2016-03-01T15:35:28Z</time>
      </trkpt>
      <trkpt lat="45.22704" lon="0.32745">
        <ele>121</ele>
        <time>2016-03-01T15:35:32Z</time>
      </trkpt>
      <trkpt lat="45.22709" lon="0.32748">
        <ele>120</ele>
        <time>2016-03-01T15:35:37Z</time>
      </trkpt>
      <trkpt lat="45.22714" lon="0.3275">
        <ele>120</ele>
        <time>2016-03-01T15:35:42Z</time>
      </trkpt>
      <trkpt lat="45.22719" lon="0.32749">
        <ele>121</ele>
        <time>2016-03-01T15:35:46Z</time>
      </trkpt>
      <trkpt lat="45.22725" lon="0.32751">
        <ele>120</ele>
        <time>2016-03-01T15:35:51Z</time>
      </trkpt>
      <trkpt lat="45.22731" lon="0.32752">
        <ele>120</ele>
        <time>2016-03-01T15:35:55Z</time>
      </trkpt>
      <trkpt lat="45.22736" lon="0.32752">
        <ele>121</ele>
        <time>2016-03-01T15:35:59Z</time>
      </trkpt>
      <trkpt lat="45.2274" lon="0.32753">
        <ele>121</ele>
        <time>2016-03-01T15:36:03Z</time>
      </trkpt>
      <trkpt lat="45.22746" lon="0.32754">
        <ele>122</ele>
        <time>2016-03-01T15:36:07Z</time>
      </trkpt>
      <trkpt lat="45.2275" lon="0.32754">
        <ele>121</ele>
        <time>2016-03-01T15:36:12Z</time>
      </trkpt>
      <trkpt lat="45.22755" lon="0.32755">
        <ele>121</ele>
        <time>2016-03-01T15:36:16Z</time>
      </trkpt>
      <trkpt lat="45.22761" lon="0.32756">
        <ele>120</ele>
        <time>2016-03-01T15:36:21Z</time>
      </trkpt>
      <trkpt lat="45.22764" lon="0.32758">
        <ele>120</ele>
        <time>2016-03-01T15:36:25Z</time>
      </trkpt>
      <trkpt lat="45.2277" lon="0.32759">
        <ele>120</ele>
        <time>2016-03-01T15:36:30Z</time>
      </trkpt>
      <trkpt lat="45.22776" lon="0.32759">
        <ele>118</ele>
        <time>2016-03-01T15:36:34Z</time>
      </trkpt>
      <trkpt lat="45.2278" lon="0.3276">
        <ele>120</ele>
        <time>2016-03-01T15:36:38Z</time>
      </trkpt>
      <trkpt lat="45.22784" lon="0.32762">
        <ele>120</ele>
        <time>2016-03-01T15:36:43Z</time>
      </trkpt>
      <trkpt lat="45.22788" lon="0.32761">
        <ele>120</ele>
        <time>2016-03-01T15:36:47Z</time>
      </trkpt>
      <trkpt lat="45.22793" lon="0.3276">
        <ele>122</ele>
        <time>2016-03-01T15:36:51Z</time>
      </trkpt>
      <trkpt lat="45.22798" lon="0.3276">
        <ele>122</ele>
        <time>2016-03-01T15:36:55Z</time>
      </trkpt>
      <trkpt lat="45.22803" lon="0.32761">
        <ele>121</ele>
        <time>2016-03-01T15:36:59Z</time>
      </trkpt>
      <trkpt lat="45.22808" lon="0.32761">
        <ele>122</ele>
        <time>2016-03-01T15:37:04Z</time>
      </trkpt>
      <trkpt lat="45.22813" lon="0.32759">
        <ele>123</ele>
        <time>2016-03-01T15:37:09Z</time>
      </trkpt>
      <trkpt lat="45.22817" lon="0.32759">
        <ele>122</ele>
        <time>2016-03-01T15:37:13Z</time>
      </trkpt>
      <trkpt lat="45.22822" lon="0.32758">
        <ele>122</ele>
        <time>2016-03-01T15:37:17Z</time>
      </trkpt>
      <trkpt lat="45.22828" lon="0.32758">
        <ele>123</ele>
        <time>2016-03-01T15:37:22Z</time>
      </trkpt>
      <trkpt lat="45.22831" lon="0.32755">
        <ele>121</ele>
        <time>2016-03-01T15:37:26Z</time>
      </trkpt>
      <trkpt lat="45.22835" lon="0.32755">
        <ele>120</ele>
        <time>2016-03-01T15:37:31Z</time>
      </trkpt>
      <trkpt lat="45.2284" lon="0.32755">
        <ele>121</ele>
        <time>2016-03-01T15:37:36Z</time>
      </trkpt>
      <trkpt lat="45.22844" lon="0.32754">
        <ele>123</ele>
        <time>2016-03-01T15:37:40Z</time>
      </trkpt>
      <trkpt lat="45.22848" lon="0.3275">
        <ele>126</ele>
        <time>2016-03-01T15:37:44Z</time>
      </trkpt>
      <trkpt lat="45.22853" lon="0.32752">
        <ele>128</ele>
        <time>2016-03-01T15:37:48Z</time>
      </trkpt>
      <trkpt lat="45.2286" lon="0.32753">
        <ele>129</ele>
        <time>2016-03-01T15:37:53Z</time>
      </trkpt>
      <trkpt lat="45.22864" lon="0.32752">
        <ele>128</ele>
        <time>2016-03-01T15:37:57Z</time>
      </trkpt>
      <trkpt lat="45.2287" lon="0.32752">
        <ele>128</ele>
        <time>2016-03-01T15:38:02Z</time>
      </trkpt>
      <trkpt lat="45.22874" lon="0.32752">
        <ele>130</ele>
        <time>2016-03-01T15:38:07Z</time>
      </trkpt>
      <trkpt lat="45.22878" lon="0.32752">
        <ele>131</ele>
        <time>2016-03-01T15:38:11Z</time>
      </trkpt>
      <trkpt lat="45.22884" lon="0.32753">
        <ele>132</ele>
        <time>2016-03-01T15:38:15Z</time>
      </trkpt>
      <trkpt lat="45.2289" lon="0.32753">
        <ele>135</ele>
        <time>2016-03-01T15:38:19Z</time>
      </trkpt>
      <trkpt lat="45.22894" lon="0.32748">
        <ele>130</ele>
        <time>2016-03-01T15:38:24Z</time>
      </trkpt>
      <trkpt lat="45.22901" lon="0.32745">
        <ele>126</ele>
        <time>2016-03-01T15:38:29Z</time>
      </trkpt>
      <trkpt lat="45.22904" lon="0.32742">
        <ele>124</ele>
        <time>2016-03-01T15:38:33Z</time>
      </trkpt>
      <trkpt lat="45.2291" lon="0.3274">
        <ele>123</ele>
        <time>2016-03-01T15:38:38Z</time>
      </trkpt>
      <trkpt lat="45.22914" lon="0.32739">
        <ele>123</ele>
        <time>2016-03-01T15:38:42Z</time>
      </trkpt>
      <trkpt lat="45.22918" lon="0.32738">
        <ele>125</ele>
        <time>2016-03-01T15:38:47Z</time>
      </trkpt>
      <trkpt lat="45.22923" lon="0.32736">
        <ele>124</ele>
        <time>2016-03-01T15:38:51Z</time>
      </trkpt>
      <trkpt lat="45.22928" lon="0.32735">
        <ele>125</ele>
        <time>2016-03-01T15:38:56Z</time>
      </trkpt>
      <trkpt lat="45.22933" lon="0.32733">
        <ele>125</ele>
        <time>2016-03-01T15:39:01Z</time>
      </trkpt>
      <trkpt lat="45.22939" lon="0.32731">
        <ele>126</ele>
        <time>2016-03-01T15:39:05Z</time>
      </trkpt>
      <trkpt lat="45.22942" lon="0.32729">
        <ele>127</ele>
        <time>2016-03-01T15:39:09Z</time>
      </trkpt>
      <trkpt lat="45.22945" lon="0.32725">
        <ele>127</ele>
        <time>2016-03-01T15:39:13Z</time>
      </trkpt>
      <trkpt lat="45.2295" lon="0.32723">
        <ele>127</ele>
        <time>2016-03-01T15:39:17Z</time>
      </trkpt>
      <trkpt lat="45.22955" lon="0.32724">
        <ele>127</ele>
        <time>2016-03-01T15:39:21Z</time>
      </trkpt>
      <trkpt lat="45.22959" lon="0.32723">
        <ele>125</ele>
        <time>2016-03-01T15:39:26Z</time>
      </trkpt>
      <trkpt lat="45.22963" lon="0.32722">
        <ele>124</ele>
        <time>2016-03-01T15:39:30Z</time>
      </trkpt>
      <trkpt lat="45.22966" lon="0.32716">
        <ele>121</ele>
        <time>2016-03-01T15:39:35Z</time>
      </trkpt>
      <trkpt lat="45.22969" lon="0.32712">
        <ele>120</ele>
        <time>2016-03-01T15:39:39Z</time>
      </trkpt>
      <trkpt lat="45.22973" lon="0.32709">
        <ele>120</ele>
        <time>2016-03-01T15:39:43Z</time>
      </trkpt>
      <trkpt lat="45.22978" lon="0.32706">
        <ele>120</ele>
        <time>2016-03-01T15:39:48Z</time>
      </trkpt>
      <trkpt lat="45.22983" lon="0.32703">
        <ele>121</ele>
        <time>2016-03-01T15:39:52Z</time>
      </trkpt>
      <trkpt lat="45.22989" lon="0.327">
        <ele>121</ele>
        <time>2016-03-01T15:39:57Z</time>
      </trkpt>
      <trkpt lat="45.22993" lon="0.32698">
        <ele>122</ele>
        <time>2016-03-01T15:40:01Z</time>
      </trkpt>
      <trkpt lat="45.22996" lon="0.32697">
        <ele>124</ele>
        <time>2016-03-01T15:40:06Z</time>
      </trkpt>
      <trkpt lat="45.23002" lon="0.32691">
        <ele>122</ele>
        <time>2016-03-01T15:40:11Z</time>
      </trkpt>
      <trkpt lat="45.23006" lon="0.32687">
        <ele>121</ele>
        <time>2016-03-01T15:40:15Z</time>
      </trkpt>
      <trkpt lat="45.23011" lon="0.32686">
        <ele>122</ele>
        <time>2016-03-01T15:40:25Z</time>
      </trkpt>
      <trkpt lat="45.23014" lon="0.32682">
        <ele>124</ele>
        <time>2016-03-01T15:40:33Z</time>
      </trkpt>
      <trkpt lat="45.23018" lon="0.3268">
        <ele>122</ele>
        <time>2016-03-01T15:40:41Z</time>
      </trkpt>
      <trkpt lat="45.23022" lon="0.32681">
        <ele>119</ele>
        <time>2016-03-01T15:41:00Z</time>
      </trkpt>
      <trkpt lat="45.23022" lon="0.32686">
        <ele>119</ele>
        <time>2016-03-01T15:41:04Z</time>
      </trkpt>
      <trkpt lat="45.23022" lon="0.32693">
        <ele>120</ele>
        <time>2016-03-01T15:41:08Z</time>
      </trkpt>
      <trkpt lat="45.23021" lon="0.32699">
        <ele>119</ele>
        <time>2016-03-01T15:41:12Z</time>
      </trkpt>
      <trkpt lat="45.23022" lon="0.32705">
        <ele>119</ele>
        <time>2016-03-01T15:41:17Z</time>
      </trkpt>
      <trkpt lat="45.2302" lon="0.3271">
        <ele>120</ele>
        <time>2016-03-01T15:41:22Z</time>
      </trkpt>
      <trkpt lat="45.23021" lon="0.32718">
        <ele>119</ele>
        <time>2016-03-01T15:41:27Z</time>
      </trkpt>
      <trkpt lat="45.23021" lon="0.32725">
        <ele>118</ele>
        <time>2016-03-01T15:41:31Z</time>
      </trkpt>
      <trkpt lat="45.23021" lon="0.32732">
        <ele>118</ele>
        <time>2016-03-01T15:41:35Z</time>
      </trkpt>
      <trkpt lat="45.23021" lon="0.3274">
        <ele>118</ele>
        <time>2016-03-01T15:41:40Z</time>
      </trkpt>
      <trkpt lat="45.23021" lon="0.32747">
        <ele>117</ele>
        <time>2016-03-01T15:41:44Z</time>
      </trkpt>
      <trkpt lat="45.23022" lon="0.32751">
        <ele>117</ele>
        <time>2016-03-01T15:41:48Z</time>
      </trkpt>
      <trkpt lat="45.23025" lon="0.32758">
        <ele>119</ele>
        <time>2016-03-01T15:41:53Z</time>
      </trkpt>
      <trkpt lat="45.23031" lon="0.32763">
        <ele>118</ele>
        <time>2016-03-01T15:41:58Z</time>
      </trkpt>
      <trkpt lat="45.23035" lon="0.3277">
        <ele>118</ele>
        <time>2016-03-01T15:42:02Z</time>
      </trkpt>
      <trkpt lat="45.2304" lon="0.32772">
        <ele>119</ele>
        <time>2016-03-01T15:42:06Z</time>
      </trkpt>
      <trkpt lat="45.23045" lon="0.32774">
        <ele>118</ele>
        <time>2016-03-01T15:42:10Z</time>
      </trkpt>
      <trkpt lat="45.2305" lon="0.32775">
        <ele>119</ele>
        <time>2016-03-01T15:42:15Z</time>
      </trkpt>
      <trkpt lat="45.23056" lon="0.32775">
        <ele>118</ele>
        <time>2016-03-01T15:42:19Z</time>
      </trkpt>
      <trkpt lat="45.23061" lon="0.32774">
        <ele>118</ele>
        <time>2016-03-01T15:42:23Z</time>
      </trkpt>
      <trkpt lat="45.23065" lon="0.32776">
        <ele>117</ele>
        <time>2016-03-01T15:42:27Z</time>
      </trkpt>
      <trkpt lat="45.23069" lon="0.32776">
        <ele>116</ele>
        <time>2016-03-01T15:42:31Z</time>
      </trkpt>
      <trkpt lat="45.23076" lon="0.32775">
        <ele>116</ele>
        <time>2016-03-01T15:42:36Z</time>
      </trkpt>
      <trkpt lat="45.23081" lon="0.32776">
        <ele>116</ele>
        <time>2016-03-01T15:42:41Z</time>
      </trkpt>
      <trkpt lat="45.23085" lon="0.32778">
        <ele>117</ele>
        <time>2016-03-01T15:42:46Z</time>
      </trkpt>
      <trkpt lat="45.2309" lon="0.32778">
        <ele>115</ele>
        <time>2016-03-01T15:42:50Z</time>
      </trkpt>
      <trkpt lat="45.23096" lon="0.32779">
        <ele>116</ele>
        <time>2016-03-01T15:42:54Z</time>
      </trkpt>
      <trkpt lat="45.23103" lon="0.32781">
        <ele>116</ele>
        <time>2016-03-01T15:42:59Z</time>
      </trkpt>
      <trkpt lat="45.23108" lon="0.32781">
        <ele>115</ele>
        <time>2016-03-01T15:43:03Z</time>
      </trkpt>
      <trkpt lat="45.23112" lon="0.32785">
        <ele>115</ele>
        <time>2016-03-01T15:43:07Z</time>
      </trkpt>
      <trkpt lat="45.23119" lon="0.32788">
        <ele>115</ele>
        <time>2016-03-01T15:43:12Z</time>
      </trkpt>
      <trkpt lat="45.2312" lon="0.32794">
        <ele>116</ele>
        <time>2016-03-01T15:43:16Z</time>
      </trkpt>
      <trkpt lat="45.23125" lon="0.32799">
        <ele>117</ele>
        <time>2016-03-01T15:43:20Z</time>
      </trkpt>
      <trkpt lat="45.2313" lon="0.32802">
        <ele>117</ele>
        <time>2016-03-01T15:43:25Z</time>
      </trkpt>
      <trkpt lat="45.23134" lon="0.32807">
        <ele>117</ele>
        <time>2016-03-01T15:43:29Z</time>
      </trkpt>
      <trkpt lat="45.23138" lon="0.32812">
        <ele>117</ele>
        <time>2016-03-01T15:43:33Z</time>
      </trkpt>
      <trkpt lat="45.23142" lon="0.32814">
        <ele>119</ele>
        <time>2016-03-01T15:43:37Z</time>
      </trkpt>
      <trkpt lat="45.23148" lon="0.32819">
        <ele>119</ele>
        <time>2016-03-01T15:43:42Z</time>
      </trkpt>
      <trkpt lat="45.23153" lon="0.32823">
        <ele>115</ele>
        <time>2016-03-01T15:43:46Z</time>
      </trkpt>
      <trkpt lat="45.23157" lon="0.32825">
        <ele>115</ele>
        <time>2016-03-01T15:43:51Z</time>
      </trkpt>
      <trkpt lat="45.23161" lon="0.3283">
        <ele>116</ele>
        <time>2016-03-01T15:43:56Z</time>
      </trkpt>
      <trkpt lat="45.23164" lon="0.32834">
        <ele>117</ele>
        <time>2016-03-01T15:44:02Z</time>
      </trkpt>
      <trkpt lat="45.23169" lon="0.32839">
        <ele>117</ele>
        <time>2016-03-01T15:44:07Z</time>
      </trkpt>
      <trkpt lat="45.23175" lon="0.32843">
        <ele>116</ele>
        <time>2016-03-01T15:44:11Z</time>
      </trkpt>
      <trkpt lat="45.2318" lon="0.32847">
        <ele>115</ele>
        <time>2016-03-01T15:44:15Z</time>
      </trkpt>
      <trkpt lat="45.23184" lon="0.32852">
        <ele>116</ele>
        <time>2016-03-01T15:44:20Z</time>
      </trkpt>
      <trkpt lat="45.23187" lon="0.32856">
        <ele>116</ele>
        <time>2016-03-01T15:44:24Z</time>
      </trkpt>
      <trkpt lat="45.23192" lon="0.3286">
        <ele>117</ele>
        <time>2016-03-01T15:44:28Z</time>
      </trkpt>
      <trkpt lat="45.23198" lon="0.32865">
        <ele>116</ele>
        <time>2016-03-01T15:44:33Z</time>
      </trkpt>
      <trkpt lat="45.232" lon="0.32869">
        <ele>116</ele>
        <time>2016-03-01T15:44:37Z</time>
      </trkpt>
      <trkpt lat="45.23204" lon="0.32876">
        <ele>116</ele>
        <time>2016-03-01T15:44:42Z</time>
      </trkpt>
      <trkpt lat="45.23207" lon="0.32882">
        <ele>117</ele>
        <time>2016-03-01T15:44:46Z</time>
      </trkpt>
      <trkpt lat="45.23211" lon="0.32886">
        <ele>117</ele>
        <time>2016-03-01T15:44:50Z</time>
      </trkpt>
      <trkpt lat="45.23214" lon="0.32891">
        <ele>116</ele>
        <time>2016-03-01T15:44:54Z</time>
      </trkpt>
      <trkpt lat="45.23219" lon="0.32897">
        <ele>115</ele>
        <time>2016-03-01T15:44:59Z</time>
      </trkpt>
      <trkpt lat="45.23223" lon="0.32901">
        <ele>115</ele>
        <time>2016-03-01T15:45:03Z</time>
      </trkpt>
      <trkpt lat="45.23226" lon="0.32905">
        <ele>115</ele>
        <time>2016-03-01T15:45:07Z</time>
      </trkpt>
      <trkpt lat="45.2323" lon="0.32908">
        <ele>116</ele>
        <time>2016-03-01T15:45:11Z</time>
      </trkpt>
      <trkpt lat="45.23236" lon="0.32912">
        <ele>115</ele>
        <time>2016-03-01T15:45:16Z</time>
      </trkpt>
      <trkpt lat="45.23239" lon="0.32917">
        <ele>116</ele>
        <time>2016-03-01T15:45:20Z</time>
      </trkpt>
      <trkpt lat="45.23244" lon="0.32921">
        <ele>115</ele>
        <time>2016-03-01T15:45:25Z</time>
      </trkpt>
      <trkpt lat="45.23247" lon="0.32925">
        <ele>114</ele>
        <time>2016-03-01T15:45:29Z</time>
      </trkpt>
      <trkpt lat="45.23252" lon="0.32929">
        <ele>113</ele>
        <time>2016-03-01T15:45:33Z</time>
      </trkpt>
      <trkpt lat="45.23258" lon="0.32934">
        <ele>112</ele>
        <time>2016-03-01T15:45:38Z</time>
      </trkpt>
      <trkpt lat="45.23261" lon="0.32937">
        <ele>112</ele>
        <time>2016-03-01T15:45:42Z</time>
      </trkpt>
      <trkpt lat="45.23266" lon="0.32939">
        <ele>113</ele>
        <time>2016-03-01T15:45:46Z</time>
      </trkpt>
      <trkpt lat="45.23269" lon="0.32942">
        <ele>114</ele>
        <time>2016-03-01T15:45:51Z</time>
      </trkpt>
      <trkpt lat="45.23273" lon="0.32946">
        <ele>113</ele>
        <time>2016-03-01T15:45:55Z</time>
      </trkpt>
      <trkpt lat="45.23277" lon="0.3295">
        <ele>111</ele>
        <time>2016-03-01T15:45:59Z</time>
      </trkpt>
      <trkpt lat="45.23282" lon="0.32958">
        <ele>110</ele>
        <time>2016-03-01T15:46:04Z</time>
      </trkpt>
      <trkpt lat="45.23286" lon="0.32964">
        <ele>108</ele>
        <time>2016-03-01T15:46:08Z</time>
      </trkpt>
      <trkpt lat="45.2329" lon="0.32971">
        <ele>108</ele>
        <time>2016-03-01T15:46:13Z</time>
      </trkpt>
      <trkpt lat="45.23294" lon="0.32977">
        <ele>107</ele>
        <time>2016-03-01T15:46:17Z</time>
      </trkpt>
      <trkpt lat="45.23297" lon="0.32985">
        <ele>107</ele>
        <time>2016-03-01T15:46:22Z</time>
      </trkpt>
      <trkpt lat="45.233" lon="0.3299">
        <ele>107</ele>
        <time>2016-03-01T15:46:26Z</time>
      </trkpt>
      <trkpt lat="45.23302" lon="0.32996">
        <ele>108</ele>
        <time>2016-03-01T15:46:30Z</time>
      </trkpt>
      <trkpt lat="45.23307" lon="0.33003">
        <ele>107</ele>
        <time>2016-03-01T15:46:35Z</time>
      </trkpt>
      <trkpt lat="45.2331" lon="0.33006">
        <ele>106</ele>
        <time>2016-03-01T15:46:39Z</time>
      </trkpt>
      <trkpt lat="45.23314" lon="0.33012">
        <ele>104</ele>
        <time>2016-03-01T15:46:44Z</time>
      </trkpt>
      <trkpt lat="45.23317" lon="0.33019">
        <ele>106</ele>
        <time>2016-03-01T15:46:49Z</time>
      </trkpt>
      <trkpt lat="45.23321" lon="0.33027">
        <ele>106</ele>
        <time>2016-03-01T15:46:54Z</time>
      </trkpt>
      <trkpt lat="45.23324" lon="0.33031">
        <ele>105</ele>
        <time>2016-03-01T15:46:58Z</time>
      </trkpt>
      <trkpt lat="45.23327" lon="0.33037">
        <ele>106</ele>
        <time>2016-03-01T15:47:02Z</time>
      </trkpt>
      <trkpt lat="45.23332" lon="0.33044">
        <ele>106</ele>
        <time>2016-03-01T15:47:07Z</time>
      </trkpt>
      <trkpt lat="45.23336" lon="0.33049">
        <ele>106</ele>
        <time>2016-03-01T15:47:11Z</time>
      </trkpt>
      <trkpt lat="45.23339" lon="0.33056">
        <ele>107</ele>
        <time>2016-03-01T15:47:16Z</time>
      </trkpt>
      <trkpt lat="45.23343" lon="0.33061">
        <ele>108</ele>
        <time>2016-03-01T15:47:20Z</time>
      </trkpt>
      <trkpt lat="45.23347" lon="0.33065">
        <ele>108</ele>
        <time>2016-03-01T15:47:25Z</time>
      </trkpt>
      <trkpt lat="45.2335" lon="0.33071">
        <ele>108</ele>
        <time>2016-03-01T15:47:30Z</time>
      </trkpt>
      <trkpt lat="45.23354" lon="0.33074">
        <ele>109</ele>
        <time>2016-03-01T15:47:34Z</time>
      </trkpt>
      <trkpt lat="45.2336" lon="0.33079">
        <ele>108</ele>
        <time>2016-03-01T15:47:39Z</time>
      </trkpt>
      <trkpt lat="45.23364" lon="0.33082">
        <ele>109</ele>
        <time>2016-03-01T15:47:44Z</time>
      </trkpt>
      <trkpt lat="45.2337" lon="0.33085">
        <ele>109</ele>
        <time>2016-03-01T15:47:48Z</time>
      </trkpt>
      <trkpt lat="45.23376" lon="0.33086">
        <ele>107</ele>
        <time>2016-03-01T15:47:52Z</time>
      </trkpt>
      <trkpt lat="45.23382" lon="0.3309">
        <ele>107</ele>
        <time>2016-03-01T15:47:57Z</time>
      </trkpt>
      <trkpt lat="45.23385" lon="0.33093">
        <ele>109</ele>
        <time>2016-03-01T15:48:02Z</time>
      </trkpt>
      <trkpt lat="45.23389" lon="0.33096">
        <ele>110</ele>
        <time>2016-03-01T15:48:06Z</time>
      </trkpt>
      <trkpt lat="45.23394" lon="0.33098">
        <ele>110</ele>
        <time>2016-03-01T15:48:10Z</time>
      </trkpt>
      <trkpt lat="45.23398" lon="0.33102">
        <ele>109</ele>
        <time>2016-03-01T15:48:14Z</time>
      </trkpt>
      <trkpt lat="45.23404" lon="0.33105">
        <ele>109</ele>
        <time>2016-03-01T15:48:19Z</time>
      </trkpt>
      <trkpt lat="45.23409" lon="0.33109">
        <ele>108</ele>
        <time>2016-03-01T15:48:23Z</time>
      </trkpt>
      <trkpt lat="45.23413" lon="0.33114">
        <ele>108</ele>
        <time>2016-03-01T15:48:27Z</time>
      </trkpt>
      <trkpt lat="45.23418" lon="0.33117">
        <ele>108</ele>
        <time>2016-03-01T15:48:31Z</time>
      </trkpt>
      <trkpt lat="45.23422" lon="0.3312">
        <ele>107</ele>
        <time>2016-03-01T15:48:35Z</time>
      </trkpt>
      <trkpt lat="45.23426" lon="0.33125">
        <ele>106</ele>
        <time>2016-03-01T15:48:40Z</time>
      </trkpt>
      <trkpt lat="45.23428" lon="0.33128">
        <ele>105</ele>
        <time>2016-03-01T15:48:44Z</time>
      </trkpt>
      <trkpt lat="45.23432" lon="0.33133">
        <ele>104</ele>
        <time>2016-03-01T15:48:49Z</time>
      </trkpt>
      <trkpt lat="45.23436" lon="0.33138">
        <ele>103</ele>
        <time>2016-03-01T15:48:53Z</time>
      </trkpt>
      <trkpt lat="45.23441" lon="0.33142">
        <ele>102</ele>
        <time>2016-03-01T15:48:58Z</time>
      </trkpt>
      <trkpt lat="45.23444" lon="0.33146">
        <ele>101</ele>
        <time>2016-03-01T15:49:02Z</time>
      </trkpt>
      <trkpt lat="45.23448" lon="0.3315">
        <ele>102</ele>
        <time>2016-03-01T15:49:06Z</time>
      </trkpt>
      <trkpt lat="45.23452" lon="0.33152">
        <ele>101</ele>
        <time>2016-03-01T15:49:10Z</time>
      </trkpt>
      <trkpt lat="45.23456" lon="0.33157">
        <ele>101</ele>
        <time>2016-03-01T15:49:15Z</time>
      </trkpt>
      <trkpt lat="45.23459" lon="0.33161">
        <ele>100</ele>
        <time>2016-03-01T15:49:20Z</time>
      </trkpt>
      <trkpt lat="45.23464" lon="0.33164">
        <ele>99</ele>
        <time>2016-03-01T15:49:25Z</time>
      </trkpt>
      <trkpt lat="45.23469" lon="0.33168">
        <ele>98</ele>
        <time>2016-03-01T15:49:30Z</time>
      </trkpt>
      <trkpt lat="45.23475" lon="0.33171">
        <ele>98</ele>
        <time>2016-03-01T15:49:34Z</time>
      </trkpt>
      <trkpt lat="45.23478" lon="0.33173">
        <ele>99</ele>
        <time>2016-03-01T15:49:38Z</time>
      </trkpt>
      <trkpt lat="45.23481" lon="0.33177">
        <ele>98</ele>
        <time>2016-03-01T15:49:43Z</time>
      </trkpt>
      <trkpt lat="45.23487" lon="0.33181">
        <ele>99</ele>
        <time>2016-03-01T15:49:48Z</time>
      </trkpt>
      <trkpt lat="45.23493" lon="0.33183">
        <ele>97</ele>
        <time>2016-03-01T15:49:52Z</time>
      </trkpt>
      <trkpt lat="45.23499" lon="0.33184">
        <ele>93</ele>
        <time>2016-03-01T15:49:57Z</time>
      </trkpt>
      <trkpt lat="45.23501" lon="0.33187">
        <ele>95</ele>
        <time>2016-03-01T15:50:01Z</time>
      </trkpt>
      <trkpt lat="45.23508" lon="0.3319">
        <ele>93</ele>
        <time>2016-03-01T15:50:05Z</time>
      </trkpt>
      <trkpt lat="45.23515" lon="0.33196">
        <ele>94</ele>
        <time>2016-03-01T15:50:10Z</time>
      </trkpt>
      <trkpt lat="45.2352" lon="0.33199">
        <ele>94</ele>
        <time>2016-03-01T15:50:14Z</time>
      </trkpt>
      <trkpt lat="45.23523" lon="0.33202">
        <ele>94</ele>
        <time>2016-03-01T15:50:18Z</time>
      </trkpt>
      <trkpt lat="45.23528" lon="0.33204">
        <ele>93</ele>
        <time>2016-03-01T15:50:22Z</time>
      </trkpt>
      <trkpt lat="45.23531" lon="0.33209">
        <ele>94</ele>
        <time>2016-03-01T15:50:27Z</time>
      </trkpt>
      <trkpt lat="45.23535" lon="0.3321">
        <ele>93</ele>
        <time>2016-03-01T15:50:31Z</time>
      </trkpt>
      <trkpt lat="45.23541" lon="0.33212">
        <ele>92</ele>
        <time>2016-03-01T15:50:35Z</time>
      </trkpt>
      <trkpt lat="45.23547" lon="0.33217">
        <ele>94</ele>
        <time>2016-03-01T15:50:40Z</time>
      </trkpt>
      <trkpt lat="45.23551" lon="0.3322">
        <ele>93</ele>
        <time>2016-03-01T15:50:44Z</time>
      </trkpt>
      <trkpt lat="45.23554" lon="0.33224">
        <ele>97</ele>
        <time>2016-03-01T15:50:49Z</time>
      </trkpt>
      <trkpt lat="45.2356" lon="0.33225">
        <ele>93</ele>
        <time>2016-03-01T15:50:54Z</time>
      </trkpt>
      <trkpt lat="45.23564" lon="0.33227">
        <ele>93</ele>
        <time>2016-03-01T15:50:58Z</time>
      </trkpt>
      <trkpt lat="45.23567" lon="0.3323">
        <ele>93</ele>
        <time>2016-03-01T15:51:02Z</time>
      </trkpt>
      <trkpt lat="45.2357" lon="0.33234">
        <ele>96</ele>
        <time>2016-03-01T15:51:07Z</time>
      </trkpt>
      <trkpt lat="45.23573" lon="0.33237">
        <ele>99</ele>
        <time>2016-03-01T15:51:11Z</time>
      </trkpt>
      <trkpt lat="45.2358" lon="0.33241">
        <ele>99</ele>
        <time>2016-03-01T15:51:16Z</time>
      </trkpt>
      <trkpt lat="45.23582" lon="0.33244">
        <ele>101</ele>
        <time>2016-03-01T15:51:22Z</time>
      </trkpt>
      <trkpt lat="45.23588" lon="0.33251">
        <ele>101</ele>
        <time>2016-03-01T15:51:26Z</time>
      </trkpt>
      <trkpt lat="45.23591" lon="0.33254">
        <ele>103</ele>
        <time>2016-03-01T15:51:31Z</time>
      </trkpt>
      <trkpt lat="45.23597" lon="0.33258">
        <ele>102</ele>
        <time>2016-03-01T15:51:36Z</time>
      </trkpt>
      <trkpt lat="45.236" lon="0.33262">
        <ele>105</ele>
        <time>2016-03-01T15:51:42Z</time>
      </trkpt>
      <trkpt lat="45.23603" lon="0.33266">
        <ele>104</ele>
        <time>2016-03-01T15:51:48Z</time>
      </trkpt>
      <trkpt lat="45.23605" lon="0.33271">
        <ele>105</ele>
        <time>2016-03-01T15:51:54Z</time>
      </trkpt>
      <trkpt lat="45.23605" lon="0.33273">
        <ele>106</ele>
        <time>2016-03-01T15:52:00Z</time>
      </trkpt>
      <trkpt lat="45.23617" lon="0.33285">
        <ele>102</ele>
        <time>2016-03-01T15:52:05Z</time>
      </trkpt>
      <trkpt lat="45.23622" lon="0.33291">
        <ele>101</ele>
        <time>2016-03-01T15:52:10Z</time>
      </trkpt>
      <trkpt lat="45.23624" lon="0.33296">
        <ele>100</ele>
        <time>2016-03-01T15:52:15Z</time>
      </trkpt>
      <trkpt lat="45.23627" lon="0.33299">
        <ele>102</ele>
        <time>2016-03-01T15:52:21Z</time>
      </trkpt>
      <trkpt lat="45.2363" lon="0.33301">
        <ele>102</ele>
        <time>2016-03-01T15:52:27Z</time>
      </trkpt>
      <trkpt lat="45.2364" lon="0.33305">
        <ele>103</ele>
        <time>2016-03-01T15:52:32Z</time>
      </trkpt>
      <trkpt lat="45.23647" lon="0.33311">
        <ele>103</ele>
        <time>2016-03-01T15:52:37Z</time>
      </trkpt>
      <trkpt lat="45.23651" lon="0.33313">
        <ele>102</ele>
        <time>2016-03-01T15:52:41Z</time>
      </trkpt>
      <trkpt lat="45.23655" lon="0.33318">
        <ele>103</ele>
        <time>2016-03-01T15:52:45Z</time>
      </trkpt>
      <trkpt lat="45.23664" lon="0.3332">
        <ele>102</ele>
        <time>2016-03-01T15:52:50Z</time>
      </trkpt>
      <trkpt lat="45.23668" lon="0.33324">
        <ele>102</ele>
        <time>2016-03-01T15:52:54Z</time>
      </trkpt>
      <trkpt lat="45.23671" lon="0.33329">
        <ele>101</ele>
        <time>2016-03-01T15:52:58Z</time>
      </trkpt>
      <trkpt lat="45.23681" lon="0.33337">
        <ele>99</ele>
        <time>2016-03-01T15:53:03Z</time>
      </trkpt>
      <trkpt lat="45.23685" lon="0.33339">
        <ele>98</ele>
        <time>2016-03-01T15:53:09Z</time>
      </trkpt>
      <trkpt lat="45.23693" lon="0.33343">
        <ele>96</ele>
        <time>2016-03-01T15:53:13Z</time>
      </trkpt>
      <trkpt lat="45.237" lon="0.33349">
        <ele>94</ele>
        <time>2016-03-01T15:53:18Z</time>
      </trkpt>
      <trkpt lat="45.23707" lon="0.33351">
        <ele>93</ele>
        <time>2016-03-01T15:53:22Z</time>
      </trkpt>
      <trkpt lat="45.23714" lon="0.33355">
        <ele>89</ele>
        <time>2016-03-01T15:53:27Z</time>
      </trkpt>
      <trkpt lat="45.23719" lon="0.33354">
        <ele>86</ele>
        <time>2016-03-01T15:53:31Z</time>
      </trkpt>
      <trkpt lat="45.23723" lon="0.33355">
        <ele>88</ele>
        <time>2016-03-01T15:53:38Z</time>
      </trkpt>
      <trkpt lat="45.23726" lon="0.33359">
        <ele>89</ele>
        <time>2016-03-01T15:53:43Z</time>
      </trkpt>
      <trkpt lat="45.23728" lon="0.33362">
        <ele>89</ele>
        <time>2016-03-01T15:53:47Z</time>
      </trkpt>
      <trkpt lat="45.23734" lon="0.33367">
        <ele>89</ele>
        <time>2016-03-01T15:53:51Z</time>
      </trkpt>
      <trkpt lat="45.2374" lon="0.3337">
        <ele>88</ele>
        <time>2016-03-01T15:53:55Z</time>
      </trkpt>
      <trkpt lat="45.23743" lon="0.33374">
        <ele>89</ele>
        <time>2016-03-01T15:53:59Z</time>
      </trkpt>
      <trkpt lat="45.23751" lon="0.33381">
        <ele>90</ele>
        <time>2016-03-01T15:54:04Z</time>
      </trkpt>
      <trkpt lat="45.23756" lon="0.33385">
        <ele>90</ele>
        <time>2016-03-01T15:54:08Z</time>
      </trkpt>
      <trkpt lat="45.2376" lon="0.33388">
        <ele>91</ele>
        <time>2016-03-01T15:54:13Z</time>
      </trkpt>
      <trkpt lat="45.23764" lon="0.33392">
        <ele>92</ele>
        <time>2016-03-01T15:54:18Z</time>
      </trkpt>
      <trkpt lat="45.23768" lon="0.33396">
        <ele>91</ele>
        <time>2016-03-01T15:54:22Z</time>
      </trkpt>
      <trkpt lat="45.23778" lon="0.33403">
        <ele>89</ele>
        <time>2016-03-01T15:54:26Z</time>
      </trkpt>
      <trkpt lat="45.23786" lon="0.33411">
        <ele>88</ele>
        <time>2016-03-01T15:54:31Z</time>
      </trkpt>
      <trkpt lat="45.2379" lon="0.33416">
        <ele>87</ele>
        <time>2016-03-01T15:54:36Z</time>
      </trkpt>
      <trkpt lat="45.23795" lon="0.3342">
        <ele>86</ele>
        <time>2016-03-01T15:54:40Z</time>
      </trkpt>
      <trkpt lat="45.23799" lon="0.33423">
        <ele>86</ele>
        <time>2016-03-01T15:54:44Z</time>
      </trkpt>
      <trkpt lat="45.23804" lon="0.33428">
        <ele>84</ele>
        <time>2016-03-01T15:54:49Z</time>
      </trkpt>
      <trkpt lat="45.23808" lon="0.33432">
        <ele>85</ele>
        <time>2016-03-01T15:54:53Z</time>
      </trkpt>
      <trkpt lat="45.23812" lon="0.33436">
        <ele>85</ele>
        <time>2016-03-01T15:54:58Z</time>
      </trkpt>
      <trkpt lat="45.23816" lon="0.33441">
        <ele>84</ele>
        <time>2016-03-01T15:55:02Z</time>
      </trkpt>
      <trkpt lat="45.2382" lon="0.33445">
        <ele>85</ele>
        <time>2016-03-01T15:55:06Z</time>
      </trkpt>
      <trkpt lat="45.23826" lon="0.33452">
        <ele>84</ele>
        <time>2016-03-01T15:55:11Z</time>
      </trkpt>
      <trkpt lat="45.2383" lon="0.33455">
        <ele>84</ele>
        <time>2016-03-01T15:55:15Z</time>
      </trkpt>
      <trkpt lat="45.23835" lon="0.3346">
        <ele>84</ele>
        <time>2016-03-01T15:55:20Z</time>
      </trkpt>
      <trkpt lat="45.23843" lon="0.33465">
        <ele>81</ele>
        <time>2016-03-01T15:55:24Z</time>
      </trkpt>
      <trkpt lat="45.23849" lon="0.33471">
        <ele>81</ele>
        <time>2016-03-01T15:55:29Z</time>
      </trkpt>
      <trkpt lat="45.23855" lon="0.33475">
        <ele>79</ele>
        <time>2016-03-01T15:55:33Z</time>
      </trkpt>
      <trkpt lat="45.23859" lon="0.33481">
        <ele>79</ele>
        <time>2016-03-01T15:55:38Z</time>
      </trkpt>
      <trkpt lat="45.23861" lon="0.33487">
        <ele>80</ele>
        <time>2016-03-01T15:55:42Z</time>
      </trkpt>
      <trkpt lat="45.23863" lon="0.33494">
        <ele>81</ele>
        <time>2016-03-01T15:55:47Z</time>
      </trkpt>
      <trkpt lat="45.23865" lon="0.33501">
        <ele>81</ele>
        <time>2016-03-01T15:55:51Z</time>
      </trkpt>
      <trkpt lat="45.23864" lon="0.33508">
        <ele>83</ele>
        <time>2016-03-01T15:55:55Z</time>
      </trkpt>
      <trkpt lat="45.23864" lon="0.33515">
        <ele>82</ele>
        <time>2016-03-01T15:55:59Z</time>
      </trkpt>
      <trkpt lat="45.23865" lon="0.33524">
        <ele>81</ele>
        <time>2016-03-01T15:56:03Z</time>
      </trkpt>
      <trkpt lat="45.23863" lon="0.33532">
        <ele>82</ele>
        <time>2016-03-01T15:56:08Z</time>
      </trkpt>
      <trkpt lat="45.2386" lon="0.33537">
        <ele>81</ele>
        <time>2016-03-01T15:56:12Z</time>
      </trkpt>
      <trkpt lat="45.2386" lon="0.33543">
        <ele>82</ele>
        <time>2016-03-01T15:56:16Z</time>
      </trkpt>
      <trkpt lat="45.23859" lon="0.33549">
        <ele>83</ele>
        <time>2016-03-01T15:56:20Z</time>
      </trkpt>
      <trkpt lat="45.23859" lon="0.33555">
        <ele>83</ele>
        <time>2016-03-01T15:56:24Z</time>
      </trkpt>
      <trkpt lat="45.23859" lon="0.33562">
        <ele>84</ele>
        <time>2016-03-01T15:56:28Z</time>
      </trkpt>
      <trkpt lat="45.23861" lon="0.33567">
        <ele>84</ele>
        <time>2016-03-01T15:56:33Z</time>
      </trkpt>
      <trkpt lat="45.23864" lon="0.33571">
        <ele>82</ele>
        <time>2016-03-01T15:56:41Z</time>
      </trkpt>
      <trkpt lat="45.23866" lon="0.33575">
        <ele>84</ele>
        <time>2016-03-01T15:56:48Z</time>
      </trkpt>
      <trkpt lat="45.2387" lon="0.33578">
        <ele>85</ele>
        <time>2016-03-01T15:56:53Z</time>
      </trkpt>
      <trkpt lat="45.23873" lon="0.33581">
        <ele>84</ele>
        <time>2016-03-01T15:57:00Z</time>
      </trkpt>
      <trkpt lat="45.23878" lon="0.33586">
        <ele>83</ele>
        <time>2016-03-01T15:57:04Z</time>
      </trkpt>
      <trkpt lat="45.23885" lon="0.33589">
        <ele>84</ele>
        <time>2016-03-01T15:57:09Z</time>
      </trkpt>
      <trkpt lat="45.23891" lon="0.3359">
        <ele>84</ele>
        <time>2016-03-01T15:57:13Z</time>
      </trkpt>
      <trkpt lat="45.23895" lon="0.33592">
        <ele>85</ele>
        <time>2016-03-01T15:57:18Z</time>
      </trkpt>
      <trkpt lat="45.23903" lon="0.33597">
        <ele>83</ele>
        <time>2016-03-01T15:57:23Z</time>
      </trkpt>
      <trkpt lat="45.23906" lon="0.33601">
        <ele>85</ele>
        <time>2016-03-01T15:57:27Z</time>
      </trkpt>
      <trkpt lat="45.2391" lon="0.33603">
        <ele>84</ele>
        <time>2016-03-01T15:57:31Z</time>
      </trkpt>
      <trkpt lat="45.23915" lon="0.33605">
        <ele>83</ele>
        <time>2016-03-01T15:57:36Z</time>
      </trkpt>
      <trkpt lat="45.23922" lon="0.33606">
        <ele>83</ele>
        <time>2016-03-01T15:57:41Z</time>
      </trkpt>
      <trkpt lat="45.23929" lon="0.33606">
        <ele>83</ele>
        <time>2016-03-01T15:57:45Z</time>
      </trkpt>
      <trkpt lat="45.23934" lon="0.33608">
        <ele>84</ele>
        <time>2016-03-01T15:57:49Z</time>
      </trkpt>
      <trkpt lat="45.23938" lon="0.33611">
        <ele>84</ele>
        <time>2016-03-01T15:57:53Z</time>
      </trkpt>
      <trkpt lat="45.23943" lon="0.33612">
        <ele>83</ele>
        <time>2016-03-01T15:57:57Z</time>
      </trkpt>
      <trkpt lat="45.2395" lon="0.33615">
        <ele>82</ele>
        <time>2016-03-01T15:58:02Z</time>
      </trkpt>
      <trkpt lat="45.23955" lon="0.33619">
        <ele>82</ele>
        <time>2016-03-01T15:58:06Z</time>
      </trkpt>
      <trkpt lat="45.23959" lon="0.33619">
        <ele>81</ele>
        <time>2016-03-01T15:58:16Z</time>
      </trkpt>
      <trkpt lat="45.23963" lon="0.3362">
        <ele>82</ele>
        <time>2016-03-01T15:58:26Z</time>
      </trkpt>
      <trkpt lat="45.23967" lon="0.33623">
        <ele>82</ele>
        <time>2016-03-01T15:58:30Z</time>
      </trkpt>
      <trkpt lat="45.23972" lon="0.33624">
        <ele>82</ele>
        <time>2016-03-01T15:58:34Z</time>
      </trkpt>
      <trkpt lat="45.23978" lon="0.33627">
        <ele>82</ele>
        <time>2016-03-01T15:58:39Z</time>
      </trkpt>
      <trkpt lat="45.23982" lon="0.33629">
        <ele>81</ele>
        <time>2016-03-01T15:58:43Z</time>
      </trkpt>
      <trkpt lat="45.23987" lon="0.33633">
        <ele>80</ele>
        <time>2016-03-01T15:58:48Z</time>
      </trkpt>
      <trkpt lat="45.2399" lon="0.33636">
        <ele>81</ele>
        <time>2016-03-01T15:58:52Z</time>
      </trkpt>
      <trkpt lat="45.23994" lon="0.3364">
        <ele>81</ele>
        <time>2016-03-01T15:58:56Z</time>
      </trkpt>
      <trkpt lat="45.23998" lon="0.33641">
        <ele>83</ele>
        <time>2016-03-01T15:59:00Z</time>
      </trkpt>
      <trkpt lat="45.24003" lon="0.33644">
        <ele>82</ele>
        <time>2016-03-01T15:59:05Z</time>
      </trkpt>
      <trkpt lat="45.24008" lon="0.33645">
        <ele>83</ele>
        <time>2016-03-01T15:59:10Z</time>
      </trkpt>
      <trkpt lat="45.24012" lon="0.33649">
        <ele>83</ele>
        <time>2016-03-01T15:59:14Z</time>
      </trkpt>
      <trkpt lat="45.24019" lon="0.3365">
        <ele>85</ele>
        <time>2016-03-01T15:59:19Z</time>
      </trkpt>
      <trkpt lat="45.24023" lon="0.33652">
        <ele>82</ele>
        <time>2016-03-01T15:59:23Z</time>
      </trkpt>
      <trkpt lat="45.24029" lon="0.33652">
        <ele>82</ele>
        <time>2016-03-01T15:59:28Z</time>
      </trkpt>
      <trkpt lat="45.24033" lon="0.33652">
        <ele>83</ele>
        <time>2016-03-01T15:59:35Z</time>
      </trkpt>
      <trkpt lat="45.24038" lon="0.33656">
        <ele>82</ele>
        <time>2016-03-01T15:59:39Z</time>
      </trkpt>
      <trkpt lat="45.24044" lon="0.3366">
        <ele>81</ele>
        <time>2016-03-01T15:59:44Z</time>
      </trkpt>
      <trkpt lat="45.24047" lon="0.33664">
        <ele>79</ele>
        <time>2016-03-01T15:59:49Z</time>
      </trkpt>
      <trkpt lat="45.24052" lon="0.33667">
        <ele>81</ele>
        <time>2016-03-01T15:59:53Z</time>
      </trkpt>
      <trkpt lat="45.24056" lon="0.33671">
        <ele>82</ele>
        <time>2016-03-01T15:59:57Z</time>
      </trkpt>
      <trkpt lat="45.2406" lon="0.33675">
        <ele>83</ele>
        <time>2016-03-01T16:00:02Z</time>
      </trkpt>
      <trkpt lat="45.24062" lon="0.33677">
        <ele>83</ele>
        <time>2016-03-01T16:00:06Z</time>
      </trkpt>
      <trkpt lat="45.2407" lon="0.33685">
        <ele>81</ele>
        <time>2016-03-01T16:00:11Z</time>
      </trkpt>
      <trkpt lat="45.24076" lon="0.33691">
        <ele>80</ele>
        <time>2016-03-01T16:00:16Z</time>
      </trkpt>
      <trkpt lat="45.2408" lon="0.33694">
        <ele>80</ele>
        <time>2016-03-01T16:00:21Z</time>
      </trkpt>
      <trkpt lat="45.24082" lon="0.33698">
        <ele>82</ele>
        <time>2016-03-01T16:00:26Z</time>
      </trkpt>
      <trkpt lat="45.24087" lon="0.33705">
        <ele>83</ele>
        <time>2016-03-01T16:00:31Z</time>
      </trkpt>
      <trkpt lat="45.24092" lon="0.33709">
        <ele>83</ele>
        <time>2016-03-01T16:00:35Z</time>
      </trkpt>
      <trkpt lat="45.24094" lon="0.33712">
        <ele>84</ele>
        <time>2016-03-01T16:00:39Z</time>
      </trkpt>
      <trkpt lat="45.24099" lon="0.33716">
        <ele>85</ele>
        <time>2016-03-01T16:00:43Z</time>
      </trkpt>
      <trkpt lat="45.24106" lon="0.33719">
        <ele>88</ele>
        <time>2016-03-01T16:00:48Z</time>
      </trkpt>
      <trkpt lat="45.24112" lon="0.33726">
        <ele>87</ele>
        <time>2016-03-01T16:00:53Z</time>
      </trkpt>
      <trkpt lat="45.24116" lon="0.33733">
        <ele>86</ele>
        <time>2016-03-01T16:00:57Z</time>
      </trkpt>
      <trkpt lat="45.24122" lon="0.3374">
        <ele>86</ele>
        <time>2016-03-01T16:01:02Z</time>
      </trkpt>
      <trkpt lat="45.24125" lon="0.33745">
        <ele>84</ele>
        <time>2016-03-01T16:01:06Z</time>
      </trkpt>
      <trkpt lat="45.2413" lon="0.3375">
        <ele>84</ele>
        <time>2016-03-01T16:01:11Z</time>
      </trkpt>
      <trkpt lat="45.24133" lon="0.33754">
        <ele>85</ele>
        <time>2016-03-01T16:01:15Z</time>
      </trkpt>
      <trkpt lat="45.24137" lon="0.33756">
        <ele>85</ele>
        <time>2016-03-01T16:01:19Z</time>
      </trkpt>
      <trkpt lat="45.2414" lon="0.3376">
        <ele>85</ele>
        <time>2016-03-01T16:01:23Z</time>
      </trkpt>
      <trkpt lat="45.24145" lon="0.33767">
        <ele>84</ele>
        <time>2016-03-01T16:01:28Z</time>
      </trkpt>
      <trkpt lat="45.24149" lon="0.33771">
        <ele>85</ele>
        <time>2016-03-01T16:01:32Z</time>
      </trkpt>
      <trkpt lat="45.24154" lon="0.33776">
        <ele>83</ele>
        <time>2016-03-01T16:01:37Z</time>
      </trkpt>
      <trkpt lat="45.24159" lon="0.33781">
        <ele>83</ele>
        <time>2016-03-01T16:01:41Z</time>
      </trkpt>
      <trkpt lat="45.24163" lon="0.33786">
        <ele>83</ele>
        <time>2016-03-01T16:01:46Z</time>
      </trkpt>
      <trkpt lat="45.24167" lon="0.3379">
        <ele>84</ele>
        <time>2016-03-01T16:01:50Z</time>
      </trkpt>
      <trkpt lat="45.24171" lon="0.33795">
        <ele>83</ele>
        <time>2016-03-01T16:01:54Z</time>
      </trkpt>
      <trkpt lat="45.24175" lon="0.338">
        <ele>84</ele>
        <time>2016-03-01T16:01:59Z</time>
      </trkpt>
      <trkpt lat="45.24178" lon="0.33806">
        <ele>83</ele>
        <time>2016-03-01T16:02:03Z</time>
      </trkpt>
      <trkpt lat="45.24182" lon="0.3381">
        <ele>81</ele>
        <time>2016-03-01T16:02:07Z</time>
      </trkpt>
      <trkpt lat="45.24187" lon="0.33814">
        <ele>80</ele>
        <time>2016-03-01T16:02:12Z</time>
      </trkpt>
      <trkpt lat="45.24192" lon="0.3382">
        <ele>79</ele>
        <time>2016-03-01T16:02:17Z</time>
      </trkpt>
      <trkpt lat="45.24194" lon="0.33826">
        <ele>80</ele>
        <time>2016-03-01T16:02:21Z</time>
      </trkpt>
      <trkpt lat="45.24199" lon="0.33831">
        <ele>79</ele>
        <time>2016-03-01T16:02:25Z</time>
      </trkpt>
      <trkpt lat="45.24203" lon="0.33837">
        <ele>79</ele>
        <time>2016-03-01T16:02:30Z</time>
      </trkpt>
      <trkpt lat="45.24205" lon="0.33842">
        <ele>79</ele>
        <time>2016-03-01T16:02:34Z</time>
      </trkpt>
      <trkpt lat="45.24208" lon="0.33847">
        <ele>77</ele>
        <time>2016-03-01T16:02:38Z</time>
      </trkpt>
      <trkpt lat="45.24211" lon="0.33851">
        <ele>78</ele>
        <time>2016-03-01T16:02:42Z</time>
      </trkpt>
      <trkpt lat="45.24216" lon="0.33856">
        <ele>75</ele>
        <time>2016-03-01T16:02:46Z</time>
      </trkpt>
      <trkpt lat="45.24222" lon="0.33859">
        <ele>75</ele>
        <time>2016-03-01T16:02:50Z</time>
      </trkpt>
      <trkpt lat="45.24228" lon="0.33865">
        <ele>75</ele>
        <time>2016-03-01T16:02:55Z</time>
      </trkpt>
      <trkpt lat="45.2423" lon="0.3387">
        <ele>73</ele>
        <time>2016-03-01T16:02:59Z</time>
      </trkpt>
      <trkpt lat="45.24235" lon="0.33873">
        <ele>77</ele>
        <time>2016-03-01T16:03:03Z</time>
      </trkpt>
      <trkpt lat="45.24237" lon="0.33878">
        <ele>77</ele>
        <time>2016-03-01T16:03:07Z</time>
      </trkpt>
      <trkpt lat="45.24241" lon="0.33884">
        <ele>77</ele>
        <time>2016-03-01T16:03:11Z</time>
      </trkpt>
      <trkpt lat="45.24244" lon="0.33886">
        <ele>78</ele>
        <time>2016-03-01T16:03:16Z</time>
      </trkpt>
      <trkpt lat="45.24249" lon="0.33891">
        <ele>79</ele>
        <time>2016-03-01T16:03:20Z</time>
      </trkpt>
      <trkpt lat="45.24254" lon="0.33895">
        <ele>79</ele>
        <time>2016-03-01T16:03:24Z</time>
      </trkpt>
      <trkpt lat="45.24259" lon="0.339">
        <ele>82</ele>
        <time>2016-03-01T16:03:28Z</time>
      </trkpt>
      <trkpt lat="45.24263" lon="0.33906">
        <ele>82</ele>
        <time>2016-03-01T16:03:33Z</time>
      </trkpt>
      <trkpt lat="45.24268" lon="0.3391">
        <ele>83</ele>
        <time>2016-03-01T16:03:37Z</time>
      </trkpt>
      <trkpt lat="45.24272" lon="0.33914">
        <ele>81</ele>
        <time>2016-03-01T16:03:42Z</time>
      </trkpt>
      <trkpt lat="45.24276" lon="0.33918">
        <ele>82</ele>
        <time>2016-03-01T16:03:46Z</time>
      </trkpt>
      <trkpt lat="45.24278" lon="0.33924">
        <ele>81</ele>
        <time>2016-03-01T16:03:51Z</time>
      </trkpt>
      <trkpt lat="45.24282" lon="0.33929">
        <ele>80</ele>
        <time>2016-03-01T16:03:55Z</time>
      </trkpt>
      <trkpt lat="45.24286" lon="0.33934">
        <ele>79</ele>
        <time>2016-03-01T16:03:59Z</time>
      </trkpt>
      <trkpt lat="45.24291" lon="0.33941">
        <ele>77</ele>
        <time>2016-03-01T16:04:04Z</time>
      </trkpt>
      <trkpt lat="45.24297" lon="0.33943">
        <ele>78</ele>
        <time>2016-03-01T16:04:08Z</time>
      </trkpt>
      <trkpt lat="45.24301" lon="0.33947">
        <ele>77</ele>
        <time>2016-03-01T16:04:12Z</time>
      </trkpt>
      <trkpt lat="45.24306" lon="0.33946">
        <ele>77</ele>
        <time>2016-03-01T16:04:16Z</time>
      </trkpt>
      <trkpt lat="45.24312" lon="0.33955">
        <ele>78</ele>
        <time>2016-03-01T16:04:21Z</time>
      </trkpt>
      <trkpt lat="45.24317" lon="0.3396">
        <ele>75</ele>
        <time>2016-03-01T16:04:26Z</time>
      </trkpt>
      <trkpt lat="45.24319" lon="0.33965">
        <ele>74</ele>
        <time>2016-03-01T16:04:31Z</time>
      </trkpt>
      <trkpt lat="45.24323" lon="0.3397">
        <ele>74</ele>
        <time>2016-03-01T16:04:36Z</time>
      </trkpt>
      <trkpt lat="45.24326" lon="0.33973">
        <ele>74</ele>
        <time>2016-03-01T16:04:40Z</time>
      </trkpt>
      <trkpt lat="45.24329" lon="0.33979">
        <ele>73</ele>
        <time>2016-03-01T16:04:44Z</time>
      </trkpt>
      <trkpt lat="45.24336" lon="0.33986">
        <ele>75</ele>
        <time>2016-03-01T16:04:48Z</time>
      </trkpt>
      <trkpt lat="45.24338" lon="0.33991">
        <ele>75</ele>
        <time>2016-03-01T16:04:52Z</time>
      </trkpt>
      <trkpt lat="45.24339" lon="0.33996">
        <ele>77</ele>
        <time>2016-03-01T16:04:56Z</time>
      </trkpt>
      <trkpt lat="45.24342" lon="0.34003">
        <ele>75</ele>
        <time>2016-03-01T16:05:01Z</time>
      </trkpt>
      <trkpt lat="45.24345" lon="0.34007">
        <ele>73</ele>
        <time>2016-03-01T16:05:06Z</time>
      </trkpt>
      <trkpt lat="45.24349" lon="0.34008">
        <ele>75</ele>
        <time>2016-03-01T16:05:10Z</time>
      </trkpt>
      <trkpt lat="45.24355" lon="0.34008">
        <ele>80</ele>
        <time>2016-03-01T16:05:14Z</time>
      </trkpt>
      <trkpt lat="45.24359" lon="0.3401">
        <ele>82</ele>
        <time>2016-03-01T16:05:18Z</time>
      </trkpt>
      <trkpt lat="45.24359" lon="0.34015">
        <ele>85</ele>
        <time>2016-03-01T16:05:22Z</time>
      </trkpt>
      <trkpt lat="45.24361" lon="0.3402">
        <ele>87</ele>
        <time>2016-03-01T16:05:26Z</time>
      </trkpt>
      <trkpt lat="45.24371" lon="0.34019">
        <ele>84</ele>
        <time>2016-03-01T16:05:31Z</time>
      </trkpt>
      <trkpt lat="45.24379" lon="0.34014">
        <ele>81</ele>
        <time>2016-03-01T16:05:36Z</time>
      </trkpt>
      <trkpt lat="45.24386" lon="0.33998">
        <ele>75</ele>
        <time>2016-03-01T16:05:40Z</time>
      </trkpt>
      <trkpt lat="45.24391" lon="0.33997">
        <ele>72</ele>
        <time>2016-03-01T16:05:44Z</time>
      </trkpt>
      <trkpt lat="45.24395" lon="0.33996">
        <ele>72</ele>
        <time>2016-03-01T16:05:48Z</time>
      </trkpt>
      <trkpt lat="45.244" lon="0.3399">
        <ele>72</ele>
        <time>2016-03-01T16:05:52Z</time>
      </trkpt>
      <trkpt lat="45.24405" lon="0.33986">
        <ele>72</ele>
        <time>2016-03-01T16:05:57Z</time>
      </trkpt>
      <trkpt lat="45.2441" lon="0.33989">
        <ele>69</ele>
        <time>2016-03-01T16:06:02Z</time>
      </trkpt>
      <trkpt lat="45.24414" lon="0.33986">
        <ele>70</ele>
        <time>2016-03-01T16:06:07Z</time>
      </trkpt>
      <trkpt lat="45.2442" lon="0.33982">
        <ele>68</ele>
        <time>2016-03-01T16:06:11Z</time>
      </trkpt>
      <trkpt lat="45.24426" lon="0.33975">
        <ele>67</ele>
        <time>2016-03-01T16:06:16Z</time>
      </trkpt>
      <trkpt lat="45.24428" lon="0.33982">
        <ele>66</ele>
        <time>2016-03-01T16:06:20Z</time>
      </trkpt>
      <trkpt lat="45.24432" lon="0.33977">
        <ele>67</ele>
        <time>2016-03-01T16:06:25Z</time>
      </trkpt>
      <trkpt lat="45.24437" lon="0.33976">
        <ele>67</ele>
        <time>2016-03-01T16:06:29Z</time>
      </trkpt>
      <trkpt lat="45.24444" lon="0.33965">
        <ele>66</ele>
        <time>2016-03-01T16:06:34Z</time>
      </trkpt>
      <trkpt lat="45.24448" lon="0.33959">
        <ele>66</ele>
        <time>2016-03-01T16:06:38Z</time>
      </trkpt>
      <trkpt lat="45.24456" lon="0.33957">
        <ele>65</ele>
        <time>2016-03-01T16:06:42Z</time>
      </trkpt>
      <trkpt lat="45.2446" lon="0.33952">
        <ele>65</ele>
        <time>2016-03-01T16:06:47Z</time>
      </trkpt>
      <trkpt lat="45.24462" lon="0.33948">
        <ele>64</ele>
        <time>2016-03-01T16:06:51Z</time>
      </trkpt>
      <trkpt lat="45.24464" lon="0.33953">
        <ele>68</ele>
        <time>2016-03-01T16:07:00Z</time>
      </trkpt>
      <trkpt lat="45.2447" lon="0.33956">
        <ele>66</ele>
        <time>2016-03-01T16:07:05Z</time>
      </trkpt>
      <trkpt lat="45.24473" lon="0.33954">
        <ele>66</ele>
        <time>2016-03-01T16:07:09Z</time>
      </trkpt>
      <trkpt lat="45.24477" lon="0.33942">
        <ele>69</ele>
        <time>2016-03-01T16:07:13Z</time>
      </trkpt>
      <trkpt lat="45.24482" lon="0.33935">
        <ele>68</ele>
        <time>2016-03-01T16:07:18Z</time>
      </trkpt>
      <trkpt lat="45.24487" lon="0.33935">
        <ele>68</ele>
        <time>2016-03-01T16:07:22Z</time>
      </trkpt>
      <trkpt lat="45.24491" lon="0.33934">
        <ele>66</ele>
        <time>2016-03-01T16:07:28Z</time>
      </trkpt>
      <trkpt lat="45.24498" lon="0.33927">
        <ele>64</ele>
        <time>2016-03-01T16:07:33Z</time>
      </trkpt>
      <trkpt lat="45.24502" lon="0.33927">
        <ele>67</ele>
        <time>2016-03-01T16:07:37Z</time>
      </trkpt>
      <trkpt lat="45.24506" lon="0.33922">
        <ele>65</ele>
        <time>2016-03-01T16:07:41Z</time>
      </trkpt>
      <trkpt lat="45.24511" lon="0.3392">
        <ele>67</ele>
        <time>2016-03-01T16:07:46Z</time>
      </trkpt>
      <trkpt lat="45.24516" lon="0.33916">
        <ele>66</ele>
        <time>2016-03-01T16:07:50Z</time>
      </trkpt>
      <trkpt lat="45.2452" lon="0.33914">
        <ele>68</ele>
        <time>2016-03-01T16:07:56Z</time>
      </trkpt>
      <trkpt lat="45.24523" lon="0.33912">
        <ele>69</ele>
        <time>2016-03-01T16:08:01Z</time>
      </trkpt>
      <trkpt lat="45.24527" lon="0.33909">
        <ele>71</ele>
        <time>2016-03-01T16:08:06Z</time>
      </trkpt>
      <trkpt lat="45.24531" lon="0.33906">
        <ele>71</ele>
        <time>2016-03-01T16:08:11Z</time>
      </trkpt>
      <trkpt lat="45.24536" lon="0.33903">
        <ele>71</ele>
        <time>2016-03-01T16:08:16Z</time>
      </trkpt>
      <trkpt lat="45.24542" lon="0.33901">
        <ele>72</ele>
        <time>2016-03-01T16:08:20Z</time>
      </trkpt>
      <trkpt lat="45.24546" lon="0.33898">
        <ele>71</ele>
        <time>2016-03-01T16:08:24Z</time>
      </trkpt>
      <trkpt lat="45.2455" lon="0.33896">
        <ele>71</ele>
        <time>2016-03-01T16:08:28Z</time>
      </trkpt>
      <trkpt lat="45.24557" lon="0.33893">
        <ele>72</ele>
        <time>2016-03-01T16:08:33Z</time>
      </trkpt>
      <trkpt lat="45.24562" lon="0.33891">
        <ele>71</ele>
        <time>2016-03-01T16:08:37Z</time>
      </trkpt>
      <trkpt lat="45.24569" lon="0.33889">
        <ele>67</ele>
        <time>2016-03-01T16:08:42Z</time>
      </trkpt>
      <trkpt lat="45.24574" lon="0.33888">
        <ele>65</ele>
        <time>2016-03-01T16:08:46Z</time>
      </trkpt>
      <trkpt lat="45.2458" lon="0.33883">
        <ele>68</ele>
        <time>2016-03-01T16:08:51Z</time>
      </trkpt>
      <trkpt lat="45.24584" lon="0.33879">
        <ele>69</ele>
        <time>2016-03-01T16:08:55Z</time>
      </trkpt>
      <trkpt lat="45.24591" lon="0.33874">
        <ele>67</ele>
        <time>2016-03-01T16:09:00Z</time>
      </trkpt>
      <trkpt lat="45.24596" lon="0.33873">
        <ele>67</ele>
        <time>2016-03-01T16:09:04Z</time>
      </trkpt>
      <trkpt lat="45.24602" lon="0.33867">
        <ele>63</ele>
        <time>2016-03-01T16:09:08Z</time>
      </trkpt>
      <trkpt lat="45.24605" lon="0.33863">
        <ele>62</ele>
        <time>2016-03-01T16:09:12Z</time>
      </trkpt>
      <trkpt lat="45.2461" lon="0.33859">
        <ele>64</ele>
        <time>2016-03-01T16:09:17Z</time>
      </trkpt>
      <trkpt lat="45.24615" lon="0.33856">
        <ele>63</ele>
        <time>2016-03-01T16:09:21Z</time>
      </trkpt>
      <trkpt lat="45.2462" lon="0.33855">
        <ele>63</ele>
        <time>2016-03-01T16:09:26Z</time>
      </trkpt>
      <trkpt lat="45.24625" lon="0.33855">
        <ele>66</ele>
        <time>2016-03-01T16:09:32Z</time>
      </trkpt>
      <trkpt lat="45.24631" lon="0.3385">
        <ele>68</ele>
        <time>2016-03-01T16:09:37Z</time>
      </trkpt>
      <trkpt lat="45.24635" lon="0.33848">
        <ele>67</ele>
        <time>2016-03-01T16:09:41Z</time>
      </trkpt>
      <trkpt lat="45.2464" lon="0.33843">
        <ele>65</ele>
        <time>2016-03-01T16:09:45Z</time>
      </trkpt>
      <trkpt lat="45.24645" lon="0.33839">
        <ele>65</ele>
        <time>2016-03-01T16:09:50Z</time>
      </trkpt>
      <trkpt lat="45.24648" lon="0.33835">
        <ele>66</ele>
        <time>2016-03-01T16:09:54Z</time>
      </trkpt>
      <trkpt lat="45.24651" lon="0.33833">
        <ele>65</ele>
        <time>2016-03-01T16:09:59Z</time>
      </trkpt>
      <trkpt lat="45.24656" lon="0.33829">
        <ele>64</ele>
        <time>2016-03-01T16:10:03Z</time>
      </trkpt>
      <trkpt lat="45.24662" lon="0.33828">
        <ele>62</ele>
        <time>2016-03-01T16:10:08Z</time>
      </trkpt>
      <trkpt lat="45.24666" lon="0.33831">
        <ele>67</ele>
        <time>2016-03-01T16:10:15Z</time>
      </trkpt>
      <trkpt lat="45.24672" lon="0.33827">
        <ele>69</ele>
        <time>2016-03-01T16:10:19Z</time>
      </trkpt>
      <trkpt lat="45.24676" lon="0.33828">
        <ele>71</ele>
        <time>2016-03-01T16:10:24Z</time>
      </trkpt>
      <trkpt lat="45.24682" lon="0.33819">
        <ele>70</ele>
        <time>2016-03-01T16:10:29Z</time>
      </trkpt>
      <trkpt lat="45.24687" lon="0.33817">
        <ele>72</ele>
        <time>2016-03-01T16:10:34Z</time>
      </trkpt>
      <trkpt lat="45.24691" lon="0.33818">
        <ele>74</ele>
        <time>2016-03-01T16:10:38Z</time>
      </trkpt>
      <trkpt lat="45.24695" lon="0.33816">
        <ele>74</ele>
        <time>2016-03-01T16:10:42Z</time>
      </trkpt>
      <trkpt lat="45.24698" lon="0.33812">
        <ele>77</ele>
        <time>2016-03-01T16:10:47Z</time>
      </trkpt>
      <trkpt lat="45.24701" lon="0.33812">
        <ele>74</ele>
        <time>2016-03-01T16:10:51Z</time>
      </trkpt>
      <trkpt lat="45.24706" lon="0.33811">
        <ele>75</ele>
        <time>2016-03-01T16:10:56Z</time>
      </trkpt>
      <trkpt lat="45.2471" lon="0.33814">
        <ele>77</ele>
        <time>2016-03-01T16:11:00Z</time>
      </trkpt>
      <trkpt lat="45.24715" lon="0.3381">
        <ele>82</ele>
        <time>2016-03-01T16:11:05Z</time>
      </trkpt>
      <trkpt lat="45.24721" lon="0.33802">
        <ele>78</ele>
        <time>2016-03-01T16:11:09Z</time>
      </trkpt>
      <trkpt lat="45.24726" lon="0.33803">
        <ele>77</ele>
        <time>2016-03-01T16:11:13Z</time>
      </trkpt>
      <trkpt lat="45.24736" lon="0.33802">
        <ele>78</ele>
        <time>2016-03-01T16:11:18Z</time>
      </trkpt>
      <trkpt lat="45.2474" lon="0.33802">
        <ele>79</ele>
        <time>2016-03-01T16:11:22Z</time>
      </trkpt>
      <trkpt lat="45.24747" lon="0.33803">
        <ele>77</ele>
        <time>2016-03-01T16:11:26Z</time>
      </trkpt>
      <trkpt lat="45.24754" lon="0.33797">
        <ele>77</ele>
        <time>2016-03-01T16:11:31Z</time>
      </trkpt>
      <trkpt lat="45.24758" lon="0.33791">
        <ele>75</ele>
        <time>2016-03-01T16:11:35Z</time>
      </trkpt>
      <trkpt lat="45.24761" lon="0.33783">
        <ele>74</ele>
        <time>2016-03-01T16:11:39Z</time>
      </trkpt>
      <trkpt lat="45.24769" lon="0.33777">
        <ele>76</ele>
        <time>2016-03-01T16:11:44Z</time>
      </trkpt>
      <trkpt lat="45.24774" lon="0.33778">
        <ele>74</ele>
        <time>2016-03-01T16:11:51Z</time>
      </trkpt>
      <trkpt lat="45.2478" lon="0.33774">
        <ele>73</ele>
        <time>2016-03-01T16:11:56Z</time>
      </trkpt>
      <trkpt lat="45.24785" lon="0.33767">
        <ele>69</ele>
        <time>2016-03-01T16:12:01Z</time>
      </trkpt>
      <trkpt lat="45.24787" lon="0.33761">
        <ele>66</ele>
        <time>2016-03-01T16:12:17Z</time>
      </trkpt>
      <trkpt lat="45.24791" lon="0.33761">
        <ele>64</ele>
        <time>2016-03-01T16:12:38Z</time>
      </trkpt>
      <trkpt lat="45.24795" lon="0.33763">
        <ele>64</ele>
        <time>2016-03-01T16:12:43Z</time>
      </trkpt>
      <trkpt lat="45.24798" lon="0.33766">
        <ele>64</ele>
        <time>2016-03-01T16:12:47Z</time>
      </trkpt>
      <trkpt lat="45.24802" lon="0.33769">
        <ele>65</ele>
        <time>2016-03-01T16:12:51Z</time>
      </trkpt>
      <trkpt lat="45.24808" lon="0.33769">
        <ele>66</ele>
        <time>2016-03-01T16:12:55Z</time>
      </trkpt>
      <trkpt lat="45.24811" lon="0.33774">
        <ele>64</ele>
        <time>2016-03-01T16:13:00Z</time>
      </trkpt>
      <trkpt lat="45.24815" lon="0.33777">
        <ele>67</ele>
        <time>2016-03-01T16:13:39Z</time>
      </trkpt>
      <trkpt lat="45.24816" lon="0.33783">
        <ele>67</ele>
        <time>2016-03-01T16:15:57Z</time>
      </trkpt>
      <trkpt lat="45.24816" lon="0.33791">
        <ele>65</ele>
        <time>2016-03-01T16:16:01Z</time>
      </trkpt>
      <trkpt lat="45.24816" lon="0.33798">
        <ele>66</ele>
        <time>2016-03-01T16:16:05Z</time>
      </trkpt>
      <trkpt lat="45.24818" lon="0.33805">
        <ele>66</ele>
        <time>2016-03-01T16:16:09Z</time>
      </trkpt>
      <trkpt lat="45.24818" lon="0.33809">
        <ele>67</ele>
        <time>2016-03-01T16:16:14Z</time>
      </trkpt>
      <trkpt lat="45.24818" lon="0.33809">
        <ele>67</ele>
        <time>2016-03-01T16:16:14Z</time>
      </trkpt>
    </trkseg>
  </trk>
</gpx>